GFSGL_sfc_rhum_000.txt.gz
RH
48 60 61 55 57 56 58 63 62 65 69 69 74 74 73 72 68 66 66 68 71 71 72 72 69 67 67 72 75 73 72 72 73 62 62 62 66 68 70 74 85 89 93
54 61 60 57 54 57 62 62 61 58 54 54 58 59 60 61 63 65 68 64 67 66 63 70 64 50 62 74 78 77 76 75 74 74 65 62 62 66 71 76 69 80 94
54 58 54 53 53 63 61 60 56 53 52 55 53 59 63 64 64 64 65 63 61 59 64 71 73 77 82 84 85 85 86 71 84 84 86 84 83 78 77 76 77 80 82
60 55 54 56 60 66 64 61 56 56 57 58 60 65 68 66 61 60 59 68 73 70 76 77 77 78 81 81 77 80 76 84 80 81 78 78 85 83 84 87 81 85 82
62 64 76 74 71 68 64 66 66 62 62 65 67 65 66 62 52 78 77 79 79 80 80 78 75 76 68 73 70 73 74 73 71 68 66 64 66 68 77 89 95 97 93
81 84 80 77 76 80 81 81 73 68 63 59 61 65 67 55 82 76 80 85 80 78 80 74 71 67 70 68 70 73 73 79 80 80 78 79 74 76 76 78 98 98 92
84 85 90 91 90 86 82 76 64 62 61 60 61 64 71 76 70 70 74 74 80 83 84 83 75 65 70 71 72 75 75 76 77 78 80 75 76 74 77 83 95 95 91
89 84 84 87 85 73 63 60 60 58 57 59 65 72 75 70 75 70 76 83 88 87 85 83 84 83 81 80 81 83 80 78 76 71 74 76 76 76 78 74 78 80 84
60 60 60 60 57 57 55 58 59 60 63 64 71 81 87 85 75 69 73 89 88 90 88 84 84 80 78 76 85 96 84 86 76 78 78 76 76 77 80 83 92 94 95
58 53 51 54 54 55 59 61 60 61 63 82 84 84 81 91 79 71 72 84 95 92 86 83 78 78 80 82 86 90 94 86 79 79 83 80 81 83 82 84 92 96 94
52 54 54 57 57 59 58 59 63 71 85 94 94 92 90 87 87 75 71 86 95 93 90 87 85 80 82 88 88 93 93 83 84 89 85 83 84 87 84 84 90 92 96
59 60 63 65 62 53 60 64 70 85 95 94 98 95 94 93 83 80 73 75 80 96 95 92 92 89 88 95 95 94 87 91 93 96 94 91 88 89 84 81 84 91 88
68 72 73 73 66 61 66 75 78 87 97 95 95 97 94 91 93 80 78 80 86 96 93 90 86 80 82 92 88 89 94 94 96 96 93 88 92 86 83 88 92 90 92
74 77 80 81 76 74 76 72 78 96 96 93 97 96 95 93 88 87 92 95 89 96 93 92 90 89 90 92 94 91 95 96 96 96 94 87 86 93 97 93 96 93 88
77 79 86 88 81 81 78 78 89 92 94 94 97 97 97 93 90 94 91 95 97 96 96 94 91 91 91 89 90 92 95 96 98 97 98 98 96 96 94 96 91 94 98
79 85 96 97 95 84 86 86 73 80 71 70 72 90 92 85 92 88 90 93 88 89 92 98 94 95 95 94 94 92 92 93 94 99 99 98 98 98 97 97 98 98 96
94 92 95 93 95 96 96 96 99 89 75 78 74 76 78 90 90 90 92 90 89 87 95 94 96 96 95 94 94 94 95 95 95 95 99 99 98 99 98 98 98 98 98
96 95 97 97 96 94 98 98 98 98 99 97 88 78 83 90 90 91 90 84 91 87 92 94 95 95 95 94 94 95 94 94 94 94 95 97 98 98 99 98 98 97 97
93 97 97 96 95 97 98 97 98 98 98 100 98 86 92 88 90 89 87 94 95 93 91 92 95 94 94 95 96 96 96 96 96 95 95 95 96 99 99 97 97 97 98
92 88 89 96 97 97 97 97 98 98 98 100 100 96 93 92 94 95 95 95 95 94 94 93 93 94 96 96 96 96 96 96 96 96 96 96 96 96 97 97 98 98 97
97 96 89 95 99 98 98 98 99 98 100 100 99 98 95 95 96 96 95 95 95 94 95 94 95 95 94 95 95 96 96 97 97 97 98 97 96 96 98 97 97 97 96
97 98 97 97 99 98 98 98 98 98 100 100 99 98 95 97 96 96 95 96 96 96 95 95 95 95 95 95 96 96 96 96 96 99 99 98 98 98 98 97 97 99 98
99 97 98 98 98 99 99 98 99 100 99 99 99 98 98 98 97 96 96 96 95 94 94 94 95 94 94 95 95 96 96 96 97 99 99 99 98 99 99 99 99 97 97
98 98 99 100 99 99 98 100 98 99 99 99 100 99 98 98 97 97 97 96 96 96 96 95 96 95 94 94 93 94 94 96 96 97 97 98 98 98 98 98 99 97 98
98 98 98 99 100 97 98 98 99 99 98 98 99 99 98 98 97 97 97 97 96 96 96 96 96 95 95 93 93 93 92 96 94 95 94 93 93 94 96 96 98 97 96
98 98 99 99 99 98 97 98 99 98 99 99 99 99 98 97 98 98 97 96 97 97 96 96 95 96 95 91 90 90 90 91 91 92 93 93 95 94 93 95 95 97 98

GFSGL_sfc_rhum_003.txt.gz
RH
56 60 65 65 64 65 68 72 75 77 72 70 66 69 83 87 82 80 76 73 74 72 71 71 71 71 75 78 82 77 74 72 80 66 71 71 72 66 67 77 81 83 89
64 65 60 69 63 62 67 66 66 58 56 56 60 61 65 66 66 70 71 67 69 69 68 70 70 53 70 77 83 82 79 80 85 88 82 79 74 74 78 80 75 75 84
68 62 58 64 60 65 62 59 56 52 50 52 52 57 60 66 66 68 69 69 69 70 72 75 76 80 86 87 86 89 87 72 89 90 88 91 90 89 85 83 82 82 71
72 62 59 58 63 66 63 66 73 66 60 59 60 65 69 66 61 63 66 75 77 73 76 77 78 81 81 81 77 80 76 84 87 90 81 80 90 83 90 89 87 86 83
86 73 81 74 72 75 91 89 79 72 64 68 68 64 65 62 56 80 74 74 76 76 77 76 75 73 66 68 70 78 84 82 78 74 70 66 65 72 80 72 78 82 91
90 91 86 89 90 92 92 90 89 89 80 65 62 64 68 58 84 74 78 84 79 78 78 74 76 71 74 70 68 68 72 78 79 80 78 81 78 82 84 80 84 84 87
91 88 89 91 95 94 90 89 90 73 64 61 63 67 74 76 72 71 73 83 83 83 86 85 78 69 74 74 74 73 76 75 79 81 83 77 79 74 73 84 87 89 86
80 69 66 70 70 72 66 63 63 62 60 63 70 77 80 76 74 71 74 83 88 88 85 84 86 86 81 77 78 82 77 75 78 76 81 80 80 77 78 78 81 80 80
62 61 58 64 64 62 61 63 63 63 65 74 80 83 81 82 72 69 72 92 91 90 85 83 84 84 81 78 82 95 89 80 73 75 76 78 77 77 79 86 96 97 94
64 61 60 61 63 64 65 62 62 67 74 82 80 80 79 90 79 72 75 89 95 88 84 78 78 79 79 77 85 94 94 84 78 74 80 80 82 84 83 85 96 96 94
59 62 62 64 68 65 62 65 72 82 86 93 92 91 89 87 90 78 74 86 94 93 90 87 88 83 82 83 90 97 95 82 88 86 83 92 89 89 87 85 90 96 97
64 66 71 75 66 58 68 74 76 84 92 93 97 95 94 94 85 81 75 75 80 96 93 95 92 81 80 76 82 91 85 96 96 96 95 94 95 93 85 84 84 88 86
71 74 78 76 70 68 76 77 78 85 95 96 96 96 94 93 95 82 79 82 85 95 97 82 76 78 80 87 82 84 93 95 93 93 93 89 84 83 79 85 89 89 91
72 75 80 84 79 79 77 74 80 95 97 95 96 94 94 93 90 89 94 94 88 96 95 97 87 86 90 93 93 92 95 97 97 96 95 92 91 97 97 95 96 96 98
72 75 83 87 87 82 77 83 89 94 95 92 96 97 96 93 91 91 94 95 97 97 94 96 92 90 91 89 89 90 91 92 95 96 98 98 97 97 97 98 97 98 97
77 83 94 97 97 87 82 85 74 79 72 71 73 82 87 84 85 90 91 93 94 91 94 95 96 96 96 94 94 94 91 92 92 94 98 98 98 97 98 98 97 97 95
95 94 96 95 96 94 96 97 99 87 76 76 75 72 73 82 89 91 92 93 92 83 94 94 96 96 96 93 94 94 95 94 94 94 96 96 97 98 97 97 96 97 98
96 96 99 99 98 96 98 98 99 100 100 97 86 77 80 86 90 91 91 90 89 89 92 94 95 95 95 94 93 95 95 95 94 94 95 96 96 98 97 98 98 97 98
91 95 96 97 98 98 98 98 98 99 98 99 97 93 90 86 90 90 91 94 94 93 92 92 95 94 94 95 96 96 98 97 98 97 96 96 97 98 97 97 97 98 97
85 94 93 97 98 98 98 98 99 99 99 100 100 98 94 91 94 95 95 96 95 94 94 93 93 93 95 95 96 96 95 95 96 96 96 97 97 98 99 97 98 98 97
98 98 93 97 99 99 98 99 99 100 100 100 100 99 96 96 96 96 95 95 95 95 95 94 95 95 94 94 94 96 96 96 96 98 98 98 98 99 98 99 99 99 98
98 99 99 98 99 99 99 99 100 100 99 100 99 98 95 98 97 96 96 96 96 95 95 95 95 95 95 95 95 96 96 96 96 98 98 98 99 99 98 99 98 99 98
99 98 99 99 99 100 99 99 99 100 99 100 99 98 98 98 98 97 96 97 96 95 95 95 96 95 93 95 95 96 97 97 97 97 100 98 98 99 100 100 100 98 99
98 99 99 100 100 100 99 100 100 100 98 100 100 100 98 98 98 97 97 97 96 96 96 96 96 95 93 93 94 94 94 95 96 96 97 97 97 97 97 99 99 99 98
98 98 99 100 100 100 100 100 100 100 100 99 99 99 98 98 98 98 98 98 97 97 95 96 96 96 94 93 93 92 93 96 94 96 95 93 92 94 97 98 100 99 99
98 98 98 99 99 100 100 100 100 100 99 99 99 99 99 98 98 98 98 97 97 97 96 96 95 95 96 92 92 92 91 91 92 92 94 91 92 94 94 94 94 98 98

GFSGL_sfc_rhum_006.txt.gz
RH
66 72 74 67 68 68 76 78 81 85 83 70 68 72 75 79 84 88 86 81 77 76 71 70 71 70 75 78 83 84 81 84 85 70 73 69 73 74 67 72 80 81 84
72 74 72 72 65 72 73 72 73 61 59 59 58 60 62 65 69 71 72 70 71 70 70 73 73 57 74 76 81 85 85 83 82 83 85 79 77 76 78 80 72 72 82
76 81 72 65 66 72 71 75 72 70 64 62 57 55 61 67 68 68 69 70 72 75 77 78 78 78 79 80 79 80 81 71 84 89 80 85 82 84 81 82 82 85 75
88 84 87 84 77 87 95 93 85 79 69 68 69 70 75 68 62 63 65 74 73 71 74 74 75 76 74 73 70 72 71 78 76 79 74 75 84 80 82 79 82 85 76
93 92 90 89 92 95 95 93 90 89 86 87 87 71 67 62 54 75 72 72 75 77 75 70 69 70 65 65 66 73 77 82 82 80 78 74 74 77 79 72 77 76 79
92 94 93 90 88 88 90 91 91 90 88 95 86 69 71 61 76 74 77 84 80 76 78 72 72 74 77 73 72 72 71 79 81 80 76 77 72 73 72 74 80 82 81
83 66 72 73 79 82 87 93 90 81 72 67 68 74 78 78 73 71 72 79 83 83 82 82 76 68 73 75 77 76 74 75 78 82 90 84 77 71 72 86 85 84 80
73 74 74 70 71 69 65 64 66 64 64 68 74 83 82 69 69 68 70 81 87 86 84 82 84 83 80 77 78 82 83 80 75 70 80 79 78 74 75 72 78 80 82
81 83 79 68 68 68 68 67 66 67 69 80 81 79 78 77 73 72 73 91 92 91 83 83 84 80 80 80 87 95 89 81 72 72 74 80 77 77 77 85 94 95 94
71 66 66 70 74 75 69 68 66 74 77 76 73 78 78 89 80 76 76 89 94 94 89 80 77 78 81 85 91 96 95 84 78 85 80 73 74 83 84 85 94 94 92
64 67 70 76 77 69 71 73 77 82 83 92 93 92 88 86 90 78 73 86 95 93 92 88 87 89 76 73 75 89 91 82 94 93 93 87 90 86 89 87 91 96 93
67 70 74 80 72 65 77 77 74 83 93 94 97 96 95 94 86 79 74 76 83 97 94 92 95 80 75 76 80 84 81 88 93 92 95 92 92 88 83 82 84 86 82
71 73 76 80 74 69 77 79 81 88 97 96 95 93 90 91 93 80 80 84 89 96 96 95 94 78 80 86 83 87 94 95 96 95 93 90 88 84 88 95 96 87 88
72 74 79 82 83 78 76 74 83 97 98 96 95 94 92 92 90 87 94 93 89 94 96 94 94 89 88 88 91 90 93 95 95 95 94 93 94 96 96 95 95 95 97
72 75 82 85 88 86 79 80 92 95 95 93 95 96 96 94 90 89 91 94 96 96 97 96 90 89 88 87 87 88 91 92 93 95 95 94 95 95 95 96 96 95 96
77 86 96 97 97 92 82 84 74 76 74 69 70 82 85 80 84 86 90 92 93 93 93 94 95 95 94 92 93 91 89 91 91 93 95 95 96 96 94 95 96 96 95
96 96 98 94 98 98 97 97 99 86 78 72 75 74 72 77 86 88 90 92 92 89 94 94 96 95 94 92 92 93 94 93 94 93 94 95 95 96 97 96 97 95 96
97 97 97 97 98 99 99 99 99 100 100 96 85 78 77 79 86 88 89 88 90 89 91 94 95 94 93 92 92 93 92 92 93 93 94 95 96 95 96 95 96 97 95
96 97 97 98 98 98 99 99 98 100 99 98 95 91 93 79 80 86 87 94 94 92 91 91 94 93 93 92 95 95 96 96 96 97 95 95 97 94 94 96 96 99 97
92 96 95 98 98 99 98 99 98 99 98 97 99 99 95 89 94 94 95 96 95 94 94 92 92 93 94 94 95 95 94 94 94 94 97 98 97 97 97 95 98 98 96
99 98 99 97 98 100 99 99 99 99 98 98 100 99 95 97 97 96 96 96 95 94 95 93 95 95 94 94 92 95 95 95 94 95 96 97 99 98 96 96 97 96 95
96 99 99 99 99 99 99 99 100 100 99 100 98 97 94 98 98 96 96 97 97 95 94 95 94 94 94 94 95 96 96 97 95 95 96 97 98 98 96 97 97 97 95
97 98 99 99 100 100 100 99 100 100 100 100 100 98 98 98 98 97 97 97 96 96 95 95 96 94 93 95 96 96 97 98 99 99 97 98 97 98 100 98 98 97 96
98 100 99 100 100 100 100 100 100 100 100 100 100 99 99 99 98 98 98 98 97 96 96 97 96 95 92 92 94 93 93 95 96 97 98 96 96 96 96 98 98 99 99
98 98 100 100 100 100 100 100 100 100 100 100 100 100 99 99 97 98 97 97 96 96 96 96 96 95 94 94 93 91 92 97 93 95 95 94 92 92 95 94 97 96 98
98 98 98 99 100 99 99 100 100 100 100 100 100 99 99 99 98 98 97 96 96 96 95 96 95 94 95 92 90 94 92 92 93 91 94 90 91 93 93 93 91 92 94

GFSGL_sfc_rhum_009.txt.gz
RH
56 60 64 62 56 53 58 62 63 67 60 53 51 52 58 64 62 62 63 60 59 58 59 57 56 54 50 50 48 45 45 44 49 40 36 40 44 43 39 41 45 45 46
60 62 63 55 51 57 60 58 59 54 52 52 53 64 70 66 55 55 56 52 49 48 47 51 47 39 52 53 52 55 54 50 51 53 44 44 49 46 47 50 44 42 50
62 66 61 60 58 71 74 73 70 68 64 66 73 83 80 63 54 51 52 51 52 52 55 57 56 56 54 50 51 50 48 42 47 48 48 43 44 45 46 46 49 52 44
69 68 69 71 72 75 76 75 74 70 68 76 79 76 84 68 51 46 46 53 55 54 58 56 54 53 52 50 48 49 46 48 48 49 47 46 44 43 46 50 54 53 54
72 73 76 77 76 83 67 62 65 63 63 67 74 70 55 51 44 58 56 58 58 58 56 52 53 56 64 61 53 53 52 53 52 54 56 54 54 57 61 52 55 56 57
77 63 57 58 55 58 62 65 65 60 54 52 52 55 59 51 79 78 72 58 57 55 56 54 52 59 60 67 72 72 68 63 62 61 58 56 51 48 49 53 56 60 62
59 56 57 62 54 52 48 46 48 51 51 51 54 58 60 57 65 66 68 54 55 57 56 54 50 47 61 57 64 68 73 74 77 72 76 67 63 58 57 65 67 62 60
58 62 62 56 51 51 50 49 50 49 51 52 59 57 52 47 66 68 69 63 67 64 58 56 57 59 61 67 66 65 64 64 64 61 64 61 56 54 58 62 65 64 62
58 58 50 53 52 53 52 51 51 52 53 56 51 53 53 55 66 70 71 74 74 72 62 61 60 62 68 76 78 87 76 61 57 68 71 76 78 77 72 67 84 83 85
55 50 49 54 53 52 53 52 52 52 52 54 55 55 64 72 70 74 71 73 82 72 70 66 71 72 82 88 92 88 86 64 59 72 69 64 72 77 86 86 83 86 74
50 51 50 51 54 54 52 52 50 50 66 80 84 80 75 71 74 72 70 79 81 79 75 69 74 89 93 81 79 83 82 73 77 76 68 64 68 76 68 64 77 87 82
51 51 49 52 54 50 52 50 50 57 73 82 85 80 69 79 70 71 72 76 78 91 84 84 90 91 82 78 77 82 84 86 86 86 84 79 78 78 68 62 60 66 72
54 53 52 55 55 51 51 54 54 57 71 75 68 74 68 67 68 68 77 81 74 87 92 91 87 87 82 73 76 82 85 83 86 87 83 79 82 75 78 89 86 73 82
54 54 55 58 59 57 56 58 57 71 72 71 73 73 70 66 70 70 76 74 74 89 90 87 90 91 76 74 74 76 82 85 85 84 82 80 81 83 84 80 85 84 90
54 55 62 66 67 63 63 60 66 72 74 75 70 72 84 83 78 84 86 88 92 91 93 90 87 85 72 72 75 75 77 78 81 84 85 83 79 78 79 82 80 83 87
62 64 71 71 71 64 58 60 66 74 76 69 70 78 77 74 81 83 86 90 91 92 88 90 92 91 83 78 80 78 78 80 80 81 84 84 85 84 82 82 80 83 85
81 82 71 78 71 70 73 75 78 70 75 72 73 72 71 72 81 83 87 90 90 88 89 89 92 92 89 78 77 79 82 82 82 81 84 87 88 86 89 86 86 85 85
88 92 81 74 76 78 81 80 80 83 88 83 74 74 76 73 77 81 85 83 85 85 87 89 90 90 86 80 78 79 80 82 83 83 86 88 90 89 89 86 86 90 85
84 75 85 85 85 88 86 82 82 82 83 81 76 70 76 76 75 80 83 86 88 88 87 86 90 88 88 85 89 89 89 89 88 89 88 86 91 87 87 86 87 91 87
77 87 90 84 83 83 81 82 80 82 80 83 81 82 77 74 85 86 87 90 89 88 89 86 87 86 87 86 89 90 86 88 86 85 90 91 92 88 88 87 87 86 81
83 80 95 78 80 85 85 84 83 85 85 84 85 88 87 83 86 85 85 87 81 77 83 81 85 87 86 86 84 88 85 88 87 87 87 87 91 89 85 85 85 80 78
91 89 86 84 86 88 86 83 86 86 85 85 86 83 86 86 85 84 83 84 85 80 79 82 82 82 84 86 88 91 88 88 88 89 89 86 84 85 83 83 83 83 79
91 92 88 84 89 93 90 83 87 89 87 88 86 85 85 87 88 85 84 87 82 83 82 82 84 81 81 85 86 86 89 90 90 88 88 87 84 86 86 84 82 81 81
91 92 89 90 94 92 94 94 92 90 89 90 91 90 89 88 89 88 86 86 84 85 85 84 83 83 80 83 81 78 80 86 84 82 83 82 81 82 85 82 83 86 82
93 93 92 93 94 95 95 93 94 92 91 92 92 91 87 88 85 87 89 90 86 86 83 85 85 82 83 84 83 82 86 88 84 84 78 76 80 82 83 80 86 82 86
91 91 92 93 94 94 94 95 94 94 92 92 92 92 91 89 86 88 87 85 86 85 82 84 84 83 82 74 77 85 86 85 82 82 82 76 80 80 79 80 81 79 81

GFSGL_sfc_rhum_012.txt.gz
RH
44 45 48 48 46 46 48 49 50 51 45 44 44 52 67 84 86 81 67 53 50 47 45 42 39 37 37 34 37 39 39 37 38 33 27 28 33 36 34 36 36 36 36
42 44 46 47 45 48 51 52 54 54 50 50 64 75 87 87 69 63 60 51 45 44 43 41 38 27 40 39 38 40 38 38 39 43 35 33 36 35 37 40 32 26 31
41 40 43 48 50 54 54 57 56 59 61 70 75 78 80 71 63 55 53 48 44 43 41 41 40 42 45 41 42 41 38 32 36 38 38 33 33 33 35 36 38 39 30
42 43 46 57 60 60 53 50 50 51 54 54 52 53 52 44 40 40 39 43 44 41 45 48 47 48 48 46 41 42 37 38 38 37 36 36 34 34 35 37 39 37 38
48 46 50 50 46 43 44 43 43 44 38 37 38 40 42 41 37 55 48 48 45 46 47 43 45 48 59 59 50 47 44 42 39 38 38 38 39 40 41 39 44 45 44
46 48 45 45 43 43 44 42 39 36 36 38 39 41 44 34 67 66 62 47 43 41 42 41 41 51 50 63 62 66 65 59 55 54 54 56 50 46 44 48 54 60 61
46 43 43 46 45 42 37 32 34 39 41 43 43 44 46 44 63 66 67 48 46 46 46 43 39 32 51 46 61 69 69 70 77 64 65 59 56 53 53 60 64 63 60
45 43 45 43 42 36 33 34 39 40 42 42 45 45 45 40 61 66 68 56 54 52 47 44 44 45 50 60 57 60 61 59 61 63 68 57 55 53 55 54 55 60 62
44 45 43 42 40 33 35 39 41 42 43 43 44 46 47 48 64 66 67 66 62 59 52 53 59 63 66 70 76 84 68 62 57 68 72 70 71 74 71 65 85 78 87
41 44 40 40 38 35 39 43 43 40 42 45 55 55 61 64 65 68 66 68 84 77 68 63 71 66 77 80 91 88 81 61 60 61 57 61 88 68 77 74 77 84 75
38 41 40 38 36 37 41 42 42 43 54 77 88 76 69 67 64 64 65 77 82 79 73 71 64 90 94 83 80 82 81 76 72 70 67 64 63 63 65 72 73 83 80
44 45 42 39 36 36 42 43 44 48 62 80 91 84 64 81 57 60 65 71 79 89 82 75 90 82 82 78 74 78 80 82 84 88 86 80 80 72 64 64 66 66 67
58 48 43 41 41 41 44 47 49 50 70 77 66 70 59 59 57 65 73 75 73 82 85 87 87 86 84 78 81 80 84 90 87 86 84 79 77 72 73 82 77 65 65
52 45 44 44 47 44 45 47 46 63 76 65 64 61 60 57 64 68 73 72 74 84 84 89 89 90 92 90 77 77 80 81 81 84 80 76 76 78 83 78 82 83 84
44 44 47 52 53 51 47 45 54 63 70 68 63 64 77 78 74 79 84 85 88 87 91 89 86 85 84 74 73 71 73 75 84 82 83 83 76 73 80 74 74 76 87
54 51 56 62 61 57 47 49 72 72 71 68 69 75 73 68 74 77 82 88 89 89 85 87 91 92 89 78 75 77 80 78 76 81 87 84 80 79 83 86 77 81 85
73 72 63 70 63 61 63 65 67 61 71 70 70 68 69 72 73 74 80 85 87 83 86 87 91 92 90 80 76 78 80 80 81 80 83 82 82 80 88 90 92 84 81
84 88 69 65 66 68 71 72 69 73 75 70 62 61 67 70 70 73 75 77 78 80 83 86 88 89 85 75 75 80 80 80 80 80 82 82 85 83 83 83 86 95 88
66 66 82 80 79 80 80 75 72 71 68 66 61 55 63 67 70 72 73 79 82 82 81 81 86 82 76 73 81 81 88 86 85 90 84 82 87 84 79 78 83 90 92
61 81 80 73 73 72 74 72 70 69 67 68 64 67 67 67 80 82 81 84 80 71 74 70 72 75 80 80 83 82 76 82 83 82 87 87 87 87 82 78 79 82 81
64 63 85 68 69 71 74 73 72 72 71 70 70 79 78 76 78 80 74 75 72 70 75 70 74 78 78 79 75 80 75 79 78 81 84 84 89 89 81 78 78 76 72
72 78 73 74 72 77 76 74 75 75 70 71 72 71 76 80 76 76 72 76 78 73 71 72 71 71 74 77 80 84 79 80 79 79 81 83 80 83 84 79 79 82 75
74 84 78 74 80 81 83 79 80 80 78 77 74 70 73 81 80 76 76 78 74 76 75 73 75 72 72 76 76 76 80 82 82 80 80 76 72 78 82 80 76 80 76
81 87 80 83 88 82 86 85 85 83 84 79 80 80 78 78 82 79 82 83 76 75 76 76 73 72 73 77 74 71 70 81 78 77 75 73 71 72 74 72 72 74 76
90 94 93 90 88 85 84 85 85 87 85 83 80 81 76 80 75 77 79 82 80 75 71 74 76 71 71 72 75 76 81 80 76 78 73 68 71 71 73 70 74 69 73
84 87 90 90 91 88 85 85 85 86 86 85 81 82 82 78 78 79 75 73 73 72 69 72 72 72 72 66 69 76 78 81 81 78 73 65 70 71 72 71 70 69 69

GFSGL_sfc_rhum_015.txt.gz
RH
35 37 40 40 42 42 42 44 53 52 52 52 52 60 69 71 70 75 83 76 78 63 56 53 51 46 41 39 38 41 43 42 47 41 35 35 41 41 34 39 38 42 41
35 35 35 36 38 40 46 54 54 58 52 54 66 76 66 66 69 77 75 62 61 62 60 56 50 34 40 38 38 39 38 37 38 43 36 37 39 39 41 44 31 26 34
32 31 33 35 40 50 55 52 45 46 45 44 48 57 58 56 43 38 38 44 43 45 45 44 41 42 43 40 41 41 38 31 38 38 38 36 36 35 37 38 40 42 29
30 33 35 39 42 47 44 42 40 37 35 33 32 34 36 34 33 34 39 42 42 39 42 41 41 42 44 44 42 43 39 40 39 39 39 37 36 34 36 39 42 40 39
33 34 37 38 40 42 43 40 37 35 31 30 33 34 35 34 32 48 46 46 45 43 43 37 41 46 59 57 43 47 47 47 44 43 43 41 39 39 40 38 44 45 46
34 35 34 38 45 46 42 39 32 32 31 34 36 37 38 29 70 65 61 50 45 43 43 41 39 48 49 66 69 71 60 52 52 51 49 50 48 48 47 50 54 57 63
32 31 34 43 46 43 37 29 30 34 36 38 38 37 40 40 61 64 68 52 50 49 47 44 39 30 48 39 52 69 70 75 77 63 65 59 58 55 53 59 61 62 63
31 34 40 42 43 38 34 30 34 35 38 39 40 41 45 42 68 68 68 56 54 51 48 46 46 43 45 56 57 61 61 57 61 62 68 57 55 51 52 54 61 64 64
29 28 34 42 45 38 34 34 36 37 39 38 40 49 54 56 67 70 65 64 62 59 51 54 56 57 65 67 70 77 66 60 59 68 72 74 74 76 72 64 79 90 89
32 28 32 36 38 39 35 37 38 36 36 42 52 55 65 64 71 64 66 69 80 71 65 58 67 68 76 84 88 92 89 64 59 65 65 57 71 76 81 76 72 77 77
31 32 40 53 48 38 36 37 36 37 48 71 86 73 64 68 64 62 64 74 73 82 73 72 69 96 89 84 81 85 83 80 74 69 67 67 64 60 61 69 74 78 80
46 53 67 63 44 35 39 38 39 41 55 73 95 86 65 77 62 65 68 68 78 84 81 76 90 81 78 82 82 80 83 79 82 86 88 85 86 78 66 62 66 86 78
62 72 66 47 45 36 39 39 41 45 60 76 63 71 62 62 61 59 65 72 72 83 87 86 88 92 87 84 91 82 84 90 92 89 86 82 81 77 68 71 75 81 88
55 52 49 45 44 41 36 35 40 54 69 62 62 60 63 64 64 62 74 78 74 81 83 84 93 93 90 95 92 85 87 86 85 88 86 79 77 76 84 81 79 77 87
50 46 48 46 45 46 42 42 49 57 67 64 61 64 80 77 68 72 81 84 89 86 92 92 86 86 87 86 82 81 83 77 84 86 86 85 85 78 89 82 69 76 87
62 53 56 58 59 59 46 47 69 73 67 66 65 74 71 65 69 71 73 77 85 86 88 88 92 93 91 88 88 84 80 80 76 80 84 87 84 84 89 82 74 73 76
69 68 61 67 66 61 63 69 70 68 82 72 69 67 61 65 67 69 70 71 87 79 86 87 92 92 91 85 84 84 84 81 80 82 84 86 84 87 92 85 91 86 78
67 74 73 74 72 73 75 74 71 77 78 71 83 63 59 66 66 66 68 68 75 75 81 86 89 89 74 68 69 76 81 82 81 83 87 86 89 90 88 85 89 83 80
62 67 80 85 83 80 82 79 75 74 71 65 64 59 58 62 84 81 70 79 79 78 77 80 82 72 73 72 81 84 85 86 86 88 85 89 87 87 84 82 87 85 78
50 78 77 76 80 78 76 78 74 74 70 66 68 67 62 65 79 82 80 80 75 66 69 64 66 70 77 76 82 85 83 82 82 82 88 90 90 84 91 84 84 84 80
57 67 80 72 79 75 75 80 75 77 76 70 73 85 68 75 78 80 78 76 70 69 73 69 72 74 74 75 71 79 77 83 78 77 81 85 88 87 82 80 82 81 76
67 78 82 83 78 84 82 74 81 79 78 74 74 73 72 86 75 75 75 78 77 71 69 71 71 69 70 73 74 78 76 79 80 81 81 79 76 76 82 84 79 82 78
77 83 84 81 82 81 86 84 86 86 83 82 76 73 74 73 78 75 80 83 76 74 72 71 76 72 72 75 74 72 73 78 79 82 85 81 73 74 77 75 74 74 79
80 86 83 85 91 84 88 90 88 85 85 85 86 84 79 73 75 76 85 82 82 77 74 75 71 69 70 75 74 72 69 78 77 75 84 78 70 69 71 68 70 69 70
93 90 91 89 92 93 90 86 89 89 90 88 89 85 77 74 70 71 73 73 76 77 70 72 73 69 69 70 72 74 77 77 79 81 80 70 71 71 73 67 73 67 68
85 84 88 91 90 92 94 88 90 89 89 88 87 86 81 75 70 72 71 71 70 69 67 69 69 68 68 63 69 75 76 77 79 83 80 68 71 70 73 70 70 68 66

GFSGL_sfc_rhum_021.txt.gz
RH
53 54 53 54 57 70 72 72 69 71 70 68 74 73 76 83 83 86 86 86 90 90 86 82 81 84 78 74 76 72 73 82 90 76 73 63 57 56 54 74 76 81 81
48 48 48 52 55 66 68 68 67 68 65 66 63 58 60 60 65 72 76 72 70 68 69 70 67 51 66 70 72 68 68 66 69 71 68 62 55 50 56 55 43 37 52
44 47 47 50 57 63 64 68 63 64 62 57 54 58 59 63 59 62 67 69 69 66 68 67 63 61 64 65 65 75 75 58 71 73 75 68 63 59 52 57 56 56 39
45 47 48 54 57 61 62 62 61 60 57 51 53 56 60 58 59 62 61 71 71 66 71 70 65 64 66 70 67 67 62 72 72 73 70 72 73 66 69 72 76 75 71
50 51 54 57 58 61 65 71 65 59 56 50 52 58 60 56 54 73 72 76 77 76 73 64 64 64 62 66 63 72 73 75 75 78 79 77 77 79 78 80 83 85 80
51 52 55 67 64 69 76 68 76 58 51 53 56 59 65 50 74 70 74 81 75 74 74 67 69 64 66 65 68 70 77 93 83 80 79 82 80 77 79 84 87 89 91
40 53 58 67 72 76 79 81 71 53 56 60 61 66 70 75 74 69 73 79 81 78 78 75 63 50 70 70 71 70 73 74 89 94 92 86 84 83 80 83 88 92 94
47 60 65 69 74 81 83 81 68 59 56 62 69 74 77 64 74 76 81 90 88 84 80 76 74 75 74 72 74 82 84 83 82 78 93 87 86 82 84 77 82 94 96
65 70 75 84 89 91 93 98 88 69 70 75 80 83 86 84 78 82 89 97 93 87 77 72 71 72 73 82 89 96 92 89 74 73 73 75 81 84 87 92 96 93 88
62 61 67 73 86 88 92 86 80 68 78 84 85 88 82 87 77 66 86 98 98 92 86 78 74 71 91 90 97 98 97 84 80 87 88 80 71 74 73 79 87 93 92
58 63 69 87 92 92 92 89 71 74 88 93 93 90 84 83 80 67 72 88 88 93 86 82 82 78 80 86 82 97 94 87 92 90 86 81 79 79 79 79 81 91 95
63 66 69 76 78 73 73 71 72 86 86 94 94 94 93 91 69 72 68 66 69 91 91 88 91 92 89 82 89 94 95 94 97 96 96 93 94 96 92 95 98 98 90
70 72 71 68 62 63 69 74 81 85 94 95 92 96 95 91 91 70 75 73 75 89 91 93 93 87 86 93 94 94 97 98 98 98 97 96 96 96 97 96 90 95 98
75 77 75 80 80 76 71 75 87 96 96 92 94 95 97 95 94 88 88 97 83 88 87 93 95 90 95 96 92 92 94 95 95 96 96 96 96 98 97 95 98 99 99
78 79 87 87 87 83 77 79 93 88 88 94 96 95 98 98 92 74 72 81 84 93 91 95 91 91 92 92 90 89 90 91 94 96 97 95 92 92 94 95 98 98 98
82 85 93 93 95 90 89 89 79 80 74 72 68 92 94 75 69 65 65 67 74 79 88 95 95 96 94 88 93 93 91 95 94 93 96 94 95 96 95 95 94 98 98
80 79 93 89 98 96 94 86 88 90 82 80 78 75 74 65 63 66 68 63 66 77 92 95 96 96 94 87 89 90 94 96 90 93 95 95 96 95 95 98 96 97 95
87 85 95 97 97 97 95 88 96 100 98 95 84 83 69 62 62 66 68 72 94 88 96 93 95 94 92 90 90 92 92 92 92 91 93 94 95 97 98 97 96 99 97
85 92 93 91 88 95 96 98 97 96 97 98 96 95 83 61 68 68 71 97 97 97 97 92 93 92 92 92 95 94 94 94 93 94 93 93 94 96 95 98 98 98 97
87 82 91 93 94 96 98 97 96 98 98 96 98 98 95 93 97 99 98 99 98 97 98 97 94 92 94 93 95 94 92 92 93 93 94 94 94 93 95 97 96 97 98
97 94 90 96 96 94 97 96 98 97 95 97 98 98 90 94 97 99 99 99 98 98 98 98 98 98 97 94 94 95 95 94 93 94 95 94 95 96 91 92 97 95 97
94 95 94 96 98 99 98 97 96 97 98 99 98 98 97 98 99 98 98 99 99 98 98 98 98 98 97 96 96 98 98 98 95 95 95 94 95 95 93 95 92 98 95
93 93 94 96 95 97 98 98 96 99 98 97 97 97 98 99 98 97 97 98 99 98 98 97 98 97 96 96 97 97 98 97 97 97 97 96 96 95 94 98 96 97 98
93 94 95 95 99 98 98 98 98 97 96 99 99 98 99 99 98 96 97 98 99 98 99 97 97 95 95 95 97 97 96 97 95 95 96 98 97 94 94 96 93 96 97
94 96 98 95 97 98 98 98 98 96 98 99 98 98 99 98 98 97 97 97 98 98 97 96 98 93 89 92 93 93 91 90 92 91 96 98 97 94 93 94 96 97 96
94 96 97 96 96 96 98 98 98 98 97 97 98 99 99 99 98 97 97 96 96 97 93 98 94 88 86 95 92 90 88 89 91 90 95 97 96 95 96 94 92 96 94

GFSGL_sfc_rhum_024.txt.gz
RH
54 55 56 56 59 76 76 76 75 73 74 71 70 75 65 69 72 79 84 82 82 75 73 75 74 74 78 80 81 75 80 83 86 78 86 65 59 60 54 58 75 82 84
54 52 53 55 56 74 76 77 77 72 69 64 66 57 58 60 64 68 74 72 72 73 73 74 71 53 68 70 77 75 73 71 78 81 78 67 60 58 61 63 45 36 60
54 53 51 52 56 66 72 74 76 76 70 76 56 56 58 62 65 70 71 72 73 73 75 76 74 71 72 74 76 78 77 65 79 79 77 75 70 66 68 68 64 68 50
58 55 58 63 62 67 70 69 75 83 83 67 54 55 61 64 64 65 67 74 76 72 77 77 77 77 77 78 75 80 78 82 80 81 78 76 77 70 75 79 82 78 72
51 59 67 69 68 66 69 75 86 86 78 74 59 58 62 65 58 75 73 75 77 77 77 74 69 68 58 59 69 82 97 95 93 85 81 81 78 78 75 80 85 85 80
51 62 67 71 74 81 85 88 90 89 85 64 63 65 69 55 76 70 75 84 77 76 81 73 75 67 64 65 69 69 68 81 93 92 90 88 82 82 82 85 89 92 93
62 69 76 80 79 82 86 90 87 93 94 87 69 71 77 76 74 74 80 84 86 88 86 82 74 57 70 74 77 74 75 74 82 85 86 87 90 86 86 89 92 94 95
73 75 80 85 86 90 95 92 97 98 97 72 81 83 81 68 78 84 84 95 96 94 89 84 80 76 76 73 78 92 88 88 85 81 89 90 91 86 87 84 90 92 89
67 68 75 80 88 95 93 90 98 92 79 84 83 83 87 88 70 70 89 97 91 88 79 79 74 75 76 81 86 90 96 84 68 68 68 78 87 90 86 93 97 97 95
66 67 72 83 89 95 95 94 91 81 82 84 84 88 76 85 68 66 70 99 97 88 85 73 73 76 84 85 94 97 92 80 81 84 89 86 78 78 74 82 88 92 90
64 68 69 75 86 87 92 92 86 91 88 94 89 88 83 79 80 64 65 85 88 92 85 82 82 83 90 82 81 95 94 86 91 94 95 91 87 87 87 86 86 92 93
70 72 73 76 73 68 81 82 84 87 86 95 95 95 94 94 66 71 69 68 70 92 92 89 94 81 84 90 93 94 87 96 98 97 96 94 95 95 93 96 95 97 95
76 80 82 81 77 76 76 83 87 87 95 96 93 97 98 92 91 77 79 72 77 92 92 91 78 81 84 91 90 93 94 95 96 96 96 96 97 97 96 98 95 94 94
80 81 85 81 83 83 76 80 85 97 97 94 96 96 97 92 94 93 93 96 87 91 90 92 90 86 92 95 93 93 94 96 96 96 96 96 96 95 96 97 98 99 98
79 80 83 89 89 89 78 84 92 88 91 95 96 96 98 98 93 80 76 84 87 88 94 96 89 89 87 85 88 91 91 94 94 95 96 95 94 95 96 97 96 98 98
81 84 91 96 96 92 91 88 78 82 82 83 77 91 95 84 72 67 67 64 62 72 94 98 96 96 95 91 92 90 88 92 93 93 94 94 94 96 96 95 98 98 99
85 81 95 94 99 99 97 89 95 89 82 80 80 79 78 73 66 64 67 65 63 74 98 99 98 97 96 92 92 92 94 93 90 93 94 95 95 94 96 97 97 98 97
88 91 94 96 95 97 98 94 96 98 100 98 85 83 78 67 63 63 67 73 94 90 97 99 98 97 94 92 91 93 93 92 93 93 94 95 95 95 95 95 96 98 98
83 96 97 93 94 91 96 98 98 97 98 98 98 97 92 72 67 72 79 97 97 97 97 98 100 99 97 96 98 96 98 94 95 96 95 94 95 95 94 95 96 99 95
79 93 96 96 94 95 96 98 97 98 98 97 99 98 97 93 95 100 100 100 100 98 99 98 98 99 99 98 99 98 97 94 93 94 96 96 96 96 96 96 97 97 99
85 94 88 93 97 98 98 97 97 98 96 98 98 98 97 94 96 99 99 100 100 99 99 98 98 100 99 98 98 98 98 99 96 96 96 96 97 98 96 96 98 97 96
94 93 96 94 95 99 98 99 98 98 96 99 99 99 100 99 99 98 99 98 98 98 98 98 98 98 98 97 98 99 98 98 98 97 97 97 97 97 96 97 97 99 98
96 95 95 96 96 96 100 98 98 98 99 97 98 99 100 98 98 98 98 97 99 100 99 99 99 98 98 98 99 98 98 97 98 98 100 98 98 97 97 99 98 98 98
96 94 93 94 95 97 99 99 98 99 97 99 99 100 99 99 100 99 97 98 100 100 100 99 98 97 97 99 99 98 97 98 97 96 98 99 99 96 97 97 97 97 98
97 97 96 94 94 97 97 98 98 97 98 98 98 100 99 99 98 100 97 98 98 100 100 99 99 98 95 96 96 95 92 92 92 92 97 98 98 96 96 97 98 96 96
97 97 96 96 97 97 96 96 97 97 98 97 96 99 100 99 99 99 98 99 97 98 99 99 98 95 94 98 96 93 90 90 90 90 96 97 97 96 97 97 95 97 96

GFSGL_sfc_rhum_027.txt.gz
RH
61 61 64 64 64 70 81 83 82 82 79 74 74 75 70 67 70 74 76 79 74 73 74 75 76 76 79 79 83 83 85 90 90 78 86 79 63 61 58 64 62 66 87
62 63 61 62 61 65 78 81 84 83 75 77 78 80 78 67 64 66 70 70 72 74 75 77 77 58 76 79 80 81 80 78 83 83 83 78 67 63 64 66 53 48 68
62 60 62 67 70 72 72 75 79 81 83 84 84 86 73 65 64 70 72 72 72 74 76 78 78 77 81 82 80 82 84 74 85 86 81 80 79 74 72 71 70 74 53
55 62 67 71 72 73 73 74 77 82 91 91 87 73 70 68 64 65 68 73 76 74 77 79 78 78 80 80 74 86 81 91 92 92 87 79 78 76 80 78 79 79 77
58 65 74 76 77 80 83 84 87 93 90 87 83 79 72 66 58 71 73 75 79 80 78 75 74 72 68 64 61 74 81 81 87 89 89 86 81 81 79 78 84 85 83
61 72 75 77 79 82 86 92 94 90 80 92 91 84 73 58 75 74 82 90 82 81 89 82 78 75 72 64 68 70 72 82 85 87 87 91 89 84 82 84 88 93 93
71 73 77 84 86 89 94 95 90 90 94 94 91 79 79 76 76 79 81 88 93 96 92 88 74 58 70 72 76 74 76 79 84 94 92 89 90 89 86 89 93 95 96
73 74 78 82 86 91 96 87 91 92 97 91 86 81 80 77 74 69 85 92 91 88 78 78 81 79 76 72 84 92 81 77 85 79 90 93 91 88 86 82 89 90 90
68 70 74 80 88 91 95 95 96 97 88 87 82 84 86 79 65 64 73 94 86 83 75 76 73 77 80 85 94 94 87 79 72 71 70 70 73 85 88 97 96 95 98
68 70 75 77 85 91 91 95 92 86 82 81 80 84 71 83 68 63 68 98 97 89 83 76 76 76 85 80 91 96 95 79 76 82 86 83 82 82 76 84 93 96 94
68 72 73 76 82 82 89 92 90 92 86 93 88 89 82 77 79 66 66 93 91 90 87 84 84 81 76 86 87 96 96 91 92 94 92 94 91 90 88 87 88 90 92
73 75 78 83 78 70 82 87 85 85 85 95 95 95 94 94 70 75 73 71 71 96 93 90 94 74 82 87 90 92 89 94 95 96 96 95 96 96 94 96 97 96 92
79 80 83 77 81 80 78 87 86 85 95 95 96 98 96 92 91 76 84 76 75 96 91 80 74 75 79 84 88 89 92 94 95 95 95 95 96 96 95 97 98 97 97
79 78 82 81 81 86 77 78 84 97 97 95 97 97 97 93 95 93 96 97 84 85 91 94 91 85 85 86 88 88 92 95 95 95 95 94 95 96 96 97 97 98 99
75 76 81 83 84 90 78 85 91 89 92 96 96 96 99 99 94 83 79 92 92 91 95 98 97 91 89 87 86 86 87 88 91 93 93 93 93 94 96 96 97 97 98
90 86 90 90 96 94 90 87 78 84 84 84 84 93 96 85 79 66 66 65 63 69 94 100 100 100 98 93 92 91 90 90 90 92 94 93 93 94 95 95 97 97 97
91 93 97 89 98 98 98 93 96 86 80 79 79 83 82 84 68 63 64 64 63 74 98 99 100 100 100 94 92 92 93 90 90 92 94 94 94 93 95 95 95 96 97
92 97 96 93 94 90 94 95 96 98 98 97 86 82 82 73 68 63 65 74 94 91 98 99 100 100 100 98 94 94 94 91 92 94 95 95 95 96 95 94 95 97 96
89 94 93 94 94 94 92 97 97 98 98 98 98 96 98 78 72 72 82 97 97 97 98 98 100 100 99 99 100 99 99 96 96 97 96 96 97 96 94 94 96 96 97
96 89 92 95 95 96 95 96 95 98 97 97 98 98 98 94 94 98 100 100 100 98 99 98 97 99 100 99 100 100 99 98 95 94 96 98 98 98 97 96 96 98 98
98 87 87 90 97 98 99 99 98 98 97 98 97 98 99 98 97 97 98 100 100 98 98 97 98 100 100 100 99 100 100 100 97 96 97 97 98 100 96 97 98 97 94
98 94 92 95 95 97 97 98 99 99 99 98 96 98 100 100 98 98 98 98 98 97 97 98 97 97 98 98 99 100 100 100 99 98 97 97 97 98 96 97 97 99 95
98 98 96 95 97 98 99 98 99 99 98 98 97 99 100 100 99 99 98 97 99 98 98 99 99 98 99 100 100 98 99 98 98 99 99 99 98 97 98 98 98 98 98
98 98 96 95 97 96 97 97 98 99 99 98 98 98 98 99 100 100 99 98 99 98 100 100 98 96 97 100 100 100 98 99 99 98 98 99 99 96 97 97 97 97 97
98 98 97 96 97 96 95 97 97 97 97 98 98 98 98 98 100 99 99 99 98 99 98 100 99 97 94 94 98 97 98 95 95 95 98 97 99 96 97 97 97 96 97
98 97 97 97 98 97 96 96 96 96 95 94 96 97 96 96 96 96 98 99 99 97 98 99 99 96 95 97 96 98 95 92 94 96 100 98 97 96 97 97 95 97 96

GFSGL_sfc_rhum_030.txt.gz
RH
65 68 69 69 68 70 74 80 85 87 84 82 82 82 83 87 81 82 80 78 82 76 74 75 77 77 80 79 78 80 84 88 89 73 69 68 76 71 58 62 62 66 74
69 65 61 66 69 70 73 76 82 87 86 85 83 87 89 85 78 74 74 73 74 72 74 76 76 61 75 75 76 78 78 80 84 87 76 76 75 67 66 66 51 44 62
56 59 66 69 73 77 78 79 79 82 87 90 89 88 86 78 72 72 74 71 70 74 77 78 77 78 76 76 75 78 78 71 86 88 83 78 75 73 69 68 66 69 54
56 64 72 78 79 81 80 80 87 91 94 93 87 95 87 73 67 66 67 73 78 76 78 79 80 80 78 76 74 77 67 80 77 79 80 84 80 72 74 71 69 70 64
54 68 77 78 79 81 84 90 94 95 92 83 79 84 84 70 61 73 78 84 86 86 83 80 81 77 72 69 65 69 73 79 84 80 78 74 76 78 76 71 73 72 70
56 75 77 80 82 86 91 96 93 92 88 92 93 90 78 63 77 78 86 91 86 86 86 79 79 70 69 66 69 69 69 79 89 89 82 82 75 75 74 74 78 82 78
74 74 75 81 87 88 93 95 88 95 96 96 88 81 80 85 79 69 78 81 81 81 77 74 69 58 72 73 77 74 76 76 89 86 94 86 89 81 78 82 84 84 82
72 71 71 80 84 89 92 87 91 93 87 93 87 81 83 76 66 64 73 86 86 81 75 76 76 78 78 74 86 93 83 77 74 72 84 84 81 81 86 89 83 85 81
67 70 74 82 84 88 90 91 95 97 96 87 81 83 78 73 66 64 69 88 86 81 73 74 73 75 80 82 86 92 84 76 74 73 73 73 71 72 73 92 94 95 91
70 72 77 78 81 86 88 91 95 95 86 83 76 82 70 80 68 64 69 94 97 89 84 76 77 74 74 78 95 94 94 79 79 83 82 81 79 83 82 83 86 93 92
71 76 77 79 85 81 84 91 92 92 86 93 90 88 80 76 80 67 69 93 92 90 88 85 82 78 74 75 84 95 95 89 88 86 86 87 88 90 89 85 84 87 88
77 81 80 82 83 76 80 86 85 88 86 95 95 94 92 93 75 76 74 72 71 99 91 88 91 70 70 73 84 89 83 91 92 93 92 89 92 91 87 94 95 93 84
86 84 76 76 76 78 86 85 88 87 95 95 97 98 95 91 92 76 81 79 71 95 88 79 73 72 75 81 75 76 88 92 93 93 92 89 91 91 90 93 92 96 94
83 83 76 80 81 84 79 78 85 98 98 95 98 97 97 95 96 93 93 98 79 85 91 92 94 88 88 89 85 84 88 90 94 93 92 91 90 92 94 96 96 96 96
84 81 81 88 88 84 85 84 87 90 92 95 96 96 99 100 94 87 82 95 95 92 95 97 96 94 90 89 87 84 86 83 88 92 92 90 89 89 91 93 92 93 95
95 90 90 96 98 87 96 92 79 85 83 84 86 97 97 86 81 76 63 65 62 70 91 100 100 100 100 95 94 91 85 84 86 89 92 90 90 92 91 90 92 93 93
96 92 94 97 97 98 98 98 98 87 78 79 79 78 84 85 84 70 63 65 62 75 97 98 100 100 100 96 97 94 93 86 87 89 93 93 93 89 92 91 92 87 88
95 98 98 98 98 98 96 95 96 98 98 96 83 83 81 81 79 71 65 75 93 91 96 98 100 100 100 96 97 97 93 91 88 90 94 96 96 94 94 93 91 97 91
98 98 98 97 97 97 97 97 95 96 98 98 98 96 98 85 80 76 75 97 97 97 95 96 98 98 98 96 100 100 100 98 94 96 95 94 97 95 93 91 93 96 93
98 97 98 98 93 97 98 98 97 97 96 96 97 97 98 96 99 98 100 100 100 98 97 96 95 96 98 98 100 100 100 100 98 92 96 97 97 96 97 97 95 94 87
96 95 97 98 95 97 97 99 98 99 98 97 97 96 96 98 99 99 98 100 100 99 98 97 97 98 98 99 96 100 99 100 97 97 95 94 97 98 94 94 94 92 86
98 98 97 97 97 98 96 96 97 98 98 99 98 97 98 100 100 100 98 97 97 97 97 97 97 96 96 95 96 100 100 100 99 98 98 95 94 94 94 93 94 94 89
98 98 97 97 97 97 97 96 97 97 97 98 98 98 100 100 100 99 98 97 97 98 98 98 99 98 97 98 98 97 98 96 95 100 100 100 96 94 96 94 93 92 92
98 98 97 97 97 97 96 94 93 95 95 96 97 98 98 98 97 97 98 97 98 99 99 98 98 97 97 99 99 99 96 98 97 96 99 100 99 94 93 91 89 92 92
98 98 98 97 97 97 96 96 96 96 96 96 96 96 96 97 98 97 97 98 98 99 97 98 99 97 96 93 95 96 98 98 94 95 96 100 100 97 92 92 92 88 92
97 97 97 97 97 97 97 96 96 95 96 96 96 95 94 96 95 95 95 97 98 98 96 96 96 97 96 95 93 97 98 96 92 93 100 96 98 96 94 94 89 88 88

GFSGL_sfc_rhum_033.txt.gz
RH
50 53 52 49 51 52 51 53 54 57 53 58 61 65 65 69 72 68 65 59 58 57 56 56 55 53 52 50 50 47 47 49 54 44 38 40 46 48 46 44 44 46 42
47 44 46 48 48 50 52 52 54 54 58 60 66 66 69 76 80 64 56 58 58 58 54 55 55 47 54 51 50 50 49 48 52 54 44 44 47 49 50 53 46 37 37
36 37 45 50 51 53 52 54 58 62 66 72 72 73 70 64 62 58 58 58 54 56 57 58 56 57 56 52 53 54 53 54 56 58 58 43 42 52 56 49 48 48 38
36 40 50 56 55 55 56 60 67 72 71 70 71 78 82 67 58 55 52 56 60 59 60 60 59 58 56 53 56 61 60 64 57 57 51 50 46 46 56 55 55 47 45
38 46 57 58 57 59 61 66 73 71 66 72 72 73 62 53 50 62 62 61 58 54 53 49 50 57 66 61 54 55 58 59 64 62 59 53 48 47 51 51 61 58 56
42 51 58 58 59 62 63 70 76 72 73 75 75 64 60 53 79 71 68 56 51 47 47 46 45 54 53 65 67 70 68 66 68 64 58 68 55 53 49 55 58 64 67
49 58 56 58 58 61 61 66 66 72 73 80 70 60 58 61 66 64 76 54 51 49 48 48 47 45 58 54 61 66 74 75 84 86 84 65 58 53 51 61 64 61 54
56 54 53 56 60 59 60 60 64 76 76 76 66 60 57 50 64 64 66 52 53 50 50 51 51 54 57 62 75 65 59 56 62 77 85 70 62 65 62 58 66 80 60
51 51 52 59 61 59 60 64 64 70 80 80 63 60 55 50 63 63 62 63 62 59 55 53 55 56 69 76 73 79 62 54 59 61 68 74 78 80 73 76 78 84 77
54 53 55 60 60 61 62 61 66 74 80 65 61 59 64 61 63 64 64 69 80 68 60 53 62 65 74 73 81 81 83 63 60 60 58 58 75 73 86 84 72 73 66
57 58 58 59 61 62 62 59 62 64 70 75 76 69 63 64 62 65 68 76 72 70 64 59 56 70 68 69 73 80 87 76 78 71 65 59 59 63 67 81 83 80 69
60 60 61 62 60 60 61 58 59 65 71 76 89 83 68 77 70 67 69 74 70 76 74 63 68 68 68 69 67 72 74 76 80 80 77 72 74 74 69 72 81 92 82
66 62 63 63 62 62 59 59 60 61 68 74 70 76 69 73 69 73 73 82 71 75 73 66 70 70 68 62 68 72 74 74 81 82 80 76 80 82 85 89 91 88 89
68 65 63 64 63 69 60 58 60 68 71 70 72 72 71 72 75 68 71 73 71 68 70 62 76 72 70 73 65 64 67 71 79 84 82 77 78 80 84 88 91 90 88
70 68 70 69 73 74 65 61 65 68 74 71 69 77 90 86 77 76 80 74 74 70 75 72 67 68 61 61 63 62 60 60 72 80 82 80 76 74 77 81 82 84 91
80 75 77 78 79 77 70 65 80 83 84 82 82 91 92 89 81 78 76 65 64 67 66 74 79 82 75 63 70 67 63 61 68 76 80 78 80 80 77 74 76 83 86
84 84 81 88 83 83 82 81 79 70 83 84 81 78 78 80 85 83 75 67 66 67 72 73 84 83 78 62 62 63 64 64 68 75 80 81 83 81 80 76 77 75 75
82 92 92 88 87 89 85 86 85 86 83 76 78 74 76 77 79 90 77 69 74 73 70 73 79 80 73 62 60 62 63 67 66 68 82 85 86 84 82 79 76 80 73
76 82 90 92 93 95 92 90 88 89 86 81 77 82 83 84 80 84 83 83 81 76 72 69 76 74 73 68 77 80 84 79 78 78 80 83 88 81 80 78 80 81 76
71 90 96 90 90 92 91 87 83 86 86 84 81 78 76 83 91 93 92 93 91 82 81 75 72 72 78 77 82 85 82 79 74 69 78 86 86 83 81 82 82 82 72
77 81 90 90 88 89 92 89 83 86 84 80 82 89 90 91 88 87 87 92 90 85 87 81 82 83 82 84 77 78 78 84 77 72 73 79 85 83 77 78 78 75 69
83 85 86 90 90 93 91 87 86 82 80 81 83 84 93 95 91 91 91 91 92 89 85 86 82 78 78 76 77 83 81 84 82 73 74 82 79 76 76 77 77 76 70
92 97 92 87 90 91 94 90 90 88 86 86 84 83 87 93 95 94 92 92 91 92 90 89 92 86 84 87 85 80 80 77 79 79 78 84 79 77 79 78 73 74 74
88 90 89 94 96 94 95 95 95 90 88 89 91 91 90 89 92 92 93 93 92 93 94 93 89 84 83 89 87 84 78 83 81 73 77 85 81 76 74 75 74 78 76
94 96 96 97 97 96 94 93 94 95 96 97 95 96 92 93 90 90 92 93 91 94 93 94 91 86 88 89 86 84 81 88 82 78 74 83 83 85 76 76 80 72 77
93 94 94 94 94 97 97 98 96 96 95 97 98 96 96 95 93 90 90 92 91 91 92 93 91 89 88 87 86 84 90 90 83 79 77 77 80 77 75 78 76 76 72

GFSGL_sfc_rhum_036.txt.gz
RH
41 42 40 34 34 34 34 35 36 39 38 39 41 44 44 46 52 69 80 73 52 51 53 51 49 45 42 41 40 39 38 37 42 37 31 34 37 38 36 40 42 40 36
38 34 32 30 30 33 34 35 40 42 42 43 47 47 48 56 57 53 55 56 55 54 48 46 45 36 44 42 38 40 40 40 48 50 41 41 41 40 38 42 39 33 36
26 25 27 31 32 34 36 40 42 43 45 48 48 57 58 60 60 59 56 49 47 47 47 48 47 46 45 40 40 40 42 44 51 56 50 43 40 38 39 40 44 44 34
24 23 28 35 37 38 41 43 44 46 49 47 50 57 61 53 49 45 43 47 47 45 48 46 44 42 43 45 43 44 41 45 49 53 48 47 43 40 38 40 44 42 50
25 26 31 39 41 41 46 45 47 52 50 49 55 57 52 45 41 53 47 46 46 44 42 36 39 46 56 56 48 50 52 52 52 55 56 49 46 43 45 41 40 38 42
28 30 35 44 42 45 46 48 50 51 49 53 53 53 52 38 76 65 66 45 41 39 38 37 38 44 46 58 62 62 62 61 66 65 67 65 56 50 45 59 52 61 53
29 34 41 43 44 44 43 43 44 48 52 59 58 55 53 52 62 62 63 43 41 41 40 40 38 33 48 46 56 63 71 69 79 75 75 65 72 57 52 55 50 51 54
34 38 40 42 42 42 43 45 49 52 54 59 64 58 54 48 62 61 64 46 46 46 44 44 44 43 45 58 60 63 58 53 48 52 65 58 54 55 65 68 66 62 54
35 36 37 40 42 43 45 51 51 48 50 61 61 56 55 52 61 61 62 54 53 52 46 44 46 45 56 68 69 74 63 53 51 55 58 62 65 68 75 70 73 71 77
38 37 38 40 43 45 49 52 50 48 50 64 59 57 58 57 64 62 60 62 78 61 50 45 55 53 65 68 74 73 80 60 51 51 53 52 53 52 78 73 69 78 68
40 41 39 38 44 48 51 49 48 48 54 62 71 62 59 60 57 65 64 74 69 64 56 51 49 60 64 66 67 71 74 61 64 59 60 56 52 53 56 57 72 86 76
43 42 41 43 47 46 50 49 49 50 56 64 97 83 64 65 70 66 68 68 70 78 68 57 64 62 66 65 63 69 68 72 69 74 75 69 70 73 72 75 82 77 73
46 45 46 48 48 46 47 51 51 48 55 63 63 68 61 63 63 75 71 70 76 77 69 67 66 63 60 54 56 63 64 64 69 77 79 71 72 74 75 86 90 93 82
49 48 49 51 49 46 46 50 51 56 63 66 69 67 62 66 68 66 68 68 71 70 65 61 65 72 62 56 54 52 56 60 67 76 74 72 69 70 76 80 89 85 84
52 51 55 55 54 50 47 51 57 56 63 65 65 67 85 87 80 74 72 70 74 68 78 73 64 61 56 49 53 53 54 50 56 69 74 70 71 69 70 72 75 79 89
62 58 59 60 60 57 54 53 74 79 81 83 83 85 86 79 82 81 75 76 68 65 68 72 76 79 72 58 59 57 56 54 51 60 68 65 69 74 74 71 70 76 81
66 70 73 77 74 72 72 75 72 72 85 87 87 86 82 80 78 84 83 78 71 69 74 70 80 80 77 58 54 54 56 57 60 55 64 68 69 66 72 76 74 71 73
69 82 71 73 77 77 75 82 82 80 85 83 84 76 77 78 78 77 82 82 76 82 72 72 76 75 68 57 54 55 58 65 63 60 66 72 75 70 69 67 72 79 70
59 60 70 86 88 85 86 88 89 86 82 79 73 74 79 82 79 80 78 86 76 74 68 63 70 68 66 61 71 75 76 75 76 74 70 70 76 70 67 64 66 65 65
57 74 79 74 81 88 83 87 87 88 85 75 75 74 68 82 98 95 95 96 88 79 74 68 65 66 71 71 78 80 78 76 73 66 70 74 76 72 69 68 68 69 60
60 60 73 70 75 76 80 86 89 92 89 79 84 96 78 79 84 87 84 94 87 80 83 76 76 76 76 78 70 75 72 80 72 67 67 68 75 74 65 65 67 62 56
74 81 85 90 93 96 83 80 91 93 85 84 84 82 80 91 86 85 86 93 98 89 84 85 80 73 72 71 72 82 78 77 78 74 71 68 69 69 66 66 66 67 61
96 96 95 92 93 98 99 89 87 97 97 98 88 87 90 97 96 87 91 100 96 95 92 85 88 81 78 81 82 76 76 72 74 79 71 73 70 70 72 69 65 66 67
97 98 88 89 98 94 100 100 99 93 97 100 100 100 100 99 100 100 100 100 100 99 100 89 85 83 79 84 82 80 72 73 75 73 70 72 70 67 68 64 66 67 67
100 100 99 98 97 100 99 98 100 100 100 100 100 100 99 100 100 100 100 100 99 98 96 93 87 88 86 80 79 79 73 77 77 73 68 70 71 72 69 66 68 65 66
99 98 96 99 98 99 100 100 100 100 100 100 100 100 100 100 99 100 100 100 100 96 96 94 90 91 88 84 82 80 81 84 84 81 71 64 70 68 68 67 59 68 61

GFSGL_sfc_rhum_039.txt.gz
RH
37 41 48 34 32 31 32 32 32 35 34 33 35 40 40 39 49 57 56 52 54 54 56 52 53 49 48 40 40 39 39 38 44 39 34 37 41 43 40 40 40 42 39
36 46 37 31 27 30 31 30 33 36 35 35 38 40 42 46 49 54 57 58 56 55 49 44 40 30 41 39 38 38 38 38 39 44 43 45 47 44 45 45 35 30 37
40 30 27 28 30 30 28 32 35 36 37 39 38 42 46 52 55 55 51 52 47 43 40 41 40 41 43 39 40 42 40 34 40 50 54 49 45 43 42 42 42 41 32
28 23 23 28 30 30 31 36 38 38 41 41 41 43 49 49 44 43 38 44 43 37 40 41 40 39 41 47 43 45 40 43 47 52 52 49 44 46 46 48 49 46 45
25 22 25 28 31 33 38 40 39 42 43 41 42 46 50 43 36 50 44 44 42 40 40 35 36 43 48 51 46 48 52 52 54 55 54 59 61 58 56 50 57 49 50
25 27 26 28 33 36 39 42 41 41 40 40 44 49 53 39 76 64 64 48 44 39 40 38 37 46 47 56 56 60 60 60 67 80 70 67 54 50 65 70 67 61 60
27 26 27 33 36 36 34 36 37 42 44 47 53 57 53 52 66 62 61 48 46 43 43 42 38 30 48 43 54 57 59 63 72 72 82 73 78 64 56 63 58 70 68
27 26 28 33 34 33 34 37 42 45 48 46 53 62 57 50 67 62 62 52 46 45 45 43 42 42 48 57 54 58 53 51 50 49 63 55 54 52 57 56 67 66 60
28 26 28 30 32 34 36 40 45 45 46 47 52 59 59 57 66 62 61 54 52 51 46 43 44 44 59 64 59 67 54 46 48 55 52 58 66 68 68 70 84 74 80
26 30 28 31 33 34 38 42 45 44 42 43 52 59 66 60 69 65 61 62 70 61 51 45 61 54 61 63 70 70 72 53 44 45 50 51 57 55 71 69 79 91 79
31 32 33 32 34 38 42 44 45 44 48 62 72 68 62 64 63 68 64 66 68 65 59 53 49 64 63 62 64 68 75 61 62 61 61 59 59 59 60 62 67 77 84
35 37 36 36 36 38 44 46 44 46 53 61 97 80 68 66 71 73 70 71 65 75 69 60 62 67 64 63 60 58 63 68 69 69 74 69 70 70 70 69 83 94 85
41 42 40 39 39 40 45 44 44 47 54 63 65 75 71 63 60 78 72 72 71 80 69 67 68 63 59 58 49 56 68 60 63 67 72 68 67 68 64 75 78 78 88
46 44 42 44 44 44 42 39 43 58 66 66 69 71 68 60 62 65 86 80 77 82 78 69 68 70 69 71 60 53 55 59 58 62 65 64 64 70 71 73 82 80 84
44 45 50 53 53 48 42 42 50 54 64 67 72 73 92 86 71 78 79 73 80 78 78 73 67 62 62 57 55 52 53 52 54 58 63 61 57 61 72 72 73 76 84
55 56 61 62 58 53 49 54 65 74 76 76 78 85 88 77 76 80 78 75 74 72 72 73 75 80 74 69 63 59 58 57 55 58 60 59 62 62 62 70 68 72 79
63 62 61 69 68 70 76 73 77 73 83 82 84 84 84 85 80 77 81 82 79 80 81 72 78 79 76 64 58 56 59 59 65 59 62 65 67 64 68 64 72 75 72
59 78 65 62 65 72 76 76 78 81 90 88 87 84 82 84 83 83 80 82 80 88 72 71 72 74 70 60 55 56 59 65 66 64 69 71 73 69 69 63 61 70 65
60 58 64 74 83 85 89 91 88 85 85 83 76 79 82 84 83 83 82 80 80 85 76 77 79 69 65 64 70 74 79 76 75 78 72 70 76 70 67 63 65 68 66
50 69 74 69 77 82 85 85 79 82 83 88 88 78 75 76 96 100 97 98 92 81 83 77 75 68 71 71 79 81 83 82 78 72 72 74 76 72 70 66 68 68 58
56 61 77 73 90 79 84 90 86 82 85 87 92 98 84 81 87 89 88 94 92 85 87 80 86 86 82 80 74 75 75 79 75 73 71 69 75 79 67 65 64 61 57
68 70 79 94 92 96 93 87 98 90 85 84 89 88 85 94 88 86 85 91 96 92 88 88 84 82 82 77 75 79 79 80 80 79 76 69 70 72 73 68 66 66 62
79 90 89 89 92 90 96 87 94 100 97 95 90 89 96 100 99 90 92 95 92 93 91 88 97 88 88 90 87 76 77 74 73 76 76 73 70 71 74 74 68 66 66
86 95 93 95 100 96 99 100 100 97 98 97 100 100 100 100 100 100 100 100 99 99 100 98 91 88 86 94 90 80 73 72 71 72 75 72 70 66 68 65 65 67 67
100 100 100 100 100 100 100 98 99 100 100 100 100 100 95 100 98 100 100 100 100 100 100 100 99 93 91 89 87 82 75 72 74 69 74 72 72 71 71 66 67 66 64
98 100 100 100 100 96 98 97 97 98 99 100 100 100 100 97 93 99 100 100 100 100 100 100 100 96 93 86 85 82 78 81 82 82 76 67 70 71 69 67 63 68 61

GFSGL_sfc_rhum_042.txt.gz
RH
48 54 56 52 50 46 46 45 45 47 48 48 49 52 54 58 64 68 70 68 70 72 71 69 67 64 69 66 65 62 60 59 59 52 46 50 53 58 53 54 51 48 47
49 51 54 51 46 46 45 44 45 48 50 48 50 51 52 56 62 66 70 68 70 70 67 62 58 40 61 61 62 63 59 55 56 58 53 57 62 58 57 58 46 36 43
40 44 48 47 40 42 42 42 44 49 50 52 50 55 55 61 60 64 66 64 62 61 59 57 58 58 60 64 64 60 60 49 60 62 61 59 60 58 56 58 54 57 44
41 41 44 45 42 43 40 44 49 51 52 54 55 56 58 57 55 54 51 58 60 54 58 57 56 56 60 61 55 64 55 63 64 66 66 63 59 60 66 69 68 63 61
42 37 40 41 42 42 46 50 53 55 52 54 56 57 58 56 47 62 58 62 64 61 59 51 51 56 54 60 53 67 72 73 68 68 70 73 75 68 65 74 84 75 68
41 40 37 38 39 46 49 54 56 55 53 56 58 60 64 48 77 69 65 65 62 61 62 58 55 56 57 64 65 58 65 74 77 85 85 85 76 77 85 76 75 77 76
39 36 36 38 43 48 45 44 48 54 60 64 63 63 68 68 73 66 63 62 66 69 64 63 54 37 70 66 62 60 59 59 71 77 84 93 86 72 69 71 73 76 80
39 34 33 40 43 44 44 46 53 58 62 64 65 67 73 64 77 69 65 68 70 67 66 64 63 61 76 68 71 70 65 63 58 50 71 66 62 62 70 71 78 80 78
36 35 32 38 40 43 45 53 57 59 63 63 59 67 74 77 76 69 67 74 75 73 65 66 61 61 67 64 73 79 73 64 52 54 54 57 65 69 69 77 94 93 91
36 38 39 40 42 44 49 55 59 59 57 59 65 70 74 83 77 71 69 91 89 88 77 67 68 66 62 64 86 88 87 74 66 62 66 65 64 69 74 75 89 94 92
41 39 36 38 42 46 53 57 59 60 67 74 76 80 81 81 84 74 71 84 92 91 86 82 84 66 68 65 63 84 86 70 72 76 72 70 75 71 74 75 80 91 96
48 51 47 49 47 41 56 60 62 65 73 76 97 92 93 84 80 80 75 74 74 90 86 86 87 70 67 66 67 64 60 76 86 90 80 80 81 81 76 78 78 82 80
57 62 57 51 46 45 56 62 66 65 80 85 91 94 93 93 89 81 80 80 80 90 89 85 75 74 71 73 67 63 74 87 92 91 84 82 79 73 74 79 78 77 77
59 56 55 55 56 58 56 58 63 85 89 90 93 87 87 89 91 95 91 89 81 84 86 88 93 84 84 82 86 81 90 92 90 92 91 79 78 76 76 78 85 83 84
56 53 60 65 70 66 57 60 77 77 86 90 90 90 92 94 91 84 87 98 99 98 93 93 93 87 90 90 90 86 87 87 88 91 92 89 79 74 75 74 80 83 88
60 65 83 88 86 76 68 71 70 77 78 77 78 85 90 84 77 83 82 79 77 76 92 95 94 92 94 93 92 92 90 86 90 89 92 88 88 87 78 76 77 84 88
77 79 84 85 86 84 83 83 85 80 79 84 83 82 82 80 82 83 82 83 85 84 97 94 91 90 94 94 92 91 90 91 86 92 91 93 94 88 87 81 79 79 80
76 80 77 77 81 82 86 85 85 87 89 84 82 84 87 86 85 85 84 85 93 92 94 93 90 87 87 92 91 90 92 92 92 93 93 94 95 95 90 90 80 86 81
72 72 76 80 88 91 91 90 88 90 94 90 84 90 94 90 88 87 86 93 91 89 86 93 84 84 87 92 93 93 92 94 93 94 96 94 94 95 94 90 93 84 81
58 72 79 80 88 88 89 90 97 97 89 88 87 87 90 95 98 96 94 94 93 88 86 88 92 91 90 91 95 95 96 95 95 96 95 93 94 94 96 94 94 92 83
69 70 77 81 86 93 94 96 98 98 98 93 86 89 92 98 97 97 97 97 93 90 88 86 89 89 91 92 93 95 93 94 93 92 94 92 93 95 94 94 93 92 90
81 80 80 82 90 95 98 95 95 87 86 90 96 98 89 98 98 95 96 92 93 94 97 96 90 89 90 90 92 92 91 93 95 94 94 93 91 94 94 94 94 92 92
79 83 86 82 86 92 96 92 91 96 91 89 94 93 91 97 98 97 96 93 91 92 89 91 98 94 89 90 89 87 90 92 92 92 94 92 93 94 94 95 93 93 92
75 80 81 90 99 96 96 98 95 89 89 91 93 96 99 97 96 98 99 99 98 96 92 97 98 98 94 97 92 89 91 91 92 91 89 92 93 91 93 91 91 90 91
83 84 85 87 94 99 99 98 95 93 94 96 98 98 98 97 93 94 95 96 97 98 98 98 98 98 97 98 97 93 88 86 89 92 91 92 91 87 89 92 91 90 89
95 95 95 95 97 99 98 96 94 93 93 92 94 95 95 94 93 94 96 95 95 95 96 98 98 98 98 97 98 95 87 87 86 87 91 91 92 94 94 92 85 90 91

GFSGL_sfc_rhum_045.txt.gz
RH
58 62 64 60 56 54 51 53 50 52 51 50 52 54 58 66 66 73 74 74 75 78 76 74 73 68 71 72 74 73 73 72 73 66 63 64 65 68 60 64 59 58 57
57 59 55 55 56 49 49 53 52 51 52 52 53 55 59 63 66 65 72 76 76 75 71 70 65 47 64 72 74 68 71 71 75 73 69 66 71 67 67 68 53 45 54
49 52 62 61 54 50 50 50 54 55 54 53 53 60 61 66 61 65 71 72 66 66 63 64 61 61 68 70 66 67 71 55 75 79 71 68 69 69 66 69 69 70 56
49 52 54 56 51 46 49 52 58 56 54 53 58 62 66 60 58 62 60 64 64 63 65 65 66 62 58 59 59 65 63 76 78 82 73 70 70 70 80 77 83 77 79
49 49 54 55 51 50 54 55 58 57 51 55 60 65 65 61 54 65 60 65 65 66 68 63 58 62 64 62 57 71 76 81 84 81 79 81 80 80 84 90 75 72 66
52 51 48 51 50 56 55 56 56 57 57 59 61 64 66 55 76 70 67 66 64 66 71 71 65 58 68 65 60 59 65 75 81 96 84 85 82 88 81 79 78 80 82
46 44 48 51 50 52 48 48 49 54 59 64 64 65 72 73 78 74 69 64 68 74 77 73 63 53 68 66 63 62 63 58 77 85 86 83 85 73 73 75 78 85 87
44 46 50 50 47 47 49 50 56 61 65 64 68 68 76 70 81 78 72 67 70 76 76 72 72 72 74 71 73 75 72 73 70 60 77 70 69 69 79 77 82 91 85
45 44 48 54 53 52 53 64 64 62 67 68 64 70 80 82 83 80 72 74 77 78 75 73 75 75 66 62 75 79 78 73 58 60 61 67 69 67 71 89 92 92 91
51 49 49 53 54 59 62 64 64 63 63 66 68 75 78 89 83 79 75 89 90 89 82 77 67 69 64 68 90 90 93 75 74 71 71 73 72 78 76 84 89 96 94
53 56 57 58 57 58 62 61 59 64 69 80 83 83 81 88 90 81 77 87 88 90 92 90 88 70 70 67 67 90 89 75 77 78 80 75 77 81 78 81 84 91 95
59 60 62 63 63 57 62 62 66 70 79 82 94 94 95 88 86 89 85 82 80 92 88 90 89 77 71 70 74 74 70 79 96 93 93 84 89 82 76 81 84 88 81
64 72 74 70 62 56 65 70 76 77 88 85 94 96 96 95 94 86 86 85 85 92 91 86 79 77 74 83 78 76 82 90 94 97 91 95 93 80 79 78 77 79 83
72 73 72 71 70 70 71 74 81 94 96 95 95 95 95 96 94 97 96 94 93 90 88 88 94 96 96 91 89 83 90 94 95 94 95 92 92 92 90 82 84 87 90
65 69 72 77 80 84 81 80 89 86 91 92 93 93 95 96 93 89 93 96 97 94 97 98 98 97 95 93 92 93 93 94 94 94 95 96 92 92 88 84 81 82 93
73 76 91 92 92 89 87 87 80 80 81 82 83 89 86 84 86 84 82 87 92 91 99 98 98 98 97 93 96 93 96 92 96 94 96 96 97 97 92 86 84 86 87
78 83 91 91 91 90 91 90 86 84 82 82 84 86 87 82 83 88 84 85 86 88 99 98 99 96 94 93 93 94 93 94 91 96 95 95 97 95 96 93 94 85 84
82 87 88 89 90 88 88 87 88 91 87 86 88 83 84 88 86 97 90 96 98 94 93 96 96 94 92 93 90 93 96 96 96 97 95 97 98 98 98 95 92 97 87
84 90 88 88 88 88 88 90 96 97 94 92 91 95 93 90 95 95 90 98 96 95 94 90 92 94 92 90 94 93 94 96 96 98 97 99 98 98 97 96 96 95 94
86 88 86 86 90 89 92 94 97 98 97 98 95 96 92 99 98 96 96 98 97 95 94 94 92 94 92 90 93 94 95 97 97 99 98 99 98 98 97 98 98 98 94
77 82 86 84 84 86 91 91 96 98 98 94 97 92 93 91 94 97 95 96 97 96 95 95 92 93 94 92 94 94 92 94 95 97 97 97 99 94 96 98 98 96 96
85 85 81 80 78 82 83 84 94 98 98 96 94 94 97 98 96 96 95 97 98 96 95 92 92 91 89 89 90 92 92 94 94 94 96 97 96 95 98 98 97 97 96
79 84 84 84 86 86 92 87 93 98 98 98 97 96 96 97 96 97 97 94 97 98 97 98 98 97 94 90 91 91 89 90 89 91 93 96 95 96 98 96 97 96 95
94 94 89 92 94 87 89 90 88 98 98 98 96 96 96 97 98 99 97 98 98 98 98 98 98 97 97 95 92 94 88 89 90 90 90 93 93 95 97 96 94 95 97
90 92 92 93 95 95 95 96 96 96 96 97 97 97 94 94 93 96 96 96 98 95 91 92 98 95 96 98 97 95 94 91 91 90 91 90 90 94 95 95 96 95 93
90 91 90 91 92 93 94 95 96 96 96 95 95 96 96 95 93 93 93 91 90 92 95 97 98 99 97 97 98 97 96 97 95 90 88 89 92 95 97 95 94 95 93

GFSGL_sfc_rhum_048.txt.gz
RH
60 67 67 66 66 66 62 62 59 63 63 55 55 55 59 70 68 71 72 74 80 80 79 78 75 69 69 73 74 70 68 69 74 70 71 73 72 74 63 67 64 65 66
62 68 57 58 64 64 62 63 63 59 58 55 56 55 59 69 70 68 68 72 78 80 74 64 62 48 63 72 70 65 69 71 76 75 75 72 72 69 70 74 61 55 66
56 56 62 69 62 66 59 59 62 60 58 57 56 58 62 71 69 67 71 74 76 68 62 62 64 67 66 71 66 67 71 58 76 81 75 74 75 74 73 75 73 76 62
60 65 69 69 63 54 60 62 64 60 59 58 59 62 68 72 65 63 63 74 67 64 64 64 65 65 62 61 62 65 66 76 80 82 77 76 78 75 84 83 86 70 64
69 65 69 68 59 60 61 62 64 62 58 58 60 66 68 67 59 68 62 67 67 66 67 63 66 63 63 69 62 72 76 80 83 79 78 81 80 79 83 90 80 69 68
62 66 67 57 58 65 66 67 64 60 58 59 63 65 69 60 69 78 71 70 64 66 68 70 72 67 68 68 64 65 69 78 82 95 91 90 83 90 87 83 79 84 85
57 59 61 60 60 62 57 55 53 54 61 65 70 69 70 75 79 78 74 68 69 71 73 74 69 57 71 66 62 61 63 63 76 90 94 89 86 71 72 82 86 90 91
55 55 54 58 59 58 56 58 68 66 67 71 73 72 74 74 82 81 79 71 73 74 75 74 77 76 75 70 72 74 71 70 70 64 82 81 76 76 81 84 95 94 93
57 58 61 63 60 59 80 76 72 69 69 71 70 74 77 84 86 84 82 78 77 78 72 76 78 76 73 66 74 80 77 71 55 60 62 66 66 67 72 83 93 96 90
62 59 59 63 82 83 72 71 70 68 66 69 72 78 79 85 85 87 84 90 91 89 83 81 74 71 71 69 91 90 91 72 68 75 74 72 73 74 74 84 93 96 94
68 72 83 80 69 67 68 69 71 71 74 81 83 86 86 88 89 86 85 90 87 88 86 88 86 73 71 72 72 91 89 74 80 82 78 81 77 80 75 77 84 94 96
75 75 69 74 70 67 78 80 78 83 86 85 92 90 95 91 89 88 87 87 85 90 87 84 88 77 75 78 80 79 77 86 95 95 93 90 88 85 77 81 82 85 87
70 76 76 75 75 74 79 82 84 84 92 90 92 93 94 95 94 88 90 90 89 93 89 87 81 76 75 84 82 82 86 95 95 97 94 94 90 84 80 82 78 81 84
72 73 76 78 78 80 81 85 91 95 96 94 95 95 94 94 95 94 93 93 90 93 94 92 92 92 97 96 95 87 93 96 96 94 96 95 93 94 93 90 94 86 89
70 73 78 82 84 86 88 92 91 89 89 90 92 92 93 92 90 87 88 94 97 95 98 98 96 98 99 96 94 94 93 95 96 96 96 96 96 98 96 91 91 87 93
74 78 86 90 91 90 90 84 84 84 83 85 84 89 89 86 84 84 85 89 92 93 97 98 97 99 98 95 94 95 96 94 94 90 96 97 97 98 98 93 92 94 94
85 84 86 86 87 91 88 90 88 78 85 83 84 82 85 82 86 87 87 88 98 99 98 98 98 97 95 94 94 97 96 92 92 90 95 94 97 97 98 97 97 94 89
91 90 92 93 93 92 92 94 93 93 92 89 86 86 86 85 86 86 89 94 98 98 96 92 95 96 95 95 94 96 95 97 93 95 96 97 98 98 98 97 97 99 96
75 84 86 90 92 93 93 92 90 91 93 92 84 96 98 90 89 88 88 98 97 96 94 96 94 93 95 94 94 96 95 95 93 97 97 97 99 97 98 97 98 98 98
84 87 88 88 87 86 83 84 82 82 87 91 94 97 98 100 100 95 93 95 98 97 94 95 94 96 96 95 95 95 97 95 95 95 97 98 100 98 98 97 99 100 97
77 76 80 81 85 85 86 87 86 87 89 85 88 98 98 99 97 94 95 96 98 96 95 96 95 96 95 96 94 95 96 95 92 93 96 97 100 98 96 98 99 98 97
88 89 89 91 87 88 92 92 93 93 94 89 92 97 97 100 97 97 93 90 92 93 94 96 97 95 94 95 95 95 95 95 94 94 96 97 96 96 98 98 98 98 97
90 91 90 86 89 88 91 90 93 93 94 97 97 97 97 95 95 96 95 97 99 98 97 97 97 96 93 93 96 96 95 94 90 91 92 96 96 95 99 98 97 97 97
92 94 90 90 92 92 92 92 94 91 93 95 95 95 96 96 97 96 95 94 94 96 95 98 98 98 98 97 97 97 95 94 95 91 88 92 95 95 98 97 96 98 98
94 95 93 94 95 94 92 92 92 92 92 93 94 95 94 94 93 94 94 92 91 93 94 94 96 97 96 95 96 96 95 97 96 95 93 92 92 92 94 94 97 96 98
93 92 94 94 94 93 94 93 92 92 92 93 94 94 94 95 93 93 92 90 91 90 90 89 93 94 98 98 96 98 97 97 96 96 94 92 94 94 93 91 93 98 95

GFSGL_sfc_rhum_051.txt.gz
RH
78 73 75 69 65 67 67 66 69 79 79 83 69 65 66 72 74 77 74 75 76 79 79 80 78 76 72 74 75 73 72 71 72 65 74 72 75 73 66 74 71 72 72
78 75 70 65 68 68 64 64 78 93 78 64 67 60 63 72 74 73 70 72 78 81 82 72 67 54 65 70 73 67 67 70 74 75 76 77 75 72 75 79 66 60 70
73 73 70 71 70 71 73 83 89 75 70 66 61 60 65 71 72 74 74 74 79 80 77 66 63 66 68 72 72 71 72 61 76 81 78 77 79 78 76 78 79 76 67
72 70 74 75 79 78 84 74 75 72 62 61 62 63 68 69 73 71 68 76 81 76 71 70 66 68 69 67 65 68 65 73 80 84 79 73 77 75 86 86 81 72 64
72 76 82 79 71 70 70 70 69 65 60 59 61 65 70 73 69 74 72 74 76 73 74 70 69 67 63 67 65 70 75 83 84 83 79 74 79 81 86 84 80 71 70
81 82 71 65 63 67 70 71 69 64 60 61 65 70 73 63 72 80 78 78 73 73 74 73 71 71 73 71 72 67 74 81 83 94 84 88 87 87 83 82 83 87 83
72 65 67 67 68 67 62 61 58 63 76 74 70 71 72 76 80 80 83 79 77 76 76 74 72 60 72 72 74 66 65 65 80 85 94 93 95 80 77 87 87 90 92
62 63 64 65 65 62 60 67 86 89 77 72 73 76 80 74 82 85 84 83 78 77 77 74 73 76 74 75 72 75 71 70 67 61 79 84 83 79 83 82 92 92 86
63 64 62 64 65 67 81 91 88 74 73 76 74 77 81 82 83 87 89 90 81 79 76 80 88 82 77 75 80 83 78 71 56 58 61 64 66 65 66 84 92 93 90
63 62 62 65 80 92 94 82 77 77 76 76 76 80 80 84 83 87 91 95 93 86 88 86 82 82 74 76 90 91 95 78 67 67 74 73 69 76 72 82 92 97 92
71 80 92 88 81 73 72 75 78 81 84 86 86 86 86 87 87 86 89 94 91 90 89 90 85 80 76 74 75 92 91 76 78 82 83 83 78 78 74 76 82 92 96
76 72 71 71 73 72 82 84 84 87 89 89 93 90 91 89 87 86 88 89 88 93 91 89 88 80 80 77 78 83 81 88 95 97 98 93 92 88 76 82 82 84 85
72 76 78 77 78 80 86 87 89 88 92 91 92 94 90 92 94 88 90 90 91 96 92 90 86 83 90 82 83 85 90 96 97 99 96 96 95 82 81 86 80 81 83
72 74 78 81 82 83 86 88 93 95 96 90 91 89 88 90 94 94 94 94 92 93 95 93 92 95 95 90 96 92 96 96 96 96 97 96 94 95 97 95 98 91 90
75 77 79 82 84 84 83 84 87 90 89 84 85 87 88 88 85 84 88 94 95 93 96 98 98 97 97 96 96 96 96 97 98 98 97 95 96 95 98 96 97 93 98
87 88 93 94 93 89 89 87 82 87 85 85 84 86 81 83 80 84 88 88 88 89 98 97 96 97 96 96 96 94 96 96 95 96 95 92 94 96 97 97 97 98 97
88 89 92 89 90 93 93 94 95 82 81 82 84 84 85 88 89 98 99 99 89 92 98 97 96 96 95 95 95 95 94 94 94 96 94 94 95 94 98 98 97 98 96
86 89 93 93 94 93 92 89 84 83 84 80 69 78 81 86 86 91 98 100 98 97 98 96 96 95 94 95 94 94 94 96 97 96 96 94 96 97 98 98 97 100 98
78 80 83 89 91 90 89 89 88 88 87 85 79 74 76 85 89 98 98 99 98 95 88 92 94 94 93 94 96 95 94 96 97 97 94 93 96 97 98 98 98 99 100
78 87 89 89 91 81 78 81 82 89 94 92 88 85 82 93 95 98 98 98 96 94 95 95 96 96 96 96 96 96 97 98 98 96 95 95 96 98 98 98 99 100 98
90 87 91 86 86 87 89 92 91 91 92 89 90 95 96 97 95 98 97 97 90 89 96 98 96 95 96 97 96 96 96 96 96 95 94 96 97 100 97 97 99 98 98
86 90 87 88 89 92 93 88 91 91 89 91 90 89 94 94 95 96 96 96 95 95 96 98 98 96 96 97 96 97 96 96 96 95 96 96 96 98 97 98 99 99 98
93 94 89 87 92 93 92 92 93 92 92 91 91 91 93 95 95 94 95 94 94 94 94 95 96 98 98 97 97 97 96 94 93 94 95 95 96 96 98 99 98 98 98
95 99 92 92 95 95 95 95 94 94 92 92 92 92 94 94 95 95 95 93 92 92 92 94 94 95 97 98 98 97 97 97 97 96 95 94 94 95 96 98 97 98 98
99 100 100 99 99 97 96 94 94 94 94 94 94 93 90 93 94 94 94 91 90 91 90 90 91 92 92 98 98 97 96 98 97 96 96 94 93 92 93 95 96 97 98
98 98 98 100 100 98 97 96 95 95 95 94 94 93 93 93 92 93 92 90 90 90 90 90 90 91 90 93 91 98 98 97 97 96 96 95 95 95 94 92 90 96 92

GFSGL_sfc_rhum_054.txt.gz
RH
97 96 96 92 84 81 78 77 83 84 83 85 90 91 75 76 78 77 76 78 84 84 83 84 83 80 80 77 77 73 71 71 72 61 64 64 65 64 62 65 69 68 70
95 93 90 84 84 87 84 81 83 86 86 93 81 70 69 73 74 78 78 72 81 81 81 84 81 65 75 72 75 71 70 69 67 67 66 68 69 65 67 69 63 57 65
92 90 89 89 84 83 83 82 84 91 87 76 73 71 69 73 76 76 76 77 80 81 82 85 74 71 71 72 71 75 71 59 70 74 70 72 70 67 65 70 72 68 63
90 89 89 85 84 79 77 87 88 79 77 71 69 67 72 69 70 74 74 78 81 82 85 82 73 72 71 72 70 72 65 69 71 77 77 71 68 62 75 79 73 62 63
88 88 90 86 77 80 85 78 82 83 74 64 67 70 70 72 70 79 79 81 83 84 81 76 76 73 69 72 62 68 69 72 76 78 76 71 68 68 71 75 74 71 70
89 90 80 80 79 73 74 80 81 69 64 63 74 74 76 66 74 80 83 85 82 80 78 77 74 70 75 77 79 80 69 76 80 83 79 76 68 75 81 81 80 78 74
80 73 73 73 73 72 66 63 63 72 89 88 90 78 78 80 81 82 83 88 83 81 79 75 70 60 70 67 72 79 77 74 83 82 85 79 84 76 74 81 79 83 82
70 68 64 62 62 65 71 81 90 92 94 92 81 78 81 77 82 84 86 91 85 80 79 78 78 76 76 75 73 75 70 67 68 67 75 73 73 73 77 75 86 86 75
60 59 63 69 73 78 87 93 96 92 82 81 77 80 81 82 81 84 87 93 91 83 76 78 78 82 87 79 86 84 74 70 64 67 63 67 68 67 67 79 84 88 90
66 69 79 88 94 97 96 91 82 80 80 84 82 82 82 86 81 82 88 97 96 91 87 81 80 86 86 82 92 90 93 78 73 62 60 65 68 69 73 74 82 92 88
84 92 92 86 79 78 77 78 82 86 88 89 88 88 87 86 85 83 84 96 94 93 90 90 88 85 86 81 79 91 88 74 81 74 69 76 76 74 70 68 72 84 88
72 75 74 76 76 75 85 86 85 89 90 90 93 88 89 87 84 85 86 88 91 93 91 89 90 85 84 84 85 86 83 89 94 95 96 94 92 86 72 71 74 80 80
73 76 77 79 79 81 84 86 90 90 94 90 92 92 87 85 91 84 86 89 90 97 92 91 88 87 86 90 95 90 86 94 96 96 95 92 87 77 68 77 75 76 77
79 81 83 85 86 86 86 87 93 95 94 89 91 90 87 85 87 92 89 91 90 94 97 94 95 94 92 94 96 97 96 95 94 94 92 89 85 84 85 83 90 85 86
87 88 89 89 91 87 88 92 92 92 94 92 90 90 93 92 87 84 87 90 91 94 95 99 98 98 96 95 96 95 96 95 95 94 96 92 88 85 87 86 88 87 92
81 87 95 93 94 88 88 83 76 78 76 76 77 83 80 78 81 84 85 88 97 97 98 98 97 97 96 94 95 94 95 96 92 94 95 93 91 89 86 87 90 90 93
87 81 86 84 85 89 89 90 94 80 72 73 73 76 76 76 76 77 79 80 89 98 98 98 96 96 95 92 94 94 94 92 92 93 94 94 92 89 90 90 92 90 90
80 87 90 91 95 95 97 86 80 81 86 89 74 71 74 79 81 79 80 86 94 98 98 97 97 94 93 93 93 95 95 95 96 94 97 96 95 92 92 92 91 94 92
79 86 92 97 98 90 85 85 90 89 91 89 84 79 80 80 76 81 82 93 97 98 98 98 94 93 93 92 96 96 96 95 96 97 96 95 95 92 93 93 92 96 97
76 90 89 88 89 92 90 88 87 90 89 89 90 90 87 86 89 90 90 97 98 99 95 92 93 94 95 96 96 96 97 96 97 96 96 96 94 94 94 94 96 94 91
85 83 89 84 89 91 94 92 93 92 92 91 91 90 87 93 93 93 94 93 93 94 95 93 96 96 97 97 96 96 96 96 95 94 95 95 96 96 94 94 94 92 92
88 83 84 90 89 95 94 91 93 94 92 92 91 88 87 91 92 91 93 94 95 94 94 95 94 95 96 97 97 97 96 96 96 95 95 95 94 95 94 95 94 96 93
94 95 92 88 93 97 96 94 96 95 95 94 93 92 92 93 93 91 92 94 94 94 94 93 94 93 91 94 95 97 96 95 94 96 95 96 96 95 96 95 94 96 94
96 98 94 95 99 97 100 100 99 97 95 95 96 94 94 93 94 94 91 91 92 94 94 92 92 93 91 92 94 95 97 97 97 96 96 95 94 94 95 93 94 93 93
99 100 100 100 100 100 100 100 100 99 96 97 96 95 93 93 92 92 90 90 90 91 92 93 90 90 91 92 92 95 95 97 98 97 96 96 95 94 93 90 94 90 93
98 98 100 100 100 100 100 100 100 100 98 97 96 95 94 94 92 92 90 89 88 89 88 88 87 89 91 90 89 91 92 94 97 97 96 95 95 95 94 93 92 90 89

GFSGL_sfc_rhum_057.txt.gz
RH
78 84 87 89 86 85 79 76 72 80 79 68 76 87 86 79 75 77 77 74 65 60 61 61 60 58 54 53 53 49 48 46 52 42 35 38 44 43 41 41 40 38 39
83 87 91 91 89 87 88 84 87 84 79 76 82 88 81 85 79 79 72 58 60 61 59 60 60 51 61 57 51 51 46 48 50 46 39 40 44 45 45 45 34 32 40
89 90 91 90 88 87 87 90 90 89 84 86 86 85 74 74 74 65 58 61 60 59 58 59 58 59 59 52 51 47 47 49 45 46 44 40 44 43 43 39 36 41 34
84 85 89 88 87 88 91 89 89 82 83 82 82 82 84 79 66 55 56 60 60 59 61 61 59 60 57 52 49 49 51 48 45 46 45 43 44 42 43 37 38 36 36
86 84 86 86 82 84 85 80 84 82 82 86 86 80 72 65 64 64 56 58 60 60 63 61 63 63 67 62 47 49 50 49 48 50 47 46 45 44 43 38 42 40 41
77 83 79 79 78 80 80 85 87 85 81 72 71 78 80 71 77 80 73 59 57 59 57 56 57 68 69 78 80 80 66 58 65 54 50 51 48 49 44 43 47 49 50
72 71 73 76 76 77 76 69 74 83 84 85 92 92 90 80 80 82 84 58 58 57 57 56 53 48 64 53 68 77 78 83 76 60 66 58 63 50 39 46 47 50 52
66 64 63 65 68 66 81 88 90 92 95 93 93 80 68 58 82 85 86 59 60 59 60 59 58 56 56 57 56 60 59 55 58 56 56 52 51 42 46 52 63 64 50
60 68 74 78 82 82 89 92 95 94 86 71 65 64 64 62 79 83 78 61 61 61 59 59 58 58 67 75 66 76 63 55 58 66 66 68 70 69 68 60 68 65 72
73 73 76 83 93 94 88 75 66 62 60 60 60 62 68 66 74 83 77 71 79 71 63 62 79 67 76 83 86 89 87 63 52 51 52 53 56 52 66 59 58 71 66
82 78 71 67 63 60 61 60 60 59 64 71 72 68 67 67 65 80 84 76 79 76 70 66 66 83 85 85 85 87 90 67 68 59 54 49 46 48 49 49 50 58 67
64 64 57 58 57 56 61 60 60 61 68 70 97 77 69 70 76 77 81 84 78 88 81 71 72 83 87 88 86 85 87 85 81 79 74 70 67 64 54 50 53 56 54
59 63 64 64 62 60 60 61 59 60 65 70 69 75 67 69 65 78 85 86 84 88 87 84 84 85 87 88 90 86 91 93 94 87 81 70 66 58 57 60 59 57 57
64 62 58 54 52 48 44 46 49 59 64 64 67 67 68 65 68 66 73 74 76 82 84 92 97 94 96 91 90 93 94 95 90 87 78 67 66 71 73 64 70 68 67
57 52 49 50 51 47 47 53 57 58 71 72 70 72 88 88 78 79 80 80 83 80 88 92 96 94 93 92 95 87 85 91 92 88 90 81 79 73 74 67 68 67 72
46 48 62 60 60 55 53 53 63 70 70 70 72 76 75 75 76 74 74 78 82 81 85 90 98 98 96 93 91 84 83 86 85 83 90 86 84 80 74 71 70 73 71
54 56 57 64 62 65 66 63 66 61 62 67 69 69 70 74 75 75 75 80 84 84 88 86 94 100 95 92 91 83 82 82 88 88 86 86 89 76 82 77 77 74 71
62 79 64 67 69 68 67 69 69 74 78 73 63 66 70 75 74 74 78 75 81 80 86 86 92 97 95 92 86 86 79 84 90 90 90 89 88 82 86 78 75 78 72
58 62 68 74 73 76 73 73 71 72 74 72 66 64 70 77 72 73 76 84 87 84 87 87 95 95 91 82 90 94 94 98 95 95 91 90 89 85 85 76 76 79 79
59 76 69 67 70 71 72 74 72 74 73 75 74 75 73 76 85 86 84 88 87 83 89 87 87 88 94 94 98 100 97 94 95 91 93 94 90 87 85 81 83 82 70
62 62 76 65 69 71 75 75 74 77 78 77 78 80 83 84 84 83 82 84 84 84 86 86 89 88 86 92 92 95 93 97 93 90 90 89 90 90 83 82 84 78 70
70 66 68 73 71 78 76 72 78 78 75 77 79 76 78 83 81 81 80 84 87 84 86 89 90 90 89 88 90 95 95 96 93 94 93 91 86 86 85 87 86 82 76
71 76 73 71 76 79 80 75 81 82 80 82 80 80 81 84 85 82 84 85 82 84 84 87 92 90 89 90 90 90 92 92 95 96 94 94 88 88 90 88 86 85 81
73 78 73 78 83 80 84 86 84 80 81 83 86 85 84 84 86 85 85 84 82 84 84 88 88 90 89 89 86 86 87 92 93 95 96 94 91 87 91 89 86 84 82
82 81 82 84 87 88 88 84 84 85 86 86 87 86 81 84 81 83 83 82 83 84 84 86 88 88 88 89 87 87 86 89 93 94 96 96 94 93 92 90 89 82 81
78 77 80 84 87 88 88 88 87 87 88 88 87 87 87 85 82 84 82 83 82 85 84 83 83 84 89 86 80 86 89 88 92 92 95 94 94 92 92 93 91 85 81

GFSGL_sfc_rhum_060.txt.gz
RH
52 61 79 78 78 79 83 82 84 83 72 67 72 74 86 89 85 82 71 82 82 63 52 49 48 46 44 40 41 40 40 38 40 34 30 31 36 39 37 36 36 36 30
53 62 73 81 82 83 86 83 84 79 78 78 85 88 87 85 84 87 88 77 62 53 50 48 48 38 47 47 43 44 41 38 38 42 38 34 35 36 39 40 33 24 27
62 76 86 91 92 92 89 87 88 90 94 95 91 92 86 84 84 87 84 64 50 49 46 47 47 47 48 45 44 42 39 33 37 40 39 34 34 35 37 36 35 32 23
84 88 92 92 91 90 91 92 94 89 90 86 84 84 88 91 89 82 61 54 50 45 47 49 47 47 47 46 42 42 39 40 39 39 38 36 36 35 35 34 34 27 27
86 86 90 88 86 88 91 92 89 86 83 78 86 90 92 88 77 72 59 58 51 48 48 46 48 51 63 60 40 41 42 41 39 42 41 42 42 39 35 34 35 29 32
80 82 79 80 80 82 79 78 75 75 75 82 83 88 85 80 85 85 80 64 52 48 48 45 42 60 66 80 79 76 59 48 48 54 55 63 50 40 35 38 35 34 38
68 68 67 64 66 67 63 65 71 71 76 85 87 87 87 85 91 90 87 54 50 48 47 44 40 32 54 49 72 81 79 81 80 58 64 64 56 41 40 41 37 38 41
58 58 58 60 61 64 67 74 79 84 84 87 86 91 77 54 77 82 86 52 47 45 44 45 45 44 44 49 51 49 48 51 64 60 56 48 44 41 42 40 46 50 46
55 57 57 60 64 70 76 84 89 88 86 80 54 51 51 49 75 82 75 52 49 49 43 44 43 45 53 74 57 60 53 56 61 68 70 73 70 68 64 51 60 58 66
58 58 58 59 65 76 78 70 55 48 46 44 45 46 56 50 65 79 72 60 63 60 52 48 62 59 65 82 70 72 76 58 60 57 52 58 68 59 73 58 53 62 57
57 56 57 56 52 49 48 45 43 42 46 56 58 57 56 58 59 78 81 70 70 73 68 62 58 72 83 82 82 73 82 62 67 60 55 54 50 44 39 47 49 51 57
48 47 44 43 38 38 44 45 44 46 54 56 84 56 52 51 63 64 75 78 76 75 67 65 70 82 94 91 85 83 83 87 83 95 76 67 62 56 47 46 49 49 44
45 45 46 44 41 39 40 42 37 37 41 47 47 56 49 53 49 64 69 74 71 77 69 71 79 85 90 96 98 91 89 92 99 99 87 76 69 55 53 58 54 50 49
45 45 41 38 35 31 26 28 31 44 51 48 52 56 56 54 55 59 62 63 65 71 71 70 72 78 82 89 92 97 97 98 97 93 79 70 69 71 68 63 70 69 67
38 34 35 36 33 30 30 38 45 51 63 62 60 60 78 78 65 72 72 72 78 77 86 88 78 71 64 66 78 90 99 97 98 95 88 92 89 76 77 70 72 67 69
32 34 48 44 44 35 32 33 69 63 62 68 68 72 71 67 70 71 69 72 75 72 84 90 95 95 85 66 73 81 95 91 84 86 86 86 87 85 80 80 69 75 70
35 40 43 48 43 45 45 46 49 54 57 62 58 62 64 70 72 71 70 72 66 67 79 80 89 95 97 73 71 81 95 89 85 82 84 91 88 86 92 86 83 71 73
48 62 45 47 47 52 52 55 54 61 68 63 52 55 60 67 70 68 68 65 66 64 68 76 87 88 88 95 97 92 91 86 90 88 95 96 97 92 92 79 75 80 72
41 43 54 61 63 62 62 61 60 61 62 60 56 51 56 65 65 63 64 72 74 70 69 70 76 81 85 87 94 99 100 99 99 100 97 94 100 91 87 79 74 73 72
47 65 59 53 56 58 59 62 58 62 62 63 63 65 64 66 77 77 75 79 78 72 74 71 71 74 86 88 91 91 98 100 99 97 99 100 100 95 87 81 80 85 71
42 47 66 50 55 58 63 64 62 66 67 66 68 72 73 77 76 75 73 76 76 75 79 76 79 81 81 87 86 88 87 92 96 92 94 93 100 96 84 80 81 77 68
53 52 55 62 59 69 67 62 67 67 65 67 70 67 67 75 73 73 71 77 81 75 74 78 80 79 79 85 88 92 89 91 92 96 96 95 96 95 90 80 82 84 72
60 67 62 59 66 68 73 67 73 76 73 74 71 71 72 77 78 74 76 80 75 77 76 75 80 78 77 86 89 89 89 86 88 89 94 99 94 94 95 88 83 85 78
66 72 63 69 76 73 78 81 78 72 74 76 80 79 77 78 81 79 79 79 77 78 78 78 76 75 75 81 87 87 86 87 85 85 92 95 96 93 95 91 84 80 77
75 76 76 76 78 81 82 78 79 80 79 80 82 81 75 78 76 78 79 78 76 78 75 79 78 74 75 77 83 89 89 86 86 87 90 92 97 99 93 91 91 85 83
70 70 73 77 78 80 81 82 81 80 81 82 82 82 82 79 76 80 78 77 76 78 80 77 77 77 79 77 76 88 90 86 87 85 90 90 94 96 93 94 95 89 83

GFSGL_sfc_rhum_063.txt.gz
RH
45 57 70 77 81 84 82 83 80 76 76 84 83 82 84 92 90 85 84 88 89 89 81 68 55 48 44 43 41 40 40 40 44 38 30 32 38 40 33 37 38 38 37
44 48 75 75 82 90 91 91 87 89 86 80 80 92 91 90 93 90 90 87 88 85 75 61 55 40 52 47 44 48 44 42 42 47 38 36 41 38 40 42 33 26 32
42 50 75 86 88 95 93 89 87 88 92 93 93 95 93 91 89 90 90 88 88 79 65 56 52 53 53 48 46 45 42 34 41 42 41 38 38 36 38 39 41 42 27
72 85 94 94 93 93 92 91 93 92 92 92 91 88 88 88 87 85 85 85 74 67 61 56 52 51 47 49 46 48 42 45 44 42 42 40 38 36 36 39 45 39 35
85 89 93 91 90 91 93 92 92 91 89 86 88 88 89 87 87 90 82 80 74 66 61 53 51 52 61 60 44 51 50 46 42 41 42 40 39 41 42 45 49 40 38
86 89 88 87 86 87 88 88 88 86 83 81 84 90 95 87 92 94 88 77 72 64 56 47 45 55 60 70 75 76 65 59 58 51 50 50 48 48 52 57 53 47 46
75 73 72 72 73 74 72 73 74 75 81 87 91 90 86 79 89 90 91 69 56 50 48 46 41 31 48 39 61 76 78 80 78 62 64 60 62 56 56 62 52 48 46
57 57 58 59 58 57 58 62 70 78 80 80 79 79 76 66 86 92 86 54 50 47 45 43 45 45 45 48 48 51 55 58 63 58 59 56 56 54 55 50 54 49 45
52 52 53 57 60 60 65 71 71 76 76 74 65 55 48 46 74 79 71 50 48 48 42 42 42 46 56 67 60 62 57 58 58 80 72 72 73 70 65 58 69 67 74
53 53 54 55 58 64 73 72 70 58 46 40 40 41 57 44 84 81 69 64 68 64 57 52 65 64 79 83 79 72 69 61 60 60 79 72 70 62 79 61 58 72 67
52 53 55 57 58 50 47 44 40 39 41 53 54 54 51 53 54 73 74 57 64 70 64 60 57 67 73 78 88 81 91 78 71 71 74 74 75 60 56 58 55 59 69
47 47 45 40 34 35 39 40 38 40 49 51 55 49 49 49 63 72 66 68 67 66 62 63 64 70 76 76 74 75 87 96 97 92 97 90 81 73 60 54 57 60 57
44 42 40 36 33 32 34 36 30 31 40 47 45 53 48 50 47 71 64 66 66 70 65 69 74 76 76 77 78 88 92 93 97 98 97 96 82 65 60 64 61 58 60
42 39 36 33 30 26 22 23 28 42 48 46 48 53 54 54 53 60 60 60 61 64 67 71 75 79 83 83 80 76 78 84 94 96 96 88 74 71 73 75 77 77 75
34 31 32 32 28 26 27 33 44 59 60 58 59 58 74 76 66 70 70 66 71 70 80 78 76 76 76 73 74 67 66 79 95 97 98 99 97 82 87 81 80 78 86
31 33 45 44 41 29 27 42 66 64 64 74 66 69 67 65 67 69 69 67 69 67 70 74 85 87 84 80 83 82 75 72 94 99 98 85 80 84 86 91 81 90 83
36 42 45 46 39 40 40 43 43 68 63 68 61 58 54 64 65 68 66 65 66 58 64 66 82 87 84 80 86 89 93 78 91 99 91 85 83 85 88 87 90 88 84
43 67 40 42 43 47 45 50 50 56 65 63 61 52 50 59 66 67 62 63 60 56 58 63 72 78 80 77 83 89 88 95 100 97 88 92 96 91 90 93 89 91 85
38 41 51 59 60 59 58 57 56 57 59 58 53 54 51 61 63 62 60 68 70 66 61 61 68 69 75 81 86 88 94 94 96 100 94 91 100 95 92 92 91 82 80
44 60 59 50 53 54 55 58 54 58 58 60 60 59 59 65 76 75 72 75 75 68 68 65 66 72 82 84 88 90 92 93 93 95 100 100 100 95 94 95 92 88 72
38 48 66 47 51 55 60 61 58 62 64 62 64 69 74 71 76 72 69 71 70 69 74 72 77 81 82 84 81 85 90 94 92 93 93 97 100 96 94 94 91 81 80
51 50 53 58 56 66 65 60 64 64 62 63 66 64 64 74 70 70 68 72 78 73 74 74 78 78 77 80 86 89 88 93 93 92 90 90 91 96 96 94 93 88 74
59 64 60 55 64 64 71 65 69 72 70 71 68 69 70 74 75 71 74 77 75 79 78 78 83 80 74 80 82 86 88 90 92 94 92 91 90 93 98 94 92 90 83
64 70 61 64 71 72 75 77 75 69 71 73 77 77 74 75 77 76 78 78 77 78 81 83 81 76 78 82 80 80 78 88 91 91 92 92 89 90 95 94 93 91 82
72 74 72 73 75 77 78 75 76 76 77 78 78 77 71 74 72 75 76 77 77 79 79 80 83 79 77 80 82 78 79 88 91 91 92 90 90 90 93 96 94 92 88
67 67 71 74 76 77 78 79 79 78 78 78 77 77 76 75 73 77 76 76 78 78 79 81 78 75 78 79 75 78 84 81 90 91 93 87 90 91 94 96 95 94 89

GFSGL_sfc_rhum_066.txt.gz
RH
51 57 64 74 87 91 95 93 91 92 92 93 92 94 92 93 93 96 96 94 93 93 90 89 84 79 73 64 68 68 63 64 66 64 58 53 56 58 53 59 60 60 62
55 69 76 88 93 93 97 96 96 98 96 94 91 89 91 93 95 96 94 90 88 90 88 89 87 70 68 67 69 68 71 68 70 66 63 63 61 56 60 60 48 35 50
74 82 86 95 93 97 97 96 94 94 94 92 92 93 95 97 93 91 88 89 89 87 85 84 80 70 71 72 68 73 71 53 69 71 66 66 66 63 62 58 58 61 46
86 92 97 97 96 96 96 96 95 94 95 95 95 94 92 91 88 86 87 91 90 85 82 79 73 73 71 72 70 71 64 73 72 69 65 64 67 60 62 60 65 66 66
90 93 97 96 95 95 95 96 95 95 94 92 92 92 91 89 86 89 88 91 86 82 78 70 69 71 71 69 55 70 74 75 71 69 64 70 70 66 65 69 74 76 72
90 94 93 94 93 95 95 93 92 91 90 90 91 91 94 89 97 96 92 88 79 79 83 76 71 68 72 78 74 75 62 64 68 73 72 71 70 74 78 84 86 87 83
90 87 87 86 89 89 86 84 86 88 88 91 94 92 93 90 94 93 94 85 86 80 74 69 58 42 60 54 62 75 82 79 80 68 76 77 77 71 74 76 82 88 79
75 76 75 77 78 75 74 76 84 88 90 90 89 87 86 75 88 94 95 89 73 68 67 65 66 65 65 75 76 78 73 68 78 78 86 80 78 77 75 72 80 79 76
66 65 61 63 64 66 76 81 83 83 84 88 82 82 81 71 84 84 75 78 75 78 64 65 64 62 68 74 73 77 76 78 68 71 83 81 78 82 75 80 94 89 93
59 60 60 63 65 72 75 81 79 77 73 67 57 60 60 80 78 76 66 85 82 84 76 63 70 70 77 75 80 85 89 81 78 77 77 81 90 86 86 76 82 83 86
58 57 59 64 68 71 72 70 66 59 65 75 72 75 65 71 79 73 71 83 86 80 76 73 72 71 72 73 74 78 78 71 72 76 82 79 87 91 87 77 75 75 81
58 59 58 56 48 47 55 54 49 64 73 76 72 76 80 75 77 70 66 66 66 78 75 74 74 71 74 76 79 80 80 81 84 83 85 83 87 97 96 76 76 76 74
54 51 47 43 42 43 52 51 52 55 66 80 81 87 79 84 82 71 65 64 66 78 74 71 70 71 76 80 82 83 84 85 84 91 90 78 76 90 87 86 90 77 74
50 49 46 45 40 36 31 36 58 76 83 82 83 83 88 80 86 79 77 80 69 73 76 78 79 80 82 76 76 76 80 81 92 92 87 86 84 97 99 99 91 93 92
45 40 41 43 42 39 47 53 78 73 81 86 85 82 93 94 83 75 74 77 82 76 82 80 81 80 79 77 76 77 79 80 86 93 92 89 88 97 98 99 97 95 97
40 46 70 69 63 42 49 53 71 72 75 72 68 81 82 68 65 66 68 67 66 68 82 84 89 88 86 80 79 80 81 83 88 89 98 96 98 100 98 98 98 98 97
54 57 64 68 67 67 68 73 85 74 70 70 66 62 58 62 60 66 66 64 66 70 89 86 91 89 85 78 79 80 85 83 91 94 96 99 99 99 97 97 97 96 96
56 70 62 65 67 73 71 74 77 83 89 90 71 65 60 59 64 63 65 64 81 73 78 83 86 85 82 82 82 82 84 85 86 91 94 98 97 98 99 98 98 97 96
56 61 72 78 79 76 76 78 78 78 81 82 78 74 71 64 64 63 63 90 93 87 81 81 84 82 83 83 86 86 87 90 88 94 94 94 97 98 97 96 96 98 98
58 71 74 68 77 75 75 76 73 77 78 83 84 86 84 81 89 89 90 93 93 91 89 82 80 83 86 85 87 87 87 87 87 90 94 95 93 96 98 98 97 97 97
84 77 82 60 67 71 77 77 76 82 84 85 88 94 81 89 92 90 92 92 91 91 90 87 90 88 85 84 83 86 86 90 86 90 92 93 94 94 92 97 98 98 97
72 64 66 75 68 83 80 74 81 81 79 83 88 84 79 92 92 93 90 92 95 92 91 89 88 85 84 85 88 85 90 88 90 90 91 92 93 92 92 94 98 98 97
81 81 71 67 74 77 88 83 87 89 87 88 86 87 91 93 95 92 93 94 92 94 93 90 88 87 84 82 83 86 92 89 89 88 92 92 92 93 94 94 95 98 97
80 82 71 79 88 83 89 93 90 83 88 90 92 92 91 93 93 93 93 93 93 93 90 88 90 83 82 89 89 84 81 81 82 88 95 94 91 92 93 92 94 96 97
84 86 86 86 88 90 92 89 90 90 92 91 91 92 88 89 87 89 90 91 90 86 90 85 83 85 85 84 85 84 86 92 95 85 87 91 93 93 92 92 93 95 97
79 79 84 87 89 90 90 91 91 90 91 91 92 90 90 89 86 87 87 86 88 90 83 83 82 82 82 83 84 83 82 83 84 82 88 93 93 92 90 93 93 95 97

GFSGL_sfc_rhum_069.txt.gz
RH
52 63 62 85 90 93 97 97 98 98 96 96 95 96 97 96 95 95 96 96 93 93 93 91 89 86 84 84 85 79 76 79 81 78 72 64 61 61 56 71 66 69 64
57 68 77 96 96 98 98 97 97 95 95 96 96 96 95 95 95 95 95 93 92 92 90 87 84 73 86 90 84 82 82 76 77 79 78 74 68 65 66 64 54 48 55
93 98 97 98 99 97 99 99 98 98 98 97 95 96 96 97 96 94 91 90 91 87 87 88 86 88 94 87 78 80 84 65 82 84 71 80 77 75 69 66 61 64 51
92 97 98 98 98 98 98 98 97 95 96 95 94 96 96 94 91 89 89 90 90 88 88 89 90 89 83 87 82 85 80 87 84 88 76 81 84 75 75 74 70 69 69
97 97 98 98 97 97 97 96 96 96 96 95 95 95 94 91 88 89 88 91 92 91 86 80 80 84 84 82 70 82 88 89 89 84 79 85 86 79 71 72 76 80 77
97 97 96 95 95 97 97 96 96 95 94 94 94 94 94 88 96 94 93 92 84 82 88 91 89 85 77 81 83 82 89 87 86 85 82 81 76 82 89 92 86 85 87
94 93 93 93 94 94 91 91 93 94 94 95 96 94 95 93 95 96 96 94 94 94 91 82 71 57 78 73 74 75 79 80 91 92 93 88 85 86 89 90 84 92 86
89 88 87 87 87 85 86 88 93 95 96 97 92 90 88 82 94 95 97 95 92 82 80 78 78 76 74 77 77 79 78 78 76 75 91 89 89 85 88 80 82 92 94
81 82 80 81 81 80 89 92 94 95 90 87 84 91 85 83 85 84 82 86 77 81 71 72 69 74 76 73 79 83 74 68 55 66 70 74 77 75 75 89 96 98 97
74 73 73 74 78 86 91 92 88 88 88 91 86 83 81 79 78 76 76 90 83 82 78 74 74 76 76 76 79 83 88 83 82 81 81 76 74 77 76 90 86 97 95
69 68 70 76 80 82 89 91 92 88 75 87 83 83 81 82 79 73 72 82 89 87 83 84 83 71 68 70 76 87 89 84 87 90 87 78 71 72 76 91 90 92 95
70 72 76 78 74 79 83 74 69 77 86 84 82 89 92 87 75 71 68 68 69 85 81 84 83 69 72 77 81 79 78 83 89 84 88 90 87 83 80 78 90 93 86
73 75 71 63 56 56 62 67 66 72 80 84 85 88 94 92 89 74 69 67 68 86 83 74 72 75 76 84 71 68 80 88 87 89 88 86 87 77 75 89 98 86 89
63 61 59 53 49 48 57 66 73 82 86 85 88 92 93 91 91 87 82 92 74 78 82 82 85 84 90 86 80 75 81 84 88 87 92 88 83 91 95 92 96 98 97
58 50 54 56 58 63 74 73 72 83 86 86 92 86 94 98 83 76 75 79 93 81 90 92 89 91 81 81 79 77 78 79 85 85 89 91 86 95 94 93 98 98 98
56 63 75 75 74 56 62 70 71 75 72 70 71 84 86 74 62 63 66 66 65 68 92 98 97 97 95 85 88 84 80 80 83 85 85 88 92 93 96 99 99 98 96
69 66 71 70 68 73 77 76 83 80 71 68 66 63 65 66 61 64 63 65 64 70 94 96 97 97 99 88 86 87 87 84 83 86 87 91 94 90 97 98 98 93 97
70 80 79 84 84 82 81 85 86 89 94 93 74 68 62 63 61 60 63 65 89 81 91 97 97 97 97 93 88 89 88 87 86 87 88 89 94 93 93 98 95 96 98
77 82 86 87 88 91 93 92 87 85 87 87 86 84 76 65 62 58 65 96 97 95 94 93 97 96 98 95 98 97 97 92 90 92 88 89 91 93 92 91 98 98 99
88 95 94 93 93 91 89 87 84 84 85 88 90 92 88 86 95 95 96 98 97 98 97 96 97 98 96 97 99 99 94 88 89 88 89 91 90 94 94 94 93 97 97
94 93 95 92 92 89 91 88 84 88 90 90 95 95 86 91 94 96 98 97 98 98 99 99 99 98 98 97 92 96 92 91 93 91 92 90 90 94 93 93 93 92 96
95 94 91 90 86 93 87 80 90 88 89 90 94 93 91 97 98 98 97 98 99 98 99 99 99 98 98 95 90 91 94 94 96 92 91 88 89 91 93 93 93 92 93
93 93 85 83 86 84 92 93 94 95 95 96 95 96 96 98 99 97 98 99 99 99 99 98 100 99 97 95 96 94 95 91 89 90 92 92 93 91 93 93 92 92 94
91 92 84 90 94 91 96 97 94 95 96 98 97 98 99 98 98 97 99 98 99 100 100 100 97 92 92 94 91 88 87 87 89 93 96 93 86 85 92 92 92 93 94
93 94 94 94 95 98 98 98 97 97 97 97 98 99 96 98 97 98 98 100 97 100 98 95 97 94 90 89 88 88 89 91 93 88 91 93 94 93 93 93 94 92 93
91 91 94 96 97 98 98 99 98 97 98 98 98 98 99 98 98 100 98 98 95 92 95 91 90 91 90 88 86 87 86 88 90 91 93 94 94 93 93 94 94 94 93

GFSGL_sfc_rhum_072.txt.gz
RH
56 58 59 63 64 82 91 97 98 98 98 98 98 97 97 98 98 97 97 98 97 97 94 89 88 87 89 89 89 88 85 91 93 86 82 72 69 65 60 74 81 82 81
85 89 91 90 91 92 93 98 97 98 98 98 97 98 98 97 97 97 98 95 94 94 90 91 89 79 86 88 93 93 95 94 93 86 85 81 76 71 71 69 57 54 63
94 96 97 97 96 98 98 97 95 92 96 98 98 98 98 97 98 96 94 93 90 88 89 87 86 89 92 93 96 95 86 75 81 85 78 87 86 83 80 77 72 68 57
78 98 99 99 98 98 98 99 99 98 98 98 98 98 98 97 95 93 91 91 90 88 88 89 91 92 94 92 88 86 84 93 92 93 87 88 93 83 76 74 76 77 66
98 98 99 99 99 98 98 98 99 98 98 98 98 98 96 94 92 93 91 90 89 92 93 87 85 87 89 90 83 92 91 92 94 96 95 93 94 92 88 82 82 79 84
98 98 98 98 98 98 98 98 98 98 98 97 98 97 97 92 97 94 90 91 90 86 86 87 91 80 81 79 79 77 79 87 90 96 94 92 88 90 92 84 86 90 88
97 96 96 96 97 97 94 95 96 97 97 98 97 95 95 94 95 95 94 90 90 92 91 84 69 60 80 79 78 75 76 74 90 92 95 93 93 93 93 91 94 96 95
94 93 93 93 94 92 91 93 96 96 97 97 96 93 91 87 96 96 99 95 91 87 82 78 77 77 84 78 82 84 80 77 72 65 80 79 79 77 88 82 84 84 87
91 90 88 88 89 89 94 97 96 96 95 92 88 89 88 91 96 98 89 87 82 77 71 74 77 79 72 70 80 87 86 84 70 72 74 76 80 81 79 84 88 92 89
87 84 82 82 84 91 93 93 96 94 87 82 91 82 79 84 87 83 80 86 80 78 75 72 71 73 70 70 86 93 95 88 88 82 74 72 72 78 83 90 86 96 88
79 78 80 83 90 92 93 94 94 96 93 94 91 84 85 84 81 73 70 80 85 83 80 82 82 70 69 75 78 92 85 77 83 85 78 80 80 81 82 81 78 91 92
78 83 85 86 83 87 93 96 88 84 88 92 92 95 91 86 77 72 70 73 72 83 79 85 85 70 74 76 76 67 66 85 86 89 86 79 85 85 80 79 78 83 86
83 88 89 88 86 83 87 88 87 85 84 91 92 94 94 88 87 71 69 69 71 83 82 74 71 74 77 84 66 65 81 88 90 90 85 80 83 82 79 81 84 86 97
77 71 69 64 69 72 70 74 80 86 89 87 90 93 94 88 86 85 79 86 70 74 82 82 87 88 90 86 82 77 82 86 88 90 88 83 81 82 86 81 94 92 97
55 55 63 70 73 71 68 71 82 89 88 86 92 88 95 96 83 75 74 78 90 84 90 90 91 82 80 79 82 79 80 80 85 86 89 87 85 85 86 82 84 93 98
56 62 72 72 74 65 60 73 78 76 75 75 75 85 85 80 66 64 63 63 62 69 88 94 94 96 95 86 88 85 83 84 81 84 88 86 88 89 88 84 85 98 97
66 67 73 75 75 75 81 83 87 82 74 70 71 80 75 65 65 65 61 63 62 69 94 94 97 97 97 87 88 88 91 89 88 86 90 90 90 88 88 90 92 95 98
83 88 86 88 89 91 91 91 90 92 96 95 83 66 66 71 76 70 66 71 86 80 85 92 95 95 94 92 91 91 90 96 95 87 92 91 92 91 91 88 91 94 95
88 91 92 94 94 95 95 96 95 95 92 92 90 84 78 73 66 61 71 93 93 93 88 86 95 96 95 92 99 98 100 100 96 94 97 93 96 91 90 87 92 93 93
93 96 95 95 96 95 96 96 95 95 95 95 95 94 89 83 92 94 96 97 97 94 93 91 94 96 98 98 99 100 98 95 94 94 98 96 97 92 93 92 93 94 90
95 95 96 94 95 95 95 95 95 96 96 96 95 94 86 90 94 96 98 98 97 95 98 96 99 98 98 99 98 99 95 99 95 94 95 92 93 96 91 91 92 93 92
93 93 93 94 93 95 94 93 96 95 94 94 95 93 91 97 97 96 96 97 98 97 97 99 99 98 99 99 92 100 98 97 97 92 93 93 93 93 93 90 90 94 93
94 95 94 92 94 92 94 93 93 96 96 96 95 95 96 98 98 97 97 98 98 99 97 97 100 97 95 97 98 98 96 92 92 93 94 94 94 94 92 93 91 94 94
89 91 86 91 94 94 97 97 97 95 97 98 99 98 98 98 99 99 98 98 98 99 100 100 98 96 91 97 99 95 90 92 92 94 95 95 93 90 93 93 91 93 94
93 94 95 97 97 98 98 98 98 98 99 98 98 98 98 98 98 100 97 98 100 100 96 97 97 96 96 94 93 92 93 95 93 91 92 92 93 93 94 94 92 92 94
91 93 96 95 95 96 96 96 97 98 99 99 100 100 100 100 99 100 100 99 99 98 97 97 97 94 94 92 89 91 89 88 91 91 93 92 93 91 92 94 92 94 92

GFSGL_sfc_rhum_075.txt.gz
RH
63 66 73 77 78 86 88 93 95 98 98 98 97 97 99 99 98 98 98 98 98 99 98 96 93 88 90 90 89 89 91 90 96 86 86 81 77 73 65 72 78 88 92
77 80 77 74 72 79 90 95 96 95 96 96 97 95 98 98 98 98 98 98 98 99 97 94 90 83 90 91 93 93 94 93 96 98 94 86 82 77 78 78 64 59 77
77 73 74 79 79 82 93 95 96 95 95 95 95 98 98 98 98 98 97 98 97 95 92 91 90 88 91 94 94 96 94 85 92 94 86 85 92 90 87 84 81 81 67
76 78 80 80 91 92 92 94 94 95 95 97 97 98 98 98 98 98 97 97 94 92 90 88 87 90 92 94 93 93 89 92 92 96 96 96 95 92 93 93 86 90 82
81 82 91 99 99 99 98 96 98 98 98 98 98 99 99 98 98 98 95 95 93 93 92 91 93 92 91 88 86 80 82 90 92 92 93 94 94 95 94 93 91 87 84
97 98 99 99 99 99 99 99 99 99 99 98 99 98 99 98 99 98 94 94 92 93 95 91 82 80 80 80 78 75 78 86 87 94 94 90 88 93 95 97 97 92 79
98 98 98 98 98 98 98 98 99 99 98 99 99 98 98 98 98 96 95 90 91 92 88 78 62 64 80 80 74 70 68 64 85 88 92 93 93 91 92 94 92 89 85
97 98 98 98 97 96 96 97 98 98 98 98 98 97 96 94 98 97 95 88 83 78 75 72 69 82 80 77 79 79 80 81 78 75 87 88 89 87 90 86 88 88 85
96 96 94 93 95 94 98 98 98 98 98 96 93 93 94 97 99 96 85 79 70 68 73 75 75 78 69 68 78 88 90 86 74 73 70 70 71 75 74 85 89 91 89
93 91 89 90 92 96 97 98 96 93 92 90 85 87 94 97 95 88 79 78 77 77 71 68 70 71 68 70 89 94 94 85 86 85 83 78 72 78 78 85 92 95 91
86 86 88 89 92 92 93 94 92 90 92 90 89 86 84 82 80 75 71 79 81 78 74 76 77 68 70 75 76 84 77 81 84 83 84 85 80 78 78 78 80 89 95
83 87 89 90 88 90 93 94 90 90 93 91 90 90 87 81 78 75 71 70 68 80 70 73 77 69 72 69 74 64 67 84 90 92 88 84 82 82 79 78 80 81 82
86 90 92 92 92 96 93 91 90 89 94 91 87 91 92 87 84 72 71 70 69 74 78 72 68 72 73 77 63 65 79 87 92 94 91 86 83 78 75 80 79 78 76
91 83 76 78 76 75 76 81 83 88 91 88 91 93 91 83 82 79 77 80 69 73 80 78 85 86 83 82 78 73 78 85 88 89 88 85 78 80 83 81 88 85 88
69 69 74 74 70 70 73 75 81 86 85 88 90 88 95 94 81 78 80 84 90 83 90 89 86 80 78 77 78 75 76 77 82 85 88 87 84 82 85 82 84 86 92
69 72 77 71 67 62 65 74 77 78 79 80 82 88 86 78 79 73 62 62 62 66 88 94 96 95 90 80 82 80 77 78 75 79 85 83 88 88 89 85 85 89 91
74 73 74 71 73 77 78 84 92 91 82 84 85 84 84 72 68 64 62 63 61 72 94 95 97 98 95 82 82 81 86 84 84 87 87 90 92 90 91 89 88 88 87
86 89 88 90 91 92 92 91 90 93 97 97 88 77 74 82 90 92 92 93 95 86 90 94 94 94 89 84 82 82 83 91 94 88 91 96 98 94 93 89 89 93 89
91 94 95 96 96 95 96 96 96 96 96 96 96 96 96 93 92 92 92 96 96 94 89 86 94 90 86 83 93 96 99 99 98 100 98 98 99 98 93 91 91 90 88
94 96 95 95 95 95 95 96 95 95 95 96 96 96 95 94 97 97 97 98 97 93 92 87 88 88 93 93 98 100 100 100 100 100 100 100 100 100 96 95 93 93 87
94 93 94 91 92 92 94 94 94 95 96 95 96 97 95 97 97 97 96 97 97 96 97 93 96 97 96 98 94 98 98 100 98 98 97 94 97 99 94 94 93 88 87
93 92 91 92 90 94 95 93 95 95 94 95 96 95 95 97 97 98 97 97 98 97 96 97 97 97 96 93 94 100 100 100 100 99 98 95 93 94 94 95 94 93 90
90 91 90 91 92 94 95 94 96 97 97 98 98 97 97 99 98 97 97 98 97 98 97 98 99 94 91 96 98 98 100 96 94 95 96 94 93 93 95 94 94 94 92
89 91 90 94 95 96 97 97 98 97 98 99 99 99 98 99 99 99 99 99 99 100 99 99 97 94 93 97 99 99 95 96 95 94 96 95 93 90 92 92 92 94 93
93 94 94 96 96 97 97 97 98 98 100 100 100 100 100 100 100 100 100 100 100 100 97 96 97 97 97 98 96 95 96 97 95 92 94 94 93 93 93 92 92 94 92
91 93 96 96 97 97 99 100 100 100 100 100 100 100 100 100 100 100 100 100 100 98 97 97 97 96 95 94 91 95 93 92 91 92 95 94 94 93 92 93 92 94 92

GFSGL_sfc_rhum_078.txt.gz
RH
64 66 78 87 88 89 86 83 82 84 87 88 88 93 96 98 98 98 98 99 98 98 99 98 98 96 96 92 91 89 89 89 95 88 78 78 78 77 71 72 72 75 76
75 73 77 77 78 79 78 74 76 84 88 89 94 94 94 97 98 98 98 98 98 98 98 99 98 92 93 91 92 92 93 93 94 97 89 84 83 79 78 80 68 61 71
75 76 76 76 73 74 77 78 87 87 91 93 92 95 96 98 98 98 98 98 98 97 98 98 97 94 96 95 93 94 96 87 94 96 92 83 81 85 84 82 80 81 70
74 76 77 82 80 81 91 94 92 91 93 94 95 98 99 99 99 99 99 99 99 98 97 97 93 90 91 92 93 95 92 94 91 92 90 88 91 86 88 88 74 76 77
80 81 79 80 82 88 95 96 96 96 95 96 99 99 99 99 99 99 99 98 98 98 97 95 95 94 93 91 91 83 82 84 79 80 83 89 83 84 78 82 81 79 80
84 84 82 89 97 98 100 100 100 99 99 99 99 99 99 99 100 100 98 98 97 96 97 92 88 85 84 82 78 78 74 72 73 80 82 73 69 78 85 86 88 85 78
88 94 98 98 99 99 99 99 99 99 99 99 99 99 99 99 100 99 98 95 96 95 89 78 72 75 81 74 72 68 64 65 81 76 77 79 84 80 84 89 88 88 83
98 98 98 99 99 99 99 99 99 99 99 99 99 99 98 97 99 98 95 88 88 85 82 75 77 73 73 68 64 64 75 74 74 73 82 83 86 84 86 75 81 85 80
98 98 98 98 98 98 99 99 99 98 98 98 97 96 97 98 96 91 82 76 75 74 68 67 65 67 69 68 73 81 78 75 67 66 67 67 67 70 70 81 89 89 88
97 97 95 96 97 98 98 98 98 96 96 92 95 97 98 97 93 88 77 76 75 70 62 63 71 68 70 76 87 82 81 75 74 70 65 68 72 75 77 81 86 94 89
91 92 93 94 95 95 96 96 95 93 92 94 94 91 89 89 89 82 76 76 75 72 63 66 72 70 74 75 74 74 74 72 68 68 68 68 67 65 63 66 70 80 89
90 93 93 93 92 93 95 95 93 91 93 93 93 92 88 84 80 75 71 70 68 75 71 69 74 71 76 70 70 67 73 74 79 80 79 75 73 71 66 67 69 75 76
92 95 95 94 94 92 92 94 94 91 91 92 88 91 88 81 79 74 69 67 71 78 79 78 74 74 73 73 65 68 78 79 83 87 83 76 73 68 63 70 69 72 76
89 89 88 87 86 83 84 86 91 93 92 89 88 86 84 76 80 78 79 83 77 80 87 81 83 85 83 78 76 72 76 77 80 82 80 75 71 73 74 70 84 81 85
83 82 85 82 81 81 81 81 86 89 89 89 90 89 96 96 89 83 82 86 90 85 93 92 86 80 78 76 76 71 73 73 78 79 82 79 76 76 77 73 77 82 90
84 82 82 78 76 71 78 90 94 96 97 97 96 96 96 89 79 68 65 64 66 77 88 92 94 92 87 80 83 80 77 77 72 75 79 75 78 82 82 79 78 85 90
81 85 89 90 93 94 94 94 94 94 83 79 80 80 80 74 68 70 80 85 78 76 92 93 95 94 91 84 84 83 85 79 77 80 84 85 86 84 89 85 84 83 86
86 88 84 85 89 95 96 95 93 94 96 96 94 92 94 93 93 93 92 92 94 92 93 93 94 93 92 91 91 87 78 83 86 84 85 89 94 93 91 87 85 93 90
91 94 95 95 95 95 94 95 95 94 95 96 95 95 94 89 90 90 90 95 95 94 94 93 95 93 92 87 89 92 95 94 93 95 94 94 97 96 94 88 88 91 90
94 95 94 94 94 93 93 93 93 94 94 95 94 95 94 93 96 97 96 97 96 94 93 90 90 90 93 90 96 97 97 95 94 94 97 98 99 98 97 95 94 94 85
94 93 94 90 91 92 93 94 93 94 94 94 96 96 95 95 96 96 95 97 96 93 96 92 93 94 94 95 90 93 94 97 95 95 95 95 100 99 93 93 93 89 86
93 92 89 91 90 93 93 92 95 94 93 94 96 95 93 98 98 99 98 99 98 96 95 97 96 93 91 89 90 97 99 100 98 96 97 96 94 93 93 94 93 94 90
90 91 90 90 90 92 95 94 96 97 98 100 99 98 99 100 100 100 100 100 99 100 99 97 100 94 90 95 96 97 100 96 94 96 96 95 94 93 94 93 92 92 92
90 91 88 94 94 94 96 98 98 98 98 100 100 100 100 100 100 100 100 100 100 99 99 99 97 95 93 95 97 96 94 96 94 94 96 95 93 91 92 92 90 92 93
91 93 94 95 96 98 98 100 100 100 100 100 100 100 100 100 99 100 100 100 99 100 98 97 97 94 95 96 95 93 94 96 96 94 94 94 95 95 94 92 92 91 92
90 92 95 96 98 99 100 100 100 100 100 100 100 100 100 100 99 100 99 99 99 97 96 94 93 93 92 90 89 94 92 93 93 92 95 94 95 94 93 93 92 93 90

GFSGL_sfc_rhum_081.txt.gz
RH
68 69 71 70 70 73 75 73 73 72 70 72 72 72 74 77 83 91 93 97 97 97 98 98 98 96 97 98 97 96 89 79 82 74 58 71 76 67 55 55 55 56 53
71 72 74 74 72 73 74 71 71 69 69 71 71 73 71 80 89 97 97 98 98 98 98 99 97 97 98 98 97 93 88 81 86 87 85 82 76 68 63 65 54 45 51
70 75 76 76 75 75 72 71 68 70 70 74 74 75 75 79 84 96 96 97 98 98 96 97 96 97 98 97 96 89 92 87 90 90 89 77 73 65 62 60 56 53 44
62 66 73 74 69 70 69 73 70 68 71 73 80 82 82 82 90 94 96 97 96 97 97 96 94 94 96 95 93 94 89 90 90 89 87 84 74 61 57 55 47 41 40
64 65 67 69 68 64 66 75 76 79 75 75 78 83 87 96 98 98 98 98 98 98 98 96 95 92 94 93 89 91 91 90 86 81 77 66 62 52 47 39 46 45 47
64 67 65 64 65 69 72 82 89 87 84 83 89 95 99 99 100 100 99 98 97 98 97 94 93 91 90 91 87 84 80 76 73 71 62 59 49 40 45 50 51 50 42
66 65 67 68 67 71 80 96 97 97 99 99 99 99 99 99 100 100 100 96 96 94 92 89 83 83 79 74 76 72 68 68 77 55 51 45 48 48 58 57 55 56 54
69 70 74 80 87 98 98 98 99 99 99 99 99 99 98 97 100 98 96 91 90 88 88 87 87 81 79 70 60 60 60 62 61 57 59 55 59 58 61 58 61 61 55
86 94 96 96 97 97 98 99 98 98 98 98 97 97 97 97 95 92 87 84 81 78 74 72 68 70 82 63 58 63 60 65 64 64 64 62 63 68 68 61 66 63 70
96 96 95 95 97 98 98 97 96 95 95 94 97 96 96 96 92 87 80 80 80 76 67 71 72 62 76 77 70 63 59 55 55 48 47 47 54 56 68 59 60 71 60
92 92 94 93 94 94 96 94 92 93 94 96 96 94 92 91 90 84 78 74 75 70 59 59 66 78 77 75 66 61 65 54 56 53 50 48 51 50 47 48 47 55 65
90 92 93 93 92 92 93 92 91 92 94 95 95 94 90 85 81 77 74 72 67 70 60 60 69 74 75 69 64 73 70 64 65 63 62 58 56 55 50 47 48 52 51
92 95 95 93 91 89 92 94 94 91 93 93 91 92 90 84 79 74 72 74 75 73 68 71 73 74 70 67 69 69 69 68 72 74 69 61 54 50 47 55 54 52 54
92 91 90 90 89 88 89 90 90 92 92 90 88 86 82 75 75 80 91 89 76 68 75 70 79 76 71 69 66 64 66 68 69 69 67 58 55 58 59 56 64 62 63
86 85 84 83 84 89 90 87 91 92 87 88 90 89 94 94 90 90 86 82 80 78 79 75 70 66 65 63 64 63 63 62 67 68 71 69 64 60 62 60 63 64 71
80 80 81 81 83 80 81 88 97 97 97 95 96 90 93 91 86 70 67 68 72 70 70 76 82 81 74 68 71 71 68 71 68 69 70 66 67 67 66 65 66 69 71
84 86 86 86 86 88 87 85 91 93 83 83 84 82 75 71 76 80 81 80 79 72 78 78 84 85 81 70 70 71 74 72 75 71 71 71 73 70 74 70 70 69 68
92 94 92 91 93 95 94 93 83 85 90 91 85 81 83 83 81 80 78 69 74 71 71 76 80 79 76 74 73 73 70 70 71 70 72 74 78 76 77 72 69 76 71
93 94 95 95 95 94 90 86 83 82 84 85 83 82 83 81 80 78 77 79 78 75 74 71 76 74 73 72 79 80 82 81 81 83 78 77 82 77 77 72 72 76 77
93 95 93 91 90 87 84 82 81 82 82 83 82 84 78 74 85 87 86 87 83 77 77 71 71 73 78 77 82 83 82 80 78 76 79 81 82 81 81 79 79 80 71
92 91 90 83 81 81 82 81 80 81 82 83 87 88 86 79 83 83 81 84 81 78 81 75 77 78 76 76 72 78 77 82 76 76 77 77 83 85 77 79 80 75 72
88 84 80 83 81 84 81 78 81 79 78 80 83 82 84 83 80 80 80 85 85 79 78 79 78 74 73 74 76 81 80 82 81 78 80 81 80 80 80 81 81 81 77
86 84 79 78 79 82 84 79 84 85 84 84 80 80 82 87 87 82 85 87 81 81 79 78 81 77 73 77 77 78 81 79 78 82 85 84 80 81 84 84 81 83 81
80 82 78 84 85 84 88 90 87 85 84 88 89 88 88 88 88 86 86 85 83 83 83 82 79 78 76 79 78 75 72 78 80 81 84 86 83 79 83 82 81 84 84
84 85 86 85 85 87 87 85 87 89 89 89 89 87 80 82 79 84 85 84 84 83 80 81 80 78 77 79 81 81 81 85 86 86 86 85 86 86 86 85 85 84 83
79 80 83 83 85 85 86 88 89 88 88 86 85 84 84 82 80 85 84 82 81 80 80 79 79 78 80 77 75 81 84 86 88 88 89 86 87 86 85 87 85 85 83

GFSGL_sfc_rhum_084.txt.gz
RH
55 59 62 62 60 60 62 61 61 62 59 58 58 57 57 56 55 60 64 66 68 70 78 86 83 90 98 98 96 97 97 97 96 92 79 61 61 52 49 65 55 50 46
56 58 62 62 61 63 64 64 65 63 60 56 55 54 53 52 54 57 61 67 75 81 91 95 97 98 98 97 96 98 97 93 94 95 89 83 79 71 73 65 52 39 42
55 61 63 65 64 68 68 65 61 60 56 54 52 55 54 55 53 57 60 69 75 89 86 96 95 97 97 95 94 94 93 90 91 95 96 90 82 77 76 64 59 52 41
52 56 63 64 64 64 62 63 60 56 54 52 53 55 56 52 51 56 64 78 85 87 92 93 95 97 97 97 98 94 94 94 97 96 95 93 87 73 68 62 55 45 38
53 54 58 61 59 58 59 61 60 58 54 53 55 56 59 63 63 66 71 84 85 92 97 94 97 95 97 94 92 95 95 97 96 96 93 89 84 78 70 49 41 37 32
52 53 50 52 53 54 54 55 58 61 58 60 64 64 67 66 95 100 96 96 99 99 99 98 96 94 95 95 93 92 90 90 88 86 89 96 83 62 46 41 37 36 36
52 50 50 50 50 51 50 50 54 67 71 74 72 72 83 96 100 100 100 98 98 97 96 94 88 85 83 77 81 78 78 79 85 79 90 70 53 43 40 42 40 40 42
49 48 49 51 52 49 49 51 65 77 89 96 98 98 98 97 100 98 96 91 92 92 91 90 89 85 83 75 69 69 63 60 59 53 54 46 45 43 45 43 46 48 47
49 49 48 52 54 60 75 88 91 96 97 97 96 96 96 97 96 93 88 88 89 88 84 84 84 87 91 67 61 66 60 64 66 65 62 60 59 63 63 49 57 55 65
52 52 63 73 81 86 95 96 96 95 96 94 95 94 95 95 93 90 83 83 85 86 86 82 75 74 78 72 62 56 51 47 47 42 43 49 56 49 68 56 44 58 52
75 78 84 87 92 94 95 94 93 93 94 96 96 94 93 92 92 87 84 79 78 74 65 66 71 81 76 69 64 53 55 48 60 43 39 36 37 39 39 38 40 44 52
88 91 92 93 93 90 93 93 92 92 95 95 95 94 90 86 84 80 76 74 68 66 58 60 70 76 72 67 64 76 72 68 61 58 54 48 45 46 42 42 40 41 41
93 94 93 91 90 88 91 92 92 90 93 93 91 93 90 83 81 78 74 74 77 71 67 72 75 76 71 70 73 68 71 61 68 71 64 55 49 44 41 47 48 46 47
92 91 89 89 89 86 86 87 90 92 92 89 88 88 84 76 82 88 93 94 93 82 77 68 74 75 75 68 64 62 59 63 66 64 60 51 49 56 58 53 60 57 57
85 84 86 87 88 91 92 89 93 93 87 87 87 87 94 95 94 95 91 88 86 80 74 68 62 57 57 56 59 58 58 59 66 70 71 71 66 64 65 58 58 58 65
81 84 87 85 84 81 82 89 96 97 97 96 97 90 93 86 76 71 72 72 70 68 69 76 82 81 74 65 67 66 64 67 64 65 69 67 68 69 63 59 58 61 63
82 84 86 86 88 91 90 88 92 96 95 93 84 78 78 80 79 78 78 76 72 65 72 73 82 81 74 63 64 66 69 68 68 65 67 68 70 68 70 66 64 62 61
96 96 95 96 96 96 93 93 92 90 93 93 91 84 83 79 77 72 67 61 66 65 65 70 76 74 70 68 66 67 68 72 72 72 73 76 79 76 76 70 65 70 65
94 95 96 96 95 95 93 94 91 84 81 82 78 76 75 75 73 71 68 73 72 69 64 62 69 67 67 64 74 78 79 79 78 80 77 76 82 76 72 66 66 68 70
94 96 95 94 93 89 84 83 82 81 79 79 78 78 69 69 81 82 79 81 77 68 69 60 59 61 68 67 74 75 75 73 72 71 75 77 78 76 76 75 75 76 67
93 93 93 84 80 82 87 86 83 79 79 78 82 81 74 72 76 76 72 75 71 67 71 65 67 69 67 68 63 70 70 76 70 70 71 70 76 78 71 74 76 73 70
87 85 83 84 81 81 75 72 74 72 70 73 76 74 68 75 70 69 68 76 78 70 68 70 70 67 66 67 70 77 75 76 74 71 73 71 72 74 76 76 77 77 74
80 76 70 68 71 74 77 71 76 76 74 73 68 69 70 76 76 70 74 78 72 74 72 72 76 71 68 71 72 72 74 73 72 75 79 80 76 76 79 79 76 77 76
72 75 69 76 78 74 79 82 79 72 72 76 78 77 76 76 78 76 77 78 76 77 76 76 73 71 70 75 74 71 66 70 73 76 79 82 79 74 78 77 75 78 79
76 78 79 78 78 80 80 77 79 78 78 78 79 78 71 75 71 77 78 76 76 78 75 75 75 72 71 73 76 75 76 78 80 81 82 82 82 81 80 79 80 77 77
70 71 75 76 78 79 79 80 80 78 79 79 79 80 78 76 73 78 76 75 75 76 75 74 73 72 74 73 71 74 79 82 85 83 86 83 84 82 81 82 79 80 77

GFSGL_sfc_rhum_087.txt.gz
RH
68 70 72 71 68 67 67 66 63 62 54 54 53 58 61 61 61 64 66 63 64 67 69 72 72 72 81 84 95 96 96 96 98 93 90 91 86 80 68 64 66 65 55
58 64 69 72 70 68 66 64 65 62 58 56 56 56 57 56 57 59 62 58 61 64 65 70 75 75 83 92 96 98 98 96 96 94 93 93 87 83 86 82 64 51 58
48 57 64 67 65 66 65 64 61 60 58 57 55 57 56 57 55 56 56 58 60 61 64 68 75 86 92 95 98 98 98 98 98 99 99 97 97 96 92 85 83 80 58
45 49 58 61 62 62 61 64 65 63 60 58 57 56 58 52 49 50 49 55 59 61 69 81 82 88 91 94 98 98 99 99 99 98 98 98 97 94 93 92 92 80 68
45 48 54 58 56 56 60 61 64 67 62 58 58 56 54 53 50 55 52 56 58 68 82 91 95 97 99 98 98 99 99 99 99 99 98 96 97 96 94 86 88 79 58
47 50 49 53 52 57 59 60 62 62 58 56 55 55 57 52 74 87 85 72 87 93 99 98 98 97 98 97 97 98 96 98 97 96 94 93 94 94 89 88 82 64 54
48 46 47 49 52 54 53 53 56 62 63 63 60 58 60 67 100 100 100 99 99 98 98 96 92 90 91 88 93 92 93 93 94 93 96 97 96 84 73 65 58 52 49
45 45 45 47 48 48 49 50 55 59 66 72 80 84 91 94 100 99 97 92 94 94 94 93 93 93 92 85 80 78 76 76 75 64 70 66 61 60 53 46 49 53 52
44 44 43 46 46 47 49 52 55 72 93 94 95 95 97 97 96 94 90 90 91 93 92 92 91 94 94 79 75 85 80 72 75 67 61 57 56 58 60 52 64 63 72
43 40 40 44 47 50 54 84 88 90 94 93 95 94 96 95 94 91 86 88 92 92 88 92 95 89 86 76 76 70 67 65 54 46 50 52 54 51 66 59 49 62 55
41 42 46 49 58 85 90 91 92 94 96 97 97 95 94 92 91 86 84 84 86 84 85 88 91 83 72 71 75 77 77 54 58 46 42 38 36 38 38 43 41 47 59
82 86 90 90 88 88 91 92 93 96 97 96 95 95 92 89 86 84 81 77 73 72 70 77 82 72 69 71 72 72 69 69 63 64 61 56 51 48 45 45 47 47 46
91 92 92 90 90 90 94 96 95 92 94 94 91 93 91 87 87 82 80 82 81 79 78 80 78 73 75 73 74 65 71 63 68 71 66 57 50 46 44 50 53 51 53
91 91 90 91 92 91 89 89 91 93 92 90 88 88 86 88 91 90 92 91 85 83 86 85 83 79 79 72 66 63 61 64 65 68 70 63 56 60 62 60 70 67 66
90 90 92 92 93 94 94 93 94 95 89 89 89 89 94 96 98 98 96 94 88 83 76 72 67 63 67 65 66 69 65 66 68 73 74 67 64 61 64 63 65 68 74
90 90 91 90 89 86 86 92 96 95 96 96 96 94 96 96 95 87 77 72 71 75 73 80 87 82 77 65 69 68 66 69 72 62 66 64 68 72 74 68 66 72 79
93 93 91 86 85 85 84 85 92 97 96 96 96 95 95 95 87 75 69 67 66 66 75 79 84 85 74 63 67 68 73 72 67 67 69 72 72 70 76 76 77 78 78
96 96 96 97 96 96 95 95 94 93 93 94 93 89 84 75 71 70 68 73 70 63 64 73 75 74 66 63 60 62 61 64 65 67 68 73 76 75 77 74 73 81 77
95 96 97 97 96 95 94 94 93 92 92 92 91 85 78 73 70 70 69 75 73 69 62 60 63 59 59 58 68 70 72 72 72 73 71 71 79 73 74 72 71 75 77
95 96 95 95 96 95 93 93 93 91 90 91 91 92 81 73 84 83 78 78 73 65 64 56 56 60 66 65 70 72 72 70 70 68 74 75 76 76 76 75 75 78 71
92 93 95 93 92 86 86 86 86 87 87 82 81 79 70 72 73 72 70 74 71 68 72 65 67 68 65 66 61 70 69 75 69 69 71 72 77 77 70 74 78 75 71
85 85 85 88 87 90 85 78 75 72 70 72 73 69 65 74 69 69 69 76 77 69 67 69 69 67 65 67 69 75 73 75 73 72 74 72 72 73 74 76 78 82 79
79 79 75 72 72 73 77 69 73 73 72 71 67 69 70 76 75 70 74 77 72 73 72 70 74 70 67 71 72 71 74 72 71 75 80 80 76 76 81 81 80 84 82
68 71 66 73 75 72 77 79 76 69 71 75 77 76 74 75 77 74 77 77 74 75 75 75 72 69 68 73 72 70 66 71 74 76 80 83 80 76 79 78 79 81 83
73 75 76 76 76 78 78 75 76 76 76 77 78 76 69 72 69 75 75 74 73 76 73 73 73 68 68 71 73 73 74 76 78 79 81 82 83 83 83 83 84 82 81
68 70 73 74 77 77 77 78 78 77 77 77 76 76 74 72 70 75 73 71 74 74 72 71 70 68 71 70 68 71 77 79 82 81 84 83 85 83 83 84 82 86 83

GFSGL_sfc_rhum_093.txt.gz
RH
80 82 82 79 74 73 72 67 72 76 73 73 76 76 76 77 80 84 88 90 89 89 93 96 92 94 92 95 94 94 95 96 95 87 94 95 97 96 93 95 93 86 82
79 80 83 85 81 77 74 72 70 74 74 68 68 71 74 70 72 78 84 81 89 89 91 97 92 93 96 94 95 93 94 93 94 92 95 98 98 97 96 96 92 81 82
74 81 82 85 86 83 81 77 70 72 72 69 64 68 67 71 73 76 78 82 91 91 89 93 89 92 91 92 96 95 96 97 98 98 95 99 99 98 96 96 94 89 81
78 80 82 82 82 83 81 79 81 77 73 70 65 66 66 63 66 77 76 80 83 86 88 90 88 90 89 91 94 95 96 98 99 99 100 99 99 99 98 98 98 98 96
78 80 80 73 73 77 81 81 79 80 77 75 71 68 64 62 59 73 74 81 86 87 89 94 98 98 99 99 98 98 99 99 100 100 99 99 99 99 99 99 98 98 96
76 80 77 79 78 83 85 84 84 82 80 75 77 73 70 62 70 77 74 82 89 88 98 99 98 97 98 98 97 98 100 99 99 99 99 99 99 99 99 99 99 99 99
67 76 77 78 80 80 81 81 86 88 84 80 76 77 78 73 86 84 90 89 96 99 99 99 97 95 96 95 96 95 97 97 98 95 98 99 99 99 100 100 99 99 99
65 63 68 77 80 78 79 80 79 80 85 88 84 81 89 99 100 100 99 98 98 98 98 96 97 98 96 96 95 95 96 96 95 94 97 100 99 99 89 74 73 75 70
64 63 63 69 74 78 81 81 82 85 86 95 97 99 98 99 99 98 97 98 98 98 97 96 96 98 98 90 88 91 87 91 87 86 85 74 63 57 53 72 77 82 92
65 61 70 77 72 76 80 90 98 98 98 97 98 98 98 98 97 96 94 95 97 96 94 96 96 94 93 87 86 82 82 75 77 76 71 63 63 66 79 79 84 85 86
88 82 85 82 79 84 97 95 96 98 97 98 97 98 98 96 97 93 91 91 91 91 93 95 96 94 87 82 83 90 93 86 86 81 73 72 71 70 71 71 73 77 80
93 95 96 97 96 95 97 98 98 97 97 98 97 97 97 98 95 93 91 92 89 88 92 92 93 83 86 87 88 89 88 88 88 88 84 77 77 77 72 75 78 81 79
93 95 95 97 98 98 97 98 97 95 96 95 93 96 97 95 96 95 94 93 90 89 92 94 95 95 93 94 94 92 90 90 91 90 85 81 77 72 68 74 73 68 69
90 92 92 93 93 92 93 94 95 97 95 94 93 94 96 95 95 94 95 95 93 94 96 97 97 97 96 96 93 84 83 84 85 86 85 77 72 74 76 71 77 75 75
86 87 92 90 90 93 94 92 93 98 97 94 96 96 94 96 98 98 96 96 97 96 97 97 96 94 91 87 88 86 80 75 82 85 86 82 78 77 79 75 76 77 84
89 89 91 88 91 90 90 93 94 95 96 94 95 94 96 95 93 95 98 97 97 96 95 94 95 95 92 86 87 85 81 81 78 77 83 82 85 86 82 79 79 85 88
94 94 94 94 94 91 90 90 93 97 97 96 94 94 95 96 95 94 94 95 94 85 91 91 93 91 89 82 84 85 89 86 81 86 90 95 91 85 87 86 88 84 83
93 93 94 96 96 96 95 96 95 94 95 96 95 95 95 93 93 93 94 88 91 85 85 88 89 88 87 86 85 85 85 88 89 90 94 97 97 92 93 92 91 98 90
92 93 94 96 96 94 93 93 93 94 94 94 94 93 94 92 90 85 79 86 86 83 82 86 88 86 85 85 91 90 93 94 95 96 95 96 100 98 98 94 94 94 94
95 96 94 92 92 93 94 93 92 93 94 94 94 95 93 84 91 92 91 91 90 88 87 85 84 86 89 91 95 96 95 96 97 98 100 100 100 99 99 98 98 96 89
92 94 93 90 91 92 92 92 92 91 92 92 93 88 83 89 93 93 93 94 93 93 94 90 92 95 94 96 92 96 98 100 99 99 99 98 100 99 96 97 97 92 88
91 93 93 94 93 93 91 85 86 84 86 88 90 89 87 91 93 93 94 96 97 94 93 94 94 96 96 97 98 100 100 100 100 100 100 99 98 98 98 95 96 95 92
93 93 91 90 90 88 89 87 90 90 91 92 92 91 91 96 95 94 96 98 96 97 98 97 99 98 98 98 99 98 99 100 100 100 100 100 98 96 100 98 94 94 93
91 90 86 88 89 89 91 93 93 92 92 94 95 96 96 96 96 97 97 97 97 100 100 99 99 95 97 99 98 97 96 100 99 100 100 100 100 96 95 94 94 95 95
88 90 90 91 92 93 92 93 94 96 96 96 96 96 96 97 97 99 99 99 98 98 99 98 99 97 96 93 94 96 96 99 99 99 100 100 100 100 98 96 95 94 93
89 90 92 92 93 94 96 98 98 97 97 96 98 98 99 99 100 97 99 98 98 98 97 98 95 90 94 97 97 97 98 100 100 99 100 100 98 96 95 95 94 95 94

GFSGL_sfc_rhum_096.txt.gz
RH
83 80 75 75 78 77 74 72 75 73 73 81 78 82 81 78 79 83 78 81 92 93 92 92 88 89 93 96 96 96 96 97 97 87 94 93 95 95 96 97 95 94 90
85 83 79 76 75 78 76 70 74 72 75 73 78 76 81 78 82 86 84 81 87 90 90 94 91 95 96 93 94 94 95 93 95 93 92 96 97 96 97 98 98 94 94
84 85 85 83 79 78 77 74 69 78 78 77 74 76 73 75 82 80 77 81 86 86 85 92 89 94 95 94 96 94 94 94 96 95 93 98 99 98 98 96 97 95 91
82 82 85 87 83 79 76 74 74 75 77 76 75 73 72 72 70 72 77 82 84 85 86 89 89 90 91 91 93 92 92 95 96 98 98 100 99 99 98 98 99 97 97
85 78 76 80 84 84 81 78 78 78 78 75 73 72 73 70 67 71 72 73 77 84 90 91 93 97 99 98 95 91 95 96 97 100 99 99 99 99 99 99 99 98 99
79 78 76 76 80 85 85 84 83 86 82 78 78 74 74 67 74 81 79 88 90 90 90 100 99 98 98 98 97 98 99 99 99 99 99 99 99 99 99 99 99 99 99
84 84 83 79 78 79 82 85 85 84 85 88 85 81 78 75 82 81 83 76 87 91 98 99 99 96 96 95 96 95 96 97 99 97 99 99 99 100 99 99 99 99 99
82 83 83 83 83 78 78 80 85 85 86 86 88 85 84 84 93 87 86 85 99 99 99 98 98 98 97 95 94 96 96 97 96 95 96 99 100 94 80 73 69 67 67
77 79 84 86 85 85 86 87 86 89 92 91 88 88 86 99 100 100 98 99 98 98 98 97 96 98 96 90 90 94 94 96 90 82 74 72 75 72 70 76 79 82 86
89 88 90 85 87 88 88 89 90 89 92 99 100 99 100 99 99 98 96 97 98 97 97 98 99 97 98 94 87 86 90 94 90 88 85 76 71 71 77 76 78 82 74
88 92 96 96 94 91 91 97 99 99 98 99 98 98 98 98 99 97 95 96 95 96 95 97 96 96 96 95 91 92 95 97 97 95 89 80 73 70 73 74 76 83 88
89 90 92 96 97 98 98 99 99 98 98 98 98 98 98 98 99 98 96 96 93 90 94 95 97 94 92 93 94 96 96 97 96 95 93 81 77 78 72 71 69 68 63
88 90 92 91 91 94 97 98 98 98 98 97 95 97 97 96 96 95 94 93 91 92 93 96 95 95 95 96 95 94 96 96 95 92 87 83 75 67 62 63 64 58 58
88 89 88 91 93 94 93 95 96 99 98 96 95 96 96 95 96 94 94 94 93 93 95 96 96 96 96 96 94 93 93 92 89 88 85 75 67 73 76 73 79 75 74
83 84 88 89 89 92 94 95 94 98 97 94 93 91 93 96 98 96 94 96 96 96 96 95 95 94 94 94 93 89 87 84 87 87 85 83 80 79 81 76 77 79 87
89 88 88 86 88 88 89 94 96 96 97 96 96 94 96 97 98 97 97 96 96 95 92 94 95 95 93 89 89 87 81 80 78 81 84 80 82 84 82 82 83 91 90
94 93 92 91 90 91 89 87 94 98 97 98 97 97 96 95 95 95 94 93 92 86 92 94 95 94 93 87 87 86 89 86 83 85 87 90 90 89 90 89 90 87 88
91 90 93 94 93 92 92 94 94 93 94 96 96 95 95 94 94 92 91 86 92 90 90 92 94 92 87 86 86 85 84 87 88 88 94 95 97 92 94 93 93 99 95
91 93 94 94 93 91 91 92 92 92 93 95 94 93 94 92 92 90 86 89 90 89 87 89 90 89 90 87 93 94 96 97 97 97 96 94 100 97 98 96 96 97 97
93 93 91 92 92 90 89 90 91 92 93 94 94 95 92 82 92 94 93 94 94 93 90 88 90 92 94 93 96 97 97 97 99 97 100 100 100 100 99 100 100 100 93
94 94 93 92 92 90 90 91 91 92 92 92 95 92 86 90 95 94 94 95 95 94 95 93 96 97 96 98 96 98 99 100 99 99 99 99 100 100 98 99 99 96 92
92 93 93 94 92 92 92 89 91 90 90 92 94 93 90 93 94 94 95 96 97 96 96 97 95 94 96 97 98 100 100 100 100 100 100 100 100 100 100 100 100 100 96
93 94 92 92 92 92 92 90 93 94 94 94 93 94 94 96 97 96 98 98 95 97 99 98 98 96 97 99 97 96 98 100 100 100 100 100 100 100 100 100 100 100 99
93 94 91 93 92 92 94 95 94 94 94 96 96 96 96 98 98 98 99 98 97 100 100 100 96 96 94 99 99 99 99 100 100 99 100 100 100 99 100 100 99 100 99
92 92 93 93 93 94 94 94 95 95 96 97 98 97 97 97 96 100 100 100 99 98 99 100 100 99 99 99 100 98 97 100 100 100 100 100 100 100 100 100 100 97 97
90 91 93 93 95 95 96 96 97 96 98 98 98 99 99 99 100 100 100 100 99 99 98 99 99 100 98 99 100 100 100 100 100 100 100 100 100 100 100 100 99 98 96

GFSGL_sfc_rhum_102.txt.gz
RH
86 85 95 96 95 95 93 90 89 92 94 94 91 92 93 93 90 88 88 91 92 91 89 87 89 91 94 96 97 96 97 98 98 87 92 90 89 88 90 95 94 96 95
85 89 95 95 94 94 94 91 85 91 91 91 90 90 90 88 90 87 87 86 86 89 89 89 85 94 94 96 97 96 94 95 94 92 90 92 94 93 93 94 97 97 94
83 88 93 96 94 93 92 91 86 87 89 88 87 90 92 90 92 89 86 86 86 83 91 91 86 94 91 93 95 97 96 96 97 95 92 96 97 98 98 96 95 96 92
79 85 89 96 94 93 91 90 88 84 84 90 85 85 90 91 89 87 85 85 85 79 81 90 86 92 87 90 91 91 93 98 98 97 96 95 99 98 98 98 99 97 96
84 85 87 92 93 93 92 89 90 88 82 83 88 88 87 88 87 87 83 84 82 78 77 83 87 90 94 93 94 94 96 97 96 98 97 96 100 99 99 98 99 99 97
86 91 86 88 91 93 93 92 88 84 83 81 81 86 91 84 91 93 89 88 88 87 87 89 88 98 98 100 99 98 99 97 95 96 95 99 100 99 98 99 99 99 99
94 93 90 87 88 92 91 90 86 83 82 85 83 80 83 84 90 92 94 89 92 92 91 92 100 100 99 98 97 95 95 94 99 100 99 99 99 99 98 100 100 98 97
93 92 92 90 91 90 90 87 86 85 87 86 88 86 84 85 92 90 90 87 90 90 89 89 93 99 99 98 96 97 97 96 95 92 96 98 97 97 96 96 95 94 93
90 92 93 94 89 90 94 94 90 91 91 91 88 90 90 88 95 92 92 89 90 98 100 99 98 99 98 97 94 97 98 98 90 89 90 92 92 93 95 92 96 94 96
91 90 89 89 94 96 90 91 93 92 93 94 94 96 96 92 98 95 93 88 95 99 100 100 99 98 97 93 94 96 97 98 95 94 93 92 91 92 94 94 93 93 93
84 85 87 88 91 94 97 97 94 96 98 99 98 98 98 98 98 98 99 93 97 99 98 98 98 97 95 93 91 91 94 94 95 93 92 93 93 92 91 92 90 86 86
82 85 86 89 88 88 94 96 97 98 98 98 97 97 97 98 97 96 96 98 98 97 98 96 98 94 94 93 93 93 92 92 92 94 93 94 93 92 90 87 85 79 75
84 88 89 89 88 89 94 95 96 94 96 96 95 96 97 96 96 95 95 95 95 96 96 97 95 93 91 92 92 92 93 94 94 94 95 94 93 88 82 79 77 64 52
86 88 89 92 94 94 92 94 95 95 95 95 95 96 96 96 96 96 95 94 91 94 95 95 95 95 95 95 95 95 95 94 94 94 92 88 82 80 78 72 77 74 75
84 84 89 89 90 92 95 96 96 98 95 95 96 95 95 96 98 96 93 94 95 95 94 94 95 95 95 94 94 94 92 87 88 89 88 86 83 80 81 72 71 70 77
88 88 90 87 87 87 86 91 95 95 94 93 89 89 95 94 91 92 94 94 94 92 92 94 95 95 94 93 91 90 87 85 84 84 88 83 83 80 78 75 76 79 81
96 94 91 90 92 93 90 88 93 94 94 94 90 87 86 87 88 89 91 92 93 88 93 94 95 95 94 90 89 88 91 88 82 86 87 86 86 81 83 82 81 79 79
93 92 94 95 94 94 93 93 92 92 94 95 93 92 89 88 88 89 86 81 90 90 92 93 94 92 90 88 87 87 86 88 85 83 87 90 91 85 86 84 83 90 84
92 94 94 94 94 92 91 91 92 92 94 95 93 91 93 89 89 86 83 89 91 90 88 89 91 88 87 84 91 93 93 92 91 92 90 90 96 86 88 85 84 91 89
92 93 92 92 92 93 92 92 92 92 93 94 95 96 91 83 92 95 93 93 92 91 89 87 86 88 91 90 95 95 95 94 93 91 98 98 97 90 92 92 94 92 84
93 93 93 92 93 92 92 92 91 91 92 93 96 94 89 92 96 95 95 96 94 92 94 91 93 94 93 94 90 94 93 97 93 93 92 93 98 94 91 91 91 88 84
92 92 92 93 92 94 93 90 91 89 89 92 94 92 90 93 93 94 95 97 97 95 92 93 93 93 93 91 92 97 98 100 98 96 95 95 94 94 93 93 94 95 90
93 93 93 93 92 92 93 91 93 94 94 94 92 92 92 95 95 95 98 98 95 96 93 91 93 91 92 97 96 93 96 97 96 97 97 98 95 95 98 96 94 94 94
93 94 91 93 94 93 94 95 94 92 93 95 95 95 96 97 98 99 99 98 97 98 96 96 94 95 94 100 100 99 96 99 95 96 98 98 96 94 97 95 94 97 96
94 94 95 95 95 96 95 94 95 95 95 95 96 96 95 96 96 99 98 96 95 97 97 99 97 95 100 99 99 97 100 100 100 100 100 100 100 100 100 98 99 96 96
92 93 95 95 96 96 96 96 97 96 97 97 97 98 97 97 96 98 97 97 97 96 97 98 96 97 96 96 98 100 100 100 98 99 98 96 100 99 100 100 100 99 96

GFSGL_sfc_rhum_105.txt.gz
RH
84 80 91 84 80 79 81 82 80 82 83 89 94 92 93 93 92 91 88 84 88 88 90 92 89 83 84 84 94 94 90 81 79 80 78 66 71 70 64 71 73 73 72
84 84 90 86 82 82 82 81 81 87 86 87 90 91 91 90 90 90 87 83 85 90 89 89 84 90 90 89 93 89 90 78 74 72 78 93 84 76 71 76 78 77 80
83 87 90 89 85 84 82 80 78 82 90 86 90 91 90 90 88 85 82 78 77 83 86 86 80 81 90 91 90 92 92 91 89 79 77 90 87 88 83 82 86 92 87
83 84 90 91 84 81 79 78 78 76 84 88 90 90 91 90 88 83 85 84 79 80 82 85 80 81 81 83 92 92 94 96 95 95 89 91 89 81 88 88 96 95 96
85 84 87 86 83 80 80 78 76 77 74 77 83 85 88 89 88 92 86 87 88 88 90 87 85 85 87 81 85 89 93 95 94 96 96 95 96 99 97 92 98 98 96
86 88 84 85 85 84 81 79 79 77 73 76 80 82 84 77 97 98 92 90 88 88 88 85 81 96 94 97 100 100 97 93 94 97 97 98 94 96 97 98 99 99 99
92 90 88 87 86 85 81 78 77 77 75 75 78 81 85 82 97 97 97 74 83 86 85 83 83 94 99 94 98 96 95 95 99 99 98 99 100 97 97 100 100 97 95
92 90 88 90 89 86 82 81 81 77 83 81 82 83 85 86 96 96 96 78 78 77 77 76 79 86 98 97 95 97 97 95 94 93 98 100 99 97 96 95 95 95 94
90 92 92 92 93 91 90 89 83 84 86 85 84 86 86 86 97 95 96 88 86 88 81 79 77 81 100 98 96 98 98 98 90 90 91 91 91 92 91 87 93 90 92
90 87 85 86 89 91 95 98 91 89 90 90 96 98 98 96 98 99 94 90 94 98 99 100 99 98 99 97 98 97 97 98 95 92 92 92 90 92 92 93 92 94 90
81 82 85 86 87 89 92 94 97 98 98 97 97 98 97 98 98 97 99 97 100 98 97 98 98 98 99 96 94 95 95 93 95 94 93 92 92 92 90 89 88 81 83
81 84 86 87 86 86 91 93 94 95 97 97 96 97 97 98 97 97 98 97 96 96 98 97 98 95 94 94 93 93 92 92 93 93 93 94 93 92 87 84 83 77 68
84 88 89 89 88 88 93 93 94 93 95 96 95 97 98 97 97 95 94 95 94 95 95 96 95 93 92 94 95 94 95 95 94 94 95 95 93 88 88 83 73 61 56
83 85 84 88 91 92 89 92 94 95 96 96 96 97 96 96 96 94 94 92 89 92 91 94 94 94 94 95 95 95 96 95 94 94 92 88 85 83 81 76 78 69 61
77 78 83 82 85 88 94 94 94 97 94 95 95 94 94 96 97 92 91 93 94 92 92 92 93 92 93 93 92 93 92 87 87 89 87 85 82 77 75 66 59 58 61
81 81 84 79 79 82 83 90 93 92 91 90 87 90 95 94 90 85 84 84 82 79 86 90 92 89 87 84 84 80 77 77 75 75 78 74 73 70 68 65 64 63 64
92 90 84 83 83 83 82 84 92 93 93 90 88 87 88 90 88 86 85 83 78 76 87 87 90 90 85 72 71 72 77 75 72 71 73 75 74 71 70 69 68 63 63
92 89 92 92 91 91 90 91 90 90 93 94 93 92 90 88 87 84 78 75 81 78 77 82 83 78 71 69 67 66 67 71 70 68 74 77 77 73 73 68 69 74 65
90 90 89 90 88 87 86 86 85 86 87 88 83 84 85 86 85 83 79 80 80 76 71 72 75 69 68 68 79 79 80 79 78 80 76 75 80 69 71 69 69 76 68
89 89 84 84 85 84 82 83 83 84 84 86 86 87 78 73 87 89 86 85 81 73 71 67 67 70 75 75 82 83 82 80 79 76 84 84 83 76 77 75 78 75 66
85 85 86 81 82 82 83 83 82 83 84 83 87 88 80 78 83 83 81 83 79 77 80 73 78 80 78 79 72 78 76 81 75 76 76 77 84 81 73 73 75 70 66
85 84 85 86 83 86 83 79 81 78 76 79 82 84 81 83 81 81 82 87 87 80 77 79 77 77 75 75 77 82 81 83 80 78 79 78 75 77 76 76 78 79 73
87 88 85 83 83 84 82 76 81 82 82 82 78 79 81 86 86 82 86 88 82 84 80 78 81 78 80 83 80 76 76 78 80 80 81 80 76 78 82 80 78 79 79
87 89 83 86 83 80 85 87 85 81 81 85 87 86 86 87 89 89 90 89 86 87 86 85 82 79 83 86 82 79 77 82 79 82 82 82 78 75 79 77 77 82 82
87 88 87 86 85 87 87 84 85 86 86 86 87 86 82 85 85 88 88 86 86 86 87 85 83 85 87 88 87 85 92 93 86 90 81 81 82 83 82 80 83 80 81
81 82 84 84 87 86 86 87 88 86 87 88 87 87 85 84 82 84 83 82 82 84 83 84 83 85 82 78 81 93 91 89 83 87 82 78 82 80 81 83 83 83 80

GFSGL_sfc_rhum_108.txt.gz
RH
80 86 86 70 63 63 65 74 77 70 66 70 76 93 91 91 92 90 89 92 91 91 92 91 88 92 79 86 78 58 65 53 58 54 58 65 79 65 57 61 64 59 69
81 88 81 73 65 69 71 75 78 74 68 69 78 91 92 94 92 90 89 89 87 88 87 88 90 92 86 89 73 79 58 59 82 81 71 75 83 80 62 81 81 66 67
82 87 85 84 73 73 72 73 74 73 68 72 75 88 92 94 93 92 88 90 87 84 84 83 84 92 91 90 89 73 72 77 88 85 80 80 74 78 94 94 89 86 82
84 86 87 89 77 73 71 74 73 76 75 77 74 76 82 86 86 86 84 85 87 87 86 82 82 90 87 88 91 89 82 92 95 92 91 91 92 94 93 97 100 98 96
89 89 90 87 74 69 70 72 71 73 77 72 78 77 81 83 82 86 84 83 81 81 85 80 80 83 86 84 83 86 91 90 91 94 94 92 91 98 98 91 98 98 98
91 91 86 84 76 74 72 73 76 74 70 78 83 85 86 79 99 99 90 87 81 77 78 82 84 96 96 93 95 100 98 94 95 97 93 95 92 97 99 99 99 99 99
93 90 83 76 78 76 72 71 74 75 72 74 72 80 86 86 100 100 100 84 91 87 84 87 94 96 98 96 98 98 97 97 100 94 97 94 97 99 98 100 100 99 97
94 92 89 85 81 75 74 74 72 70 71 71 76 76 77 80 99 100 100 84 92 90 88 88 90 93 96 97 98 99 99 97 96 96 99 100 100 99 97 97 97 95 92
89 89 89 89 90 88 87 82 76 74 73 71 71 75 81 86 100 99 98 90 82 83 77 77 79 84 96 99 97 98 98 98 93 92 92 92 92 92 87 87 92 90 93
90 92 86 86 87 91 93 95 94 87 88 90 92 95 98 94 98 100 98 95 96 99 99 99 99 94 100 99 98 97 97 98 95 92 90 90 89 91 92 93 94 94 93
89 86 88 84 88 89 91 93 96 97 95 97 97 97 96 97 96 98 100 95 100 99 98 98 98 98 98 97 95 96 96 94 95 94 92 90 90 91 90 92 93 89 91
89 84 85 86 84 84 89 91 91 94 96 97 97 98 97 96 96 97 98 98 96 97 98 97 98 96 96 95 94 93 93 93 94 95 94 94 94 94 92 88 89 85 77
77 82 85 84 82 83 89 91 92 92 95 96 94 96 97 96 96 94 93 95 95 95 94 94 93 92 92 93 91 90 93 95 95 94 95 93 92 89 88 86 84 76 68
74 77 80 87 89 89 87 91 92 94 95 95 96 96 96 95 95 94 94 92 88 91 93 94 92 92 91 94 94 95 96 93 91 91 88 81 77 78 81 80 82 80 77
68 69 74 78 84 88 92 92 94 97 93 94 95 94 95 97 97 90 89 93 93 92 92 92 94 92 92 89 88 87 84 80 77 73 71 67 65 65 70 66 62 62 59
72 74 76 73 79 81 82 90 93 90 88 88 85 89 94 92 93 89 84 84 84 84 92 93 92 89 85 80 75 69 63 62 58 59 61 56 58 61 60 58 56 57 57
93 92 82 80 79 80 82 83 92 94 90 90 88 89 89 87 82 80 80 78 79 77 86 85 89 87 78 66 63 61 65 62 60 59 63 66 65 62 62 61 61 57 56
90 85 90 90 90 89 89 90 90 88 91 93 89 88 84 83 84 82 74 73 79 74 73 77 77 72 62 58 57 56 56 61 61 60 67 69 68 64 64 59 61 67 57
86 86 87 87 85 84 84 84 83 84 85 88 86 84 84 82 79 76 71 74 71 66 61 62 67 61 60 60 73 74 75 74 72 74 71 69 74 63 63 60 64 68 59
85 83 81 82 82 82 80 80 79 80 80 82 83 83 75 71 83 83 79 79 73 63 61 57 58 62 67 69 77 78 76 75 73 70 79 78 77 69 69 68 71 71 55
82 82 80 77 78 78 79 78 77 79 79 78 82 81 70 71 76 75 73 76 71 68 72 64 70 72 70 70 64 71 68 75 68 68 69 71 77 73 66 68 71 64 58
76 76 77 80 79 82 78 74 74 68 66 69 74 74 71 77 73 73 74 81 81 72 69 71 69 67 66 65 68 76 74 76 73 71 72 70 68 71 70 71 73 74 66
78 81 78 77 77 79 78 69 74 75 74 74 69 71 73 79 78 74 79 82 76 78 74 72 75 72 72 74 71 68 69 71 73 74 76 76 70 73 78 76 71 71 71
79 82 75 81 79 74 80 82 78 72 74 78 81 80 79 80 83 81 82 81 79 81 80 78 74 69 71 75 72 70 68 72 70 72 69 75 72 70 74 70 69 71 73
82 83 82 79 79 81 81 78 79 80 79 80 81 80 74 77 76 81 81 79 77 79 76 76 74 73 76 77 77 77 84 83 79 89 73 71 71 74 72 71 74 70 71
71 73 76 77 79 79 80 80 81 79 80 81 80 80 78 76 74 78 77 75 75 75 73 76 75 73 54 66 72 83 82 81 78 80 79 72 74 73 72 73 71 74 69

GFSGL_sfc_rhum_111.txt.gz
RH
64 73 80 82 73 68 62 60 60 65 67 67 79 88 92 93 93 95 94 93 96 94 93 93 92 94 93 90 81 66 75 58 55 54 52 70 73 77 86 74 72 63 87
74 82 86 84 79 69 66 64 65 69 61 60 71 88 91 92 92 93 95 93 94 98 97 94 93 94 96 93 95 84 58 64 63 61 51 67 70 79 86 88 82 66 70
80 87 87 88 84 73 68 68 72 68 66 64 72 80 88 92 93 91 90 91 93 91 95 95 92 92 92 93 94 92 81 78 83 82 67 68 77 92 98 98 96 92 86
84 86 92 89 82 74 69 70 77 66 66 67 73 78 88 92 93 92 92 93 94 93 95 93 93 91 89 92 92 95 95 95 94 91 80 84 93 91 97 98 99 97 97
89 92 93 90 81 76 72 72 77 69 66 68 74 74 80 84 84 89 87 90 92 93 93 93 92 90 94 94 91 93 95 97 95 92 89 89 95 97 99 98 99 99 99
93 94 92 94 85 75 75 77 80 77 66 72 76 79 80 68 97 99 90 87 87 90 95 93 88 97 96 97 96 96 92 94 95 95 92 97 92 96 96 97 99 99 100
94 93 94 92 84 79 77 77 75 78 79 72 69 72 74 71 98 99 98 82 86 85 85 88 88 86 93 87 99 100 99 98 100 92 92 94 96 97 98 100 100 100 100
96 95 94 88 80 77 76 78 78 71 78 81 83 81 76 76 100 100 100 84 89 82 81 78 84 94 93 96 99 99 98 97 98 96 98 100 100 100 99 99 98 97 96
92 93 92 92 88 76 78 78 75 78 79 80 79 78 78 87 100 100 98 89 94 94 89 86 85 89 100 100 98 98 98 98 93 91 91 92 93 94 94 93 96 94 96
95 94 91 91 92 93 94 93 93 79 82 88 92 94 98 91 97 99 97 96 100 100 99 99 99 99 100 100 98 96 98 98 96 94 94 93 91 92 93 95 92 95 94
99 93 96 93 93 93 93 94 95 96 96 97 97 96 95 96 96 98 99 95 100 99 99 98 99 99 98 98 97 98 97 94 96 94 94 93 93 93 92 94 96 96 95
100 100 95 99 96 89 93 93 92 94 96 97 97 97 96 96 95 96 98 98 96 96 98 98 99 96 96 95 94 94 93 94 94 94 94 96 96 95 94 93 95 92 92
96 96 97 98 94 90 94 94 93 92 95 96 94 96 97 95 95 93 94 95 93 95 94 94 92 92 92 92 92 92 93 95 96 96 96 96 94 89 80 76 73 66 65
80 87 86 92 93 91 88 92 93 94 95 95 96 97 97 96 96 95 95 93 89 93 94 94 92 91 90 92 93 94 96 96 94 92 90 85 73 67 67 62 67 61 60
69 69 75 81 84 87 92 93 93 97 94 95 96 95 96 97 98 92 91 94 94 92 91 92 94 93 92 92 92 91 90 84 80 74 70 64 59 58 60 56 56 51 54
77 76 82 80 81 84 84 90 95 94 94 93 89 90 95 92 89 88 90 94 96 88 88 90 92 91 85 78 75 70 65 62 57 57 57 54 57 60 59 57 55 56 55
94 92 86 86 87 88 85 84 91 91 88 89 89 88 88 85 83 81 82 80 78 77 86 87 90 88 80 68 66 64 65 60 57 60 62 64 64 61 62 60 59 55 52
92 88 93 93 94 94 93 94 92 92 94 95 90 87 86 88 85 77 77 73 79 76 78 81 80 71 62 59 57 58 58 62 62 62 67 68 68 63 63 59 61 64 53
88 88 91 91 92 91 90 90 90 88 89 91 89 88 88 79 74 71 70 73 70 66 62 62 66 61 62 62 73 74 76 74 73 74 70 69 73 62 61 59 62 69 69
85 89 84 84 84 84 82 80 80 80 81 83 85 88 79 72 84 86 81 80 72 62 61 58 59 62 68 68 75 76 75 74 73 71 78 77 75 68 68 66 68 64 54
86 83 84 78 78 78 78 78 78 79 80 80 82 78 68 71 74 75 72 74 70 67 71 64 69 70 68 69 64 71 69 75 68 68 69 70 75 71 64 63 64 59 56
84 82 84 85 82 84 79 73 72 68 66 69 72 70 68 74 72 72 73 78 79 71 69 72 69 67 67 66 69 74 74 75 72 70 71 68 65 67 65 66 67 67 62
87 88 84 82 79 79 79 72 75 74 72 72 68 70 72 77 77 74 78 80 75 78 74 72 75 71 72 74 72 69 70 72 75 74 71 69 65 69 71 68 65 68 68
80 82 76 82 81 75 78 80 75 70 72 76 79 78 77 79 81 80 81 80 79 80 79 78 75 74 72 75 72 70 74 83 69 72 73 74 67 67 68 65 64 65 70
84 85 84 79 77 78 78 75 76 77 77 78 79 78 72 75 74 79 79 77 76 78 75 76 74 71 73 75 76 79 82 82 81 82 74 67 67 72 71 70 70 69 68
68 69 72 74 76 76 77 78 78 77 78 78 78 78 76 74 74 77 75 74 74 74 72 75 73 71 68 70 75 80 80 80 80 80 79 74 71 70 70 71 68 71 68

GFSGL_sfc_rhum_114.txt.gz
RH
72 79 74 76 77 79 82 80 74 74 78 85 90 90 93 94 93 95 96 95 95 94 92 95 92 95 97 96 97 94 92 81 77 83 84 86 87 92 89 90 92 95 97
80 76 80 84 81 82 88 80 79 74 77 85 90 92 95 95 95 96 97 96 95 95 94 92 96 96 95 94 96 96 94 86 76 81 84 88 87 90 92 90 94 85 93
81 86 92 91 86 90 92 80 77 75 75 72 85 89 91 94 96 95 94 96 96 94 93 96 93 97 96 96 95 97 95 91 87 80 80 88 90 96 98 98 96 94 89
81 90 94 92 88 88 88 79 78 77 70 70 85 91 93 94 94 94 93 94 95 95 96 92 91 95 95 96 95 94 97 96 95 95 95 94 94 96 97 99 100 98 96
87 90 94 91 89 88 87 80 78 82 75 74 82 87 90 92 90 94 92 93 94 97 98 98 96 94 97 95 94 97 97 97 98 98 98 97 98 100 99 98 99 99 99
89 92 94 93 95 94 88 86 82 85 81 76 74 89 92 84 100 100 95 94 95 96 98 99 99 100 100 100 100 100 96 96 97 97 96 98 95 97 98 99 99 99 100
90 94 94 93 96 95 88 86 88 85 84 81 81 80 85 80 99 100 99 90 94 95 96 97 98 98 99 98 100 100 99 99 100 94 95 97 97 97 97 100 100 100 100
90 91 95 95 95 95 92 90 89 88 90 86 86 86 87 90 100 100 100 91 93 92 92 92 95 96 96 97 99 99 99 98 99 98 99 100 100 100 99 99 99 98 96
94 93 91 95 96 94 92 90 88 88 91 90 92 93 95 96 99 100 99 95 98 96 94 97 94 96 100 99 98 98 98 98 93 92 93 94 94 95 96 96 98 96 97
98 96 94 93 96 97 98 98 97 93 92 92 94 95 97 96 98 99 100 99 99 99 99 99 99 99 100 100 98 98 98 98 97 95 95 94 93 94 95 96 97 97 96
100 98 96 95 94 95 96 96 95 96 96 97 97 97 96 97 97 99 100 99 99 99 99 98 99 98 99 98 98 99 97 95 96 95 94 93 93 93 93 94 96 95 96
98 97 98 100 98 93 94 96 94 95 96 97 97 98 97 96 95 96 96 96 94 97 98 98 97 94 94 95 94 94 93 94 94 94 94 95 95 95 95 95 96 95 94
98 96 96 97 99 100 97 98 97 94 95 96 95 97 98 96 95 93 94 94 94 96 95 95 92 91 91 93 93 93 93 94 94 94 95 96 96 96 92 84 77 70 66
95 96 96 96 95 96 95 96 96 96 95 95 95 96 97 96 96 96 96 94 91 94 94 95 94 94 92 93 93 93 94 94 94 95 96 96 94 81 80 82 80 76 73
93 87 92 92 94 93 95 96 95 97 96 95 96 96 96 97 98 94 92 94 94 93 91 90 92 92 92 93 94 95 96 93 92 93 88 79 76 77 83 86 85 85 86
88 90 91 87 86 88 88 92 93 93 93 94 93 91 96 97 94 92 94 97 89 83 87 92 94 91 88 84 82 79 75 73 73 74 83 77 81 88 87 88 89 90 86
96 95 92 94 94 93 90 88 93 90 91 94 94 95 91 85 83 82 82 80 79 78 88 89 90 88 84 78 77 78 82 83 79 81 83 86 89 88 89 88 91 87 85
94 94 96 97 96 93 91 92 91 92 94 96 88 83 81 85 83 78 75 73 80 77 79 81 82 80 76 76 78 79 80 85 85 85 91 93 93 92 92 88 89 94 89
91 93 92 92 90 88 89 91 94 94 96 96 92 92 85 76 75 72 69 77 78 77 75 77 82 82 86 88 91 90 89 90 91 92 92 92 94 93 91 87 87 82 88
91 92 90 90 89 88 87 86 86 87 88 90 93 95 84 79 86 86 84 84 82 79 79 78 79 83 87 89 94 94 94 92 91 93 96 95 94 94 94 90 90 94 84
93 91 88 87 90 88 88 87 85 86 87 87 88 85 80 84 88 88 89 89 87 85 86 83 86 88 87 88 87 90 90 92 92 93 94 94 95 94 92 92 93 91 86
87 86 87 91 89 91 89 82 80 78 79 82 84 82 82 85 86 88 91 92 91 88 86 88 89 91 90 89 91 92 94 95 94 93 92 93 94 93 93 92 93 94 92
94 93 91 90 90 91 91 85 85 84 84 84 84 86 88 90 90 90 91 90 89 92 90 88 90 89 89 88 87 91 91 93 95 93 95 94 91 94 95 94 91 93 93
92 91 88 92 90 84 87 87 86 84 86 88 89 89 89 90 91 91 92 93 93 90 89 90 90 91 92 92 89 89 92 93 93 95 92 94 92 91 92 93 94 90 91
90 92 94 92 87 88 87 86 87 87 88 88 89 89 88 88 89 90 91 90 90 90 91 93 92 87 88 91 91 92 93 98 93 94 94 93 90 84 92 91 92 91 90
84 86 87 87 89 88 88 89 90 89 90 90 90 89 88 88 87 89 88 88 91 90 88 93 89 90 87 88 90 97 94 94 96 93 96 96 96 95 95 94 89 95 91

GFSGL_sfc_rhum_117.txt.gz
RH
69 75 79 88 84 88 92 93 91 82 82 90 95 94 97 97 96 97 97 97 98 97 95 96 93 96 96 98 96 96 97 95 88 86 82 86 89 93 96 96 94 97 98
74 77 78 86 86 90 93 94 89 82 89 91 94 92 95 96 97 98 98 97 97 98 97 96 95 94 95 97 96 96 96 97 92 83 87 92 92 96 96 98 91 88 95
78 80 81 88 94 94 93 94 86 86 90 91 94 94 96 95 96 96 95 96 96 95 95 96 94 95 96 96 95 97 96 96 96 90 92 94 97 96 99 96 96 96 92
78 83 85 88 94 95 96 95 86 84 89 93 93 93 94 97 96 96 96 97 97 95 93 92 94 94 93 94 93 93 96 95 97 96 96 97 97 98 98 98 99 98 98
83 84 87 86 92 94 96 95 89 85 79 92 93 93 93 94 94 96 96 97 98 99 97 96 93 94 97 95 92 94 97 96 95 96 99 99 99 100 98 99 99 99 99
84 86 84 88 93 94 95 95 95 90 82 88 94 96 97 92 100 100 97 96 96 98 99 99 99 100 100 100 100 100 95 94 96 97 99 99 98 98 99 99 99 99 100
85 82 83 90 96 96 93 91 94 91 88 88 94 94 96 92 100 100 100 95 97 98 98 99 99 99 100 99 99 99 99 99 99 94 97 98 98 98 98 100 100 100 100
85 86 86 89 95 97 94 93 95 93 91 90 92 92 93 94 100 100 100 96 97 97 97 97 98 99 99 98 98 99 99 98 99 99 100 100 100 100 99 99 100 98 98
87 90 91 92 90 98 98 97 95 95 94 96 95 96 96 97 100 100 100 97 98 99 94 96 97 98 100 99 98 98 98 98 95 94 94 94 95 96 96 97 99 98 98
94 96 93 94 93 95 98 97 99 96 96 95 97 96 98 98 98 100 99 99 99 99 99 99 99 100 100 99 98 98 98 98 98 96 95 94 93 94 95 97 99 98 96
94 96 96 97 95 96 97 98 97 97 97 97 97 97 97 98 98 99 100 99 98 99 99 98 99 99 99 99 99 99 98 96 96 96 95 94 93 94 94 95 97 96 97
95 96 97 97 99 95 96 97 96 96 97 98 98 98 98 97 97 98 98 97 97 97 98 98 98 96 96 95 95 94 93 94 94 94 94 96 96 96 96 95 96 95 95
95 96 97 97 97 100 97 97 96 96 96 96 96 98 98 97 96 94 94 95 94 97 96 94 91 91 91 93 93 92 93 94 95 94 96 96 95 95 90 82 74 66 66
96 97 96 96 96 96 95 97 96 96 95 95 95 96 97 96 96 96 96 94 91 93 94 94 94 93 94 94 94 94 95 94 92 93 94 96 94 82 81 74 76 72 68
96 97 96 95 96 96 96 97 96 97 97 96 97 96 96 97 98 94 91 94 95 97 95 94 94 94 94 94 94 93 94 95 94 95 94 89 77 76 84 89 87 75 78
94 95 96 95 95 95 94 94 97 98 98 98 98 95 98 98 97 95 95 95 94 88 90 92 94 92 92 90 88 85 83 81 78 79 80 78 83 87 85 85 80 81 81
95 95 96 95 95 95 94 94 95 96 97 98 98 97 95 95 95 92 87 85 80 78 88 90 92 90 87 81 82 83 88 85 80 82 84 90 90 85 83 84 87 83 83
93 92 95 97 96 94 95 96 94 94 94 96 93 85 83 80 77 73 71 72 81 79 82 88 91 90 88 88 87 88 87 90 90 90 92 93 93 89 88 86 87 93 93
94 96 95 94 93 90 90 90 91 94 96 96 92 88 81 75 74 73 72 82 85 86 84 88 90 89 89 88 91 91 91 95 92 92 92 88 94 84 90 90 88 90 85
95 94 94 94 93 91 90 90 90 90 91 92 93 95 87 84 91 92 90 90 90 88 86 84 84 87 91 93 94 94 91 92 93 93 96 96 96 92 92 90 91 90 89
96 96 95 93 93 92 92 90 88 90 91 92 94 90 87 91 94 94 93 94 94 94 95 94 95 94 93 92 88 91 92 94 94 94 93 92 93 94 92 94 93 94 88
96 94 93 95 94 94 88 84 87 88 89 91 93 90 88 93 93 94 94 95 96 95 94 94 95 96 97 97 95 94 95 97 98 96 94 95 93 94 95 94 93 95 94
94 94 91 91 91 93 92 89 92 92 93 94 94 94 94 95 95 95 96 95 95 96 95 95 96 96 95 96 96 97 97 99 99 97 96 95 93 95 98 96 97 95 97
97 96 94 96 93 92 92 93 93 92 93 94 94 95 95 95 96 95 96 96 94 94 93 92 94 95 94 96 96 95 93 96 96 97 98 96 94 95 95 96 97 95 97
97 97 96 96 95 96 94 95 96 96 95 96 97 95 96 95 95 97 97 95 94 93 94 95 94 94 95 95 95 94 98 99 94 97 97 99 98 96 98 99 100 96 96
93 94 95 95 96 96 96 96 96 97 97 97 97 97 97 96 97 97 96 96 96 96 96 97 93 94 96 96 95 99 98 97 97 99 99 98 96 98 97 98 94 98 98

GFSGL_sfc_rhum_120.txt.gz
RH
77 77 78 78 77 79 86 90 91 90 92 93 94 96 97 97 97 98 97 97 98 98 97 96 97 96 97 96 96 94 97 97 95 98 91 93 91 94 98 97 96 97 98
79 80 81 81 80 82 83 92 90 91 94 93 92 96 97 97 97 97 98 97 98 98 98 97 96 98 97 97 96 95 94 96 95 94 96 96 96 98 98 98 95 96 97
79 79 81 83 85 86 86 92 91 92 93 92 94 96 98 97 98 97 96 97 97 97 96 97 96 97 98 98 96 96 96 96 96 96 98 97 100 98 98 97 98 98 95
80 82 85 86 85 86 86 90 96 94 94 94 94 94 96 95 94 97 97 97 97 95 95 96 94 95 95 97 95 94 94 97 97 96 98 99 98 99 97 97 99 99 98
81 82 84 82 81 83 88 89 95 94 92 91 95 95 95 94 96 97 96 97 97 97 97 96 94 94 96 96 96 97 96 96 97 95 98 99 100 99 98 99 99 99 99
83 83 80 82 81 83 88 92 96 95 92 93 96 98 98 94 100 100 99 98 98 98 98 98 96 100 100 100 100 100 96 95 96 95 95 96 99 98 99 98 99 99 100
84 81 80 83 85 85 89 92 96 96 94 97 96 97 98 95 100 100 100 97 98 98 99 99 99 99 100 99 100 100 100 100 99 91 94 94 99 98 98 100 100 100 100
85 85 83 86 88 85 86 89 95 96 96 97 98 97 96 98 100 100 100 98 98 98 98 99 99 99 99 98 99 99 99 99 99 100 99 100 100 100 98 99 100 99 98
87 88 87 87 91 89 90 96 94 96 96 96 96 96 96 99 100 100 100 99 99 100 97 98 98 99 100 99 98 98 98 99 96 96 97 97 97 97 97 98 100 99 99
93 92 87 87 90 95 94 95 96 98 98 98 98 98 100 99 100 100 99 99 99 99 99 99 99 99 100 98 98 98 98 99 98 97 96 96 95 95 96 99 99 100 97
92 92 90 89 92 96 94 95 98 98 98 98 98 98 98 99 99 100 100 98 99 99 99 99 99 100 100 100 98 99 99 97 97 96 96 95 94 95 95 96 98 98 98
91 92 93 93 94 95 97 98 98 97 98 98 97 98 98 98 98 99 99 98 98 98 99 99 99 98 98 97 97 96 94 94 95 96 96 97 97 97 97 96 96 96 96
90 93 95 93 95 96 97 97 96 97 96 97 96 97 98 98 98 96 97 97 96 97 96 96 95 95 94 95 94 93 93 95 95 95 97 97 96 96 95 91 85 73 69
94 93 94 94 95 96 97 96 96 96 96 97 96 96 97 97 97 97 96 95 92 95 94 95 94 94 94 95 95 95 95 94 93 94 95 95 90 85 78 70 74 70 71
90 92 94 95 96 96 96 98 97 98 97 97 97 97 96 97 99 97 95 96 96 96 94 93 94 94 95 95 95 95 94 92 93 94 93 83 73 70 78 80 77 70 72
89 89 93 92 95 96 96 96 97 98 97 98 98 95 97 96 97 95 96 95 95 95 94 94 95 95 95 95 95 94 93 94 95 94 88 76 79 81 81 79 79 81 82
94 94 91 93 94 95 95 96 96 96 96 97 97 96 96 96 95 94 95 95 93 87 92 95 96 96 96 95 95 94 95 92 83 83 87 88 86 85 79 83 86 79 82
93 92 95 96 96 95 96 96 96 96 95 96 95 94 94 94 93 93 94 93 94 90 92 94 95 94 91 89 86 86 86 89 87 86 89 90 90 86 85 84 86 90 86
93 95 95 95 93 92 92 92 93 93 94 94 92 90 94 90 86 81 78 86 88 89 88 90 91 89 89 88 93 92 92 92 91 90 89 86 93 84 89 89 87 89 86
96 94 94 93 92 91 91 91 91 91 92 93 94 96 89 85 93 94 93 93 92 90 89 89 90 91 92 92 94 93 93 92 92 91 95 94 94 89 90 91 92 90 90
98 96 93 91 91 91 91 91 90 91 92 92 95 94 90 92 95 95 94 95 94 94 95 94 96 94 93 93 90 92 92 94 93 93 92 93 93 94 94 95 94 92 88
96 95 94 95 93 94 93 91 93 91 91 92 94 92 90 94 94 94 94 96 97 96 95 95 96 96 97 96 94 94 96 96 97 95 95 95 94 94 94 93 94 95 93
96 95 93 93 93 94 94 93 95 95 95 95 94 94 94 96 96 95 96 97 96 97 96 94 95 96 96 96 96 95 96 99 100 98 94 95 94 95 96 96 95 97 98
95 96 92 94 95 95 96 96 96 94 94 96 96 96 96 97 97 98 98 96 95 95 95 95 94 94 94 96 96 94 94 97 97 98 95 93 94 93 95 96 96 99 100
96 96 96 97 97 98 97 97 97 96 96 97 97 98 98 97 96 97 96 96 96 95 96 95 94 94 94 95 94 92 98 100 98 100 98 97 97 99 99 99 100 98 100
95 95 97 97 97 97 97 97 98 97 98 98 98 99 99 98 99 99 98 96 97 98 97 98 96 96 98 98 94 99 96 96 98 100 98 95 95 98 98 99 99 100 99

GFSGL_sfc_rhum_123.txt.gz
RH
78 79 82 82 82 83 86 86 88 89 89 92 92 94 95 96 97 97 96 97 98 98 98 96 94 95 96 96 96 94 98 94 96 100 97 98 97 96 98 97 96 98 98
81 82 84 82 81 86 87 86 84 84 91 85 91 94 94 93 95 97 97 97 98 98 98 98 97 97 97 97 97 96 95 97 97 96 99 99 98 98 98 98 98 97 98
80 82 83 85 85 86 86 86 84 85 90 83 92 95 95 95 97 96 96 97 96 96 96 97 96 97 98 98 97 96 95 95 98 97 99 99 100 98 98 98 98 98 97
80 81 83 85 86 86 85 85 86 86 92 92 93 94 94 94 96 97 97 97 97 96 96 95 95 96 96 98 98 97 96 97 96 97 98 98 99 98 96 97 99 99 98
83 85 83 81 80 83 84 84 85 88 90 94 94 94 93 95 97 98 97 97 98 98 97 96 95 96 99 98 96 97 97 96 97 97 96 99 99 99 98 98 99 99 99
80 82 81 80 80 82 84 84 83 87 91 95 96 95 98 96 100 100 97 96 96 98 98 98 96 99 99 100 100 100 97 97 97 96 94 94 94 95 99 98 98 99 100
81 80 80 81 83 83 82 82 84 89 91 95 95 96 98 96 100 100 100 96 97 97 97 98 99 99 100 98 100 100 100 100 99 92 94 92 97 95 96 99 98 99 100
83 83 82 84 84 83 85 86 87 89 92 96 96 97 97 97 100 100 100 98 98 98 98 98 98 99 99 99 99 99 99 99 99 100 96 100 100 99 93 94 98 100 99
90 87 85 86 87 86 89 92 90 92 93 96 95 98 98 99 100 100 100 98 99 100 99 99 99 99 100 99 98 99 99 99 98 97 98 98 98 99 99 98 100 99 99
93 90 85 87 88 89 92 94 92 94 98 99 99 100 100 99 100 100 100 98 99 99 99 99 100 100 100 98 98 98 99 99 98 98 97 97 96 97 97 100 99 100 97
91 90 90 87 89 88 90 92 94 96 97 99 98 99 98 99 99 100 100 98 98 99 100 100 100 100 99 99 96 99 99 98 98 98 97 97 96 97 97 97 98 99 98
90 90 91 92 89 89 91 93 94 94 97 99 99 98 99 99 100 100 100 99 99 99 99 99 100 98 99 99 98 96 95 95 96 97 97 98 98 98 98 97 97 96 96
91 92 92 90 90 90 92 94 95 95 95 96 98 97 97 98 98 98 98 98 98 98 98 98 96 96 96 96 96 95 95 96 97 97 98 98 98 97 95 93 94 93 93
92 93 92 92 91 91 90 94 95 96 96 96 96 97 97 97 97 98 97 96 95 96 96 96 95 95 94 95 96 96 96 96 95 95 96 96 93 91 93 92 93 93 89
90 92 93 92 93 93 96 96 96 97 97 97 97 97 97 97 99 96 96 97 97 96 94 94 95 95 96 96 96 95 94 92 93 94 93 93 92 89 86 82 75 73 77
89 92 92 92 94 94 94 95 94 95 97 97 97 97 96 96 96 94 94 94 94 93 91 94 95 95 95 95 95 95 94 94 95 95 96 95 95 94 88 83 78 78 81
92 93 94 92 93 94 94 95 95 94 94 95 95 96 96 96 96 95 95 94 94 90 94 96 96 96 96 95 95 95 96 96 96 95 95 96 94 89 83 82 82 77 77
91 95 97 97 96 95 95 96 96 96 96 95 93 94 94 94 94 95 95 90 94 94 94 95 95 95 95 94 95 94 95 95 94 90 90 90 89 84 83 82 82 83 77
93 96 97 96 94 93 92 92 93 94 95 95 94 93 95 93 92 92 90 93 94 94 93 93 94 93 93 92 94 93 92 93 91 90 90 87 91 83 88 88 85 84 80
96 94 94 95 94 93 92 92 91 91 91 92 93 95 91 86 93 94 94 93 93 92 91 90 91 92 93 93 94 92 91 90 90 89 93 93 94 89 90 89 90 88 88
98 96 95 92 93 93 93 93 91 92 92 92 94 94 91 92 95 95 94 95 95 94 95 93 95 95 93 93 89 92 92 94 92 92 92 92 92 92 91 90 91 87 84
97 96 94 94 92 94 94 92 94 93 92 93 94 92 90 94 93 94 94 96 97 96 94 95 95 95 96 95 94 94 94 95 94 93 93 92 92 92 90 90 90 91 88
96 96 95 95 94 94 95 93 95 95 95 96 94 94 94 96 96 95 96 97 96 96 95 94 95 95 95 95 95 95 94 96 96 96 92 93 92 92 93 94 94 95 96
95 96 93 95 96 95 96 97 96 94 95 96 96 97 97 97 97 97 97 96 94 95 94 94 93 94 92 93 94 94 94 97 94 92 91 92 93 92 94 95 96 100 100
96 96 96 98 97 97 96 96 97 97 96 97 97 97 96 96 96 97 97 95 94 93 93 93 92 91 91 90 90 91 97 100 97 97 96 94 95 96 98 98 100 99 100
94 95 96 96 97 97 98 98 99 97 98 98 98 98 97 96 97 98 97 96 95 95 95 96 96 95 93 92 93 98 96 99 99 99 98 94 94 97 97 99 99 100 100

GFSGL_sfc_rhum_126.txt.gz
RH
79 80 83 85 84 84 88 88 89 89 88 89 91 88 92 90 94 93 94 93 96 95 96 96 96 94 96 96 96 96 96 96 98 99 97 99 99 97 99 99 98 96 96
78 78 79 80 82 86 87 86 86 88 86 84 88 92 85 89 92 95 95 93 96 98 98 98 97 96 96 96 97 97 95 94 95 99 98 99 98 96 98 99 98 98 98
81 82 83 85 85 87 88 86 85 86 87 87 84 91 86 85 94 92 92 93 93 96 96 97 96 96 97 97 97 98 97 97 95 95 99 99 99 98 98 98 98 98 97
78 81 86 87 86 84 81 85 86 84 86 85 85 92 88 87 91 93 94 94 95 96 95 94 94 96 96 96 98 98 97 98 97 98 99 98 97 99 96 97 99 99 98
81 82 84 81 79 79 80 81 84 85 82 82 86 92 89 92 96 96 94 95 97 98 96 96 95 96 98 98 97 98 98 98 98 98 98 99 99 98 98 98 98 99 99
82 84 81 81 80 82 82 82 83 84 82 84 87 93 96 97 100 100 98 96 97 98 98 98 97 99 99 100 100 100 97 97 98 98 96 97 97 97 98 97 98 99 100
84 82 81 81 83 84 81 81 83 86 86 88 89 93 96 95 100 100 100 97 98 97 97 98 98 98 100 98 100 100 100 100 99 92 95 94 97 95 96 99 98 98 100
84 83 82 84 85 83 83 83 87 88 90 91 91 92 94 96 100 100 100 96 97 98 97 97 98 98 98 99 99 100 99 99 100 100 94 98 97 96 93 93 95 100 99
85 86 85 85 86 85 86 88 89 91 92 92 91 93 97 98 100 100 100 98 99 98 97 96 97 98 100 100 99 100 100 100 98 98 98 98 99 100 98 98 99 98 100
93 90 83 84 85 84 89 89 90 90 92 92 97 98 100 98 100 100 100 98 99 100 100 100 100 99 100 100 98 98 100 99 99 100 100 98 98 99 99 100 97 99 98
92 91 89 86 87 82 86 87 89 91 91 94 96 96 97 98 99 100 100 98 98 99 100 100 100 100 99 99 98 99 100 99 98 98 98 98 97 97 97 99 100 100 100
92 92 92 90 90 82 89 88 86 90 93 95 94 95 95 97 99 100 100 99 100 99 100 100 100 99 99 99 99 97 96 96 97 98 98 99 98 98 98 97 97 97 97
92 93 93 90 90 90 91 91 89 90 92 95 95 96 96 96 97 99 98 98 99 99 99 99 98 97 97 97 97 96 96 97 97 98 99 99 98 97 96 95 95 93 94
93 93 93 93 91 92 89 90 91 91 92 95 95 95 96 96 97 97 98 96 96 97 97 97 96 96 95 96 97 97 97 96 96 97 98 97 94 92 94 91 93 92 90
88 92 94 92 93 92 93 95 94 95 96 96 97 97 95 96 98 97 96 97 97 98 95 95 96 96 98 97 97 96 94 93 95 95 94 93 93 92 94 93 93 92 93
86 87 92 93 93 92 92 91 85 93 91 93 94 97 97 96 95 95 95 95 94 96 94 95 96 96 96 95 95 95 94 94 94 92 94 93 94 94 94 95 95 94 94
95 96 95 94 94 94 93 93 94 91 92 93 93 94 94 95 95 95 95 95 95 90 94 94 95 95 95 94 94 94 95 95 95 95 95 96 95 95 94 94 93 87 82
95 95 97 97 96 95 95 94 94 95 95 95 92 94 93 94 94 95 95 91 93 93 94 95 95 95 95 95 95 95 95 95 95 95 95 96 96 92 90 87 85 85 78
94 95 96 96 95 93 92 91 91 91 93 94 92 90 94 93 94 93 90 93 94 94 94 94 95 94 94 94 95 95 96 95 94 94 93 91 92 84 83 80 81 80 75
94 94 94 94 93 91 91 91 90 90 90 91 92 94 92 87 92 94 94 95 94 94 94 92 92 92 93 92 94 92 91 89 88 87 92 92 91 86 86 86 86 85 84
97 94 93 91 92 91 91 92 91 92 92 92 94 94 90 91 94 94 93 94 94 93 94 92 93 94 92 92 89 91 90 92 89 88 88 90 90 91 87 86 86 84 80
95 93 92 93 91 93 91 89 92 92 92 93 93 90 89 93 93 93 93 95 96 94 93 93 94 94 94 94 92 92 92 93 92 91 91 90 88 88 86 86 86 86 81
94 95 92 92 91 93 94 92 94 94 94 95 94 93 93 96 95 94 95 96 95 95 94 93 94 94 93 94 94 92 93 94 94 91 91 90 88 88 90 88 86 87 87
95 95 93 94 96 95 96 97 96 94 95 96 96 96 96 96 97 96 96 94 93 94 94 92 90 90 89 94 95 94 92 93 90 90 90 90 90 88 90 89 89 92 93
96 96 97 97 97 98 97 97 97 98 97 97 97 97 96 96 94 96 95 92 91 92 93 92 91 89 90 89 93 95 97 99 94 93 90 90 91 91 91 92 93 89 92
95 96 96 96 97 98 98 97 98 98 99 99 98 98 98 97 97 98 95 93 93 94 94 93 90 91 89 89 91 98 97 97 95 94 92 89 92 93 93 94 92 92 92